[[{"header":{"parameterUnit":"m.s-1","parameterCategory":1,"la1":31.0,"la2":29.5877,"lo1":-88.7671,"lo2":-86.6584,"dx":0.0162,"dy":0.0185,"nx":115,"ny":88,"refTime":"2023-02-06T06:00:00:Z","depth":0,"parameterNumber":2,"parameterNumberName":"U-component_of_WINDS"},"data":[0.0,0.0,0.0,0.0,0.0,0.0,0.0,0.0,0.0,0.0,0.0,0.0,0.0,0.0,0.0,0.0,0.0,0.0,0.0,0.0,0.0,0.0,0.0,0.0,0.0,0.0,0.0,0.0,0.0,0.0,0.0,0.0,0.0,0.0,0.0,0.0,0.0,0.0,0.0,0.0,0.0,0.0,0.0,0.0,0.0,0.0,0.0,0.0,0.0,0.0,0.0,0.0,0.0,0.0,0.0,0.0,0.0,0.0,0.0,0.0,0.0,0.0,0.0,0.0,0.0,0.0,0.0,0.0,0.0,0.0,0.0,0.0,0.0,0.0,0.0,0.0,0.0,0.0,0.0,0.0,0.0,0.0,0.0,0.0,0.0,0.0,0.0,0.0,0.0,0.0,0.0,0.0,0.0,0.0,0.0,0.0,0.0,0.0,0.0,0.0,0.0,0.0,0.0,0.0,0.0,0.0,0.0,0.0,0.0,0.0,0.0,0.0,0.0,0.0,0.0,0.0,0.0,0.0,0.0,0.0,0.0,0.0,0.0,0.0,0.0,0.0,0.0,0.0,0.0,0.0,0.0,0.0,0.0,0.0,0.0,0.0,0.0,0.0,0.0,0.0,0.0,0.0,0.0,0.0,0.0,0.0,0.0,0.0,0.0,0.0,0.0,0.0,0.0,0.0,0.0,0.0,0.0,0.0,0.0,0.0,0.0,0.0,0.0,0.0,0.0,0.0,0.0,0.0,0.0,0.0,0.0,0.0,0.0,0.0,0.0,0.0,0.0,0.0,0.0,0.0,0.0,0.0,0.0,0.0,0.0,0.0,0.0,0.0,0.0,0.0,0.0,0.0,0.0,0.0,0.0,0.0,0.0,0.0,0.0,0.0,0.0,0.0,0.0,0.0,0.0,0.0,0.0,0.0,0.0,0.0,0.0,0.0,0.0,0.0,0.0,0.0,0.0,0.0,0.0,0.0,0.0,0.0,0.0,0.0,0.0,0.0,0.0,0.0,0.0,0.0,0.0,0.0,0.0,0.0,0.0,0.0,0.0,0.0,0.0,0.0,0.0,0.0,0.0,0.0,0.0,0.0,0.0,0.0,0.0,0.0,0.0,0.0,0.0,0.0,0.0,0.0,0.0,0.0,0.0,0.0,0.0,0.0,0.0,0.0,0.0,0.0,0.0,0.0,0.0,0.0,0.0,0.0,0.0,0.0,0.0,0.0,0.0,0.0,0.0,0.0,0.0,0.0,0.0,0.0,0.0,0.0,0.0,0.0,0.0,0.0,0.0,0.0,0.0,0.0,0.0,0.0,0.0,0.0,0.0,0.0,0.0,0.0,0.0,0.0,0.0,0.0,0.0,0.0,0.0,0.0,0.0,0.0,0.0,0.0,0.0,0.0,0.0,0.0,0.0,0.0,0.0,0.0,0.0,0.0,0.0,0.0,0.0,0.0,0.0,0.0,0.0,0.0,0.0,0.0,0.0,0.0,0.0,0.0,0.0,0.0,0.0,0.0,0.0,0.0,0.0,0.0,0.0,0.0,0.0,0.0,0.0,0.0,0.0,0.0,0.0,0.0,0.0,0.0,0.0,0.0,0.0,0.0,0.0,0.0,0.0,0.0,0.0,0.0,0.0,0.0,0.0,0.0,0.0,0.0,0.0,0.0,0.0,0.0,0.0,0.0,0.0,0.0,0.0,0.0,0.0,0.0,0.0,0.0,0.0,0.0,0.0,0.0,0.0,0.0,0.0,0.0,0.0,0.0,0.0,0.0,0.0,0.0,0.0,0.0,0.0,0.0,0.0,0.0,0.0,0.0,0.0,0.0,0.0,0.0,0.0,0.0,0.0,0.0,0.0,0.0,0.0,0.0,0.0,0.0,0.0,0.0,0.0,0.0,0.0,0.0,0.0,0.0,0.0,0.0,0.0,0.0,0.0,0.0,0.0,0.0,0.0,0.0,0.0,0.0,0.0,0.0,0.0,0.0,0.0,0.0,0.0,0.0,0.0,0.0,0.0,0.0,0.0,0.0,0.0,0.0,0.0,0.0,0.0,0.0,0.0,0.0,0.0,0.0,0.0,0.0,0.0,0.0,0.0,0.0,0.0,0.0,0.0,0.0,0.0,0.0,0.0,0.0,0.0,0.0,0.0,0.0,0.0,0.0,0.0,0.0,0.0,0.0,0.0,0.0,0.0,0.0,0.0,0.0,0.0,0.0,0.0,0.0,0.0,0.0,0.0,0.0,0.0,0.0,0.0,0.0,0.0,0.0,0.0,0.0,0.0,0.0,0.0,0.0,0.0,0.0,0.0,0.0,0.0,0.0,0.0,0.0,0.0,0.0,0.0,0.0,0.0,0.0,0.0,0.0,0.0,0.0,0.0,0.0,0.0,0.0,0.0,0.0,0.0,0.0,0.0,0.0,0.0,0.0,0.0,0.0,0.0,0.0,0.0,0.0,0.0,0.0,0.0,0.0,0.0,0.0,0.0,0.0,0.0,0.0,0.0,0.0,0.0,0.0,0.0,0.0,0.0,0.0,0.0,0.0,0.0,0.0,0.0,0.0,0.0,0.0,0.0,0.0,0.0,0.0,0.0,0.0,0.0,0.0,0.0,0.0,0.0,0.0,0.0,0.0,0.0,0.0,0.0,0.0,0.0,0.0,0.0,0.0,0.0,0.0,0.0,0.0,0.0,0.0,0.0,0.0,0.0,0.0,0.0,0.0,0.0,0.0,0.0,0.0,0.0,0.0,0.0,0.0,0.0,0.0,0.0,0.0,0.0,0.0,0.0,0.0,0.0,0.0,0.0,0.0,0.0,0.0,0.0,0.0,0.0,0.0,0.0,0.0,0.0,0.0,0.0,0.0,0.0,0.0,0.0,0.0,0.0,0.0,0.0,0.0,0.0,0.0,0.0,0.0,0.0,0.0,0.0,0.0,0.0,0.0,0.0,0.0,0.0,0.0,0.0,0.0,0.0,0.0,0.0,0.0,0.0,0.0,0.0,0.0,0.0,0.0,0.0,0.0,0.0,0.0,0.0,0.0,0.0,0.0,0.0,0.0,0.0,0.0,0.0,0.0,0.0,0.0,0.0,0.0,0.0,0.0,0.0,0.0,0.0,0.0,0.0,0.0,0.0,0.0,0.0,0.0,0.0,0.0,0.0,0.0,0.0,0.0,0.0,0.0,0.0,0.0,0.0,0.0,0.0,0.0,0.0,0.0,0.0,0.0,0.0,0.0,0.0,0.0,0.0,0.0,0.0,0.0,0.0,0.0,0.0,0.0,0.0,0.0,0.0,0.0,0.0,0.0,0.0,0.0,0.0,0.0,0.0,0.0,0.0,0.0,0.0,0.0,0.0,0.0,0.0,0.0,0.0,0.0,0.0,0.0,0.0,0.0,0.0,0.0,0.0,0.0,0.0,0.0,0.0,0.0,0.0,0.0,0.0,0.0,0.0,0.0,0.0,0.0,0.0,0.0,0.0,0.0,0.0,0.0,0.0,0.0,0.0,0.0,0.0,0.0,0.0,0.0,0.0,0.0,0.0,0.0,0.0,0.0,0.0,0.0,0.0,0.0,0.0,0.0,0.0,0.0,0.0,0.0,0.0,0.0,0.0,0.0,0.0,0.0,0.0,0.0,0.0,0.0,0.0,0.0,0.0,0.0,0.0,0.0,0.0,0.0,0.0,0.0,0.0,0.0,0.0,0.0,0.0,0.0,0.0,0.0,0.0,0.0,0.0,0.0,0.0,0.0,0.0,0.0,0.0,0.0,0.0,0.0,0.0,0.0,0.0,0.0,0.0,0.0,0.0,0.0,0.0,0.0,0.0,0.0,0.0,0.0,0.0,0.0,0.0,0.0,0.0,0.0,0.0,0.0,0.0,0.0,0.0,0.0,0.0,0.0,0.0,0.0,0.0,0.0,0.0,0.0,0.0,0.0,0.0,0.0,0.0,0.0,0.0,0.0,0.0,0.0,0.0,0.0,0.0,0.0,0.0,0.0,0.0,0.0,0.0,0.0,0.0,0.0,0.0,0.0,0.0,0.0,0.0,0.0,0.0,0.0,0.0,0.0,0.0,0.0,0.0,0.0,0.0,0.0,0.0,0.0,0.0,0.0,0.0,0.0,0.0,0.0,0.0,0.0,0.0,0.0,0.0,0.0,0.0,0.0,0.0,0.0,0.0,0.0,0.0,0.0,0.0,0.0,0.0,0.0,0.0,0.0,0.0,0.0,0.0,0.0,0.0,0.0,0.0,0.0,0.0,0.0,0.0,0.0,0.0,0.0,-0.2573,0.0,0.0,0.0,0.0,0.0,0.0,0.0,0.0,0.0,0.0,0.0,0.0,0.0,0.0,0.0,0.0,0.0,0.0,0.0,0.0,0.0,0.0,0.0,0.0,0.0,0.0,0.0,0.0,0.0,0.0,0.0,0.0,0.0,0.0,0.0,0.0,0.0,0.0,0.0,0.0,0.0,0.0,0.0,0.0,0.0,0.0,0.0,0.0,0.0,0.0,0.0,0.0,0.0,0.0,0.0,0.0,0.0,0.0,0.0,0.0,0.0,0.0,0.0,0.0,0.0,0.0,0.0,0.0,0.0,0.0,0.0,0.0,0.0,0.0,0.0,0.0,0.0,0.0,0.0,0.0,0.0,0.0,0.0,0.0,0.0,0.0,0.0,0.0,0.0,0.0,0.0,0.0,0.0,0.0,0.0,0.0,0.0,0.0,0.0,0.0,0.0,0.0,0.0,0.0,0.0,0.0,0.0,0.0,0.0,0.0,0.2519,0.1344,-0.0102,-0.152,-0.2865,0.0,0.0,0.0,0.0,0.0,0.0,0.0,0.0,0.0,0.0,0.0,0.0,0.0,0.0,0.0,0.0,0.0,0.0,0.0,0.0,0.0,0.0,0.0,0.0,0.0,0.0,0.0,0.0,0.0,0.0,0.0,0.0,0.0,0.0,0.0,0.0,0.0,0.0,0.0,0.0,0.0,0.0,0.0,0.0,0.0,0.0,0.0,0.0,0.0,0.0,0.0,0.0,0.0,0.0,0.0,0.0,0.0,0.0,0.0,0.0,0.0,0.0,0.0,0.0,0.0,0.0,0.0,0.0,0.0,0.0,0.0,0.0,0.0,0.0,0.0,0.0,0.0,0.0,0.0,0.0,0.0,0.0,0.0,0.0,0.0,0.0,0.0,0.0,0.0,0.0,0.0,0.0,0.0,0.0,0.0,0.0,0.0,0.0,0.0,0.0,0.0,0.0,0.0,0.0,0.0,0.0,0.0,0.0,0.0,0.0,0.0,0.0,-0.0554,-0.2075,-0.3591,0.0,0.0,0.0,0.0,0.0,0.0,0.0,0.0,0.0,0.0,0.0,0.0,0.0,0.0,0.0,0.0,0.0,0.0,0.0,0.0,0.0,0.0,0.0,0.0,0.0,0.0,0.0,0.0,0.0,0.0,0.0,0.0,0.0,0.0,0.0,0.0,0.0,0.0,0.0,0.0,0.0,0.0,0.0,0.0,0.0,0.0,0.0,0.0,0.0,0.0,0.0,0.0,0.0,0.0,0.0,0.0,0.0,0.0,0.0,0.0,0.0,0.0,0.0,0.0,0.0,0.0,0.0,0.0,0.0,0.0,0.0,0.0,0.0,0.0,0.0,0.0,0.0,0.0,0.0,0.0,0.0,0.0,0.0,0.0,0.0,0.0,0.0,0.0,0.0,0.0,0.0,0.0,0.0,0.0,0.0,0.0,0.0,0.0,0.0,0.0,0.0,0.0,0.0,0.0,0.0,0.0,0.0,0.0,0.0,0.0,0.1835,0.0488,-0.0978,0.0,-0.4858,0.0,0.0,0.0,0.0,0.0,0.0,0.0,0.0,0.0,0.0,0.0,0.0,0.0,0.0,0.0,0.0,0.0,0.0,0.0,0.0,0.0,0.0,0.0,0.0,0.0,0.0,0.0,0.0,0.0,0.0,0.0,0.0,0.0,0.0,0.0,0.0,0.0,0.0,0.0,0.0,0.0,0.0,0.0,0.0,0.0,0.0,0.0,0.0,0.0,0.0,0.0,0.0,0.0,0.0,0.0,0.0,0.0,0.0,0.0,0.0,0.0,0.0,0.0,0.0,0.0,0.0,0.0,0.0,0.0,0.0,0.0,0.0,0.0,0.0,0.0,0.0,0.0,0.0,0.0,0.0,0.0,0.0,0.0,0.0,0.0,0.0,0.0,0.0,0.0,0.0,0.0,0.0,0.0,0.0,0.0,0.0,0.0,0.0,0.0,0.0,0.0,0.0,0.0,0.0,0.0,0.0,0.0,0.0,0.0,0.0,0.1769,0.042,-0.1871,-0.3791,0.0,0.0,0.0,0.0,0.0,0.0,0.0,0.0,0.0,0.0,0.0,0.0,0.0,0.0,0.0,0.0,0.0,0.0,0.0,0.0,0.0,0.0,0.0,0.0,0.0,0.0,0.0,0.0,0.0,0.0,0.0,0.0,0.0,0.0,0.0,0.0,0.0,0.0,0.0,0.0,0.0,0.0,0.0,0.0,0.0,0.0,0.0,0.0,0.0,0.0,0.0,0.0,0.0,0.0,0.0,0.0,0.0,0.0,0.0,0.0,0.0,0.0,0.0,0.0,0.0,0.0,0.0,0.0,0.0,0.0,0.0,0.0,0.0,0.0,0.0,0.0,0.0,0.0,0.0,0.0,0.0,0.0,0.0,0.0,0.0,0.0,0.0,0.0,0.0,0.0,0.0,0.0,0.0,0.0,0.0,0.0,0.0,0.0,0.0,0.0,0.0,0.0,0.0,0.0,0.0,0.0,0.0,0.0,0.0,0.0,0.2887,0.1462,-0.0315,-0.2733,-0.4405,-0.5252,0.0,0.0,0.0,0.0,0.0,0.0,0.0,0.0,0.0,0.0,0.0,0.0,0.0,0.0,0.0,0.0,0.0,0.0,0.0,0.0,0.0,0.0,0.0,0.0,0.0,0.0,0.0,0.0,0.0,0.0,0.0,0.0,0.0,0.0,0.0,0.0,0.0,0.0,0.0,0.0,0.0,0.0,0.0,0.0,0.0,0.0,0.0,0.0,0.0,0.0,0.0,0.0,0.0,0.0,0.0,0.0,0.0,0.0,0.0,0.0,0.0,0.0,0.0,0.0,0.0,0.0,0.0,0.0,0.0,0.0,0.0,0.0,0.0,0.0,0.0,0.0,0.0,0.0,0.0,0.0,0.0,0.0,0.0,0.0,0.0,0.0,0.0,0.0,0.0,0.0,0.0,0.0,0.0,0.0,0.0,0.0,0.0,0.0,0.0,0.0,0.0,0.0,0.0,0.0,0.0,0.0,0.0,0.0,0.3789,0.2683,0.0713,-0.206,-0.3442,-0.4437,0.0,0.0,0.0,0.0,0.0,0.0,0.0,0.0,0.0,0.0,0.0,0.0,0.0,0.0,0.0,0.0,0.0,0.0,0.0,0.0,0.0,0.0,0.0,0.0,0.0,0.0,0.0,0.0,0.0,0.0,0.0,0.0,0.0,0.0,0.0,0.0,0.0,0.0,0.0,0.0,0.0,0.0,0.0,0.0,0.0,0.0,0.0,0.0,0.0,0.0,0.0,0.0,0.0,0.0,0.0,0.0,0.0,0.0,0.0,0.0,0.0,0.0,0.0,0.0,0.0,0.0,0.0,0.0,0.0,0.0,0.0,0.0,0.0,0.0,0.0,0.0,0.0,0.0,0.0,0.0,0.0,0.0,0.0,0.0,0.0,0.0,0.0,0.0,0.0,0.0,0.0,0.0,0.0,0.0,0.0,0.0,0.0,0.0,0.0,0.0,0.0,0.0,0.0,0.0,0.0,0.0,0.0,0.0,0.0,0.3589,0.1706,-0.0242,-0.2097,-0.3299,-0.4287,0.0,0.0,0.0,0.0,0.0,0.0,0.0,0.0,0.0,0.0,0.0,0.0,0.0,0.0,0.0,0.0,0.0,0.0,0.0,0.0,0.0,0.0,0.0,0.0,0.0,0.0,0.0,0.0,0.0,0.0,0.0,0.0,0.0,0.0,0.0,0.0,0.0,0.0,0.0,0.0,0.0,0.0,0.0,0.0,0.0,0.0,0.0,0.0,0.0,0.0,0.0,0.0,0.0,0.0,0.0,0.0,0.0,0.0,0.0,0.0,0.0,0.0,0.0,0.0,0.0,0.0,0.0,0.0,0.0,0.0,0.0,0.0,0.0,0.0,0.0,0.0,0.0,0.0,0.0,0.0,0.0,0.0,0.0,0.0,0.0,0.0,0.0,0.0,0.0,0.0,0.0,0.0,0.0,0.0,0.0,0.0,0.0,0.0,0.0,0.0,0.0,0.0,0.0,0.0,0.0,0.0,0.0,0.0,0.0,0.2987,0.0,-0.0735,-0.2028,-0.3165,-0.4094,0.0,0.0,0.0,0.0,0.0,0.0,0.0,0.0,0.0,0.0,0.0,0.0,0.0,0.0,0.0,0.0,0.0,0.0,0.0,0.0,0.0,0.0,0.0,0.0,0.0,0.0,0.0,0.0,0.0,0.0,0.0,0.0,0.0,0.0,0.0,0.0,0.0,0.0,0.0,0.0,0.0,0.0,0.0,0.0,0.0,0.0,0.0,0.0,0.0,0.0,0.0,0.0,0.0,0.0,0.0,0.0,0.0,0.0,0.0,0.0,0.0,0.0,0.0,0.0,0.0,0.0,0.0,0.0,0.0,0.0,0.0,0.0,0.0,0.0,0.0,0.0,0.0,0.0,0.0,0.0,0.0,0.0,0.0,0.0,0.0,0.0,0.0,0.0,0.0,0.0,0.0,0.0,0.0,0.0,0.0,0.0,0.0,0.0,0.0,0.0,0.0,0.0,0.0,0.0,0.0,0.0,0.0,0.0,0.3493,0.1949,0.0587,-0.0701,-0.1958,-0.3046,-0.3958,0.0,0.0,0.0,0.0,0.0,0.0,0.0,0.0,0.0,0.0,0.0,0.0,0.0,0.0,0.0,0.0,0.0,0.0,0.0,0.0,0.0,0.0,0.0,0.0,0.0,0.0,0.0,0.0,0.0,0.0,0.0,0.0,0.0,0.0,0.0,0.0,0.0,0.0,0.0,0.0,0.0,0.0,0.0,0.0,0.0,0.0,0.0,0.0,0.0,0.0,0.0,0.0,0.0,0.0,0.0,0.0,0.0,0.0,0.0,0.0,0.0,0.0,0.0,0.0,0.0,0.0,0.0,0.0,0.0,0.0,0.0,0.0,0.0,0.0,0.0,0.0,0.0,0.0,0.0,0.0,0.0,0.0,0.0,0.0,0.0,0.0,0.0,0.0,0.0,0.0,0.0,0.0,0.0,0.0,0.0,0.0,0.0,0.0,0.0,0.0,0.0,0.0,0.0,0.0,0.0,0.0,0.0,0.0,0.0,0.1522,0.0355,-0.0719,-0.1797,-0.2909,-0.3808,0.0,0.0,0.0,0.0,0.0,0.0,0.0,0.0,0.0,0.0,0.0,0.0,0.0,0.0,0.0,0.0,0.0,0.0,0.0,0.0,0.0,0.0,0.0,0.0,0.0,0.0,0.0,0.0,0.0,0.0,0.0,0.0,0.0,0.0,0.0,0.0,0.0,0.0,0.0,0.0,0.0,0.0,0.0,0.0,0.0,0.0,0.0,0.0,0.0,0.0,0.0,0.0,0.0,0.0,0.0,0.0,0.0,0.0,0.0,0.0,0.0,0.0,0.0,0.0,0.0,0.0,0.0,0.0,0.0,0.0,0.0,0.0,0.0,0.0,0.0,0.0,0.0,0.0,0.0,0.0,0.0,0.0,0.0,0.0,0.0,0.0,0.0,0.0,0.0,0.0,0.0,0.0,0.0,0.0,0.0,0.0,0.0,0.0,0.0,0.0,0.0,0.0,0.0,0.0,0.0,0.0,0.0,0.0,0.0,0.0769,-0.0074,-0.0936,-0.1909,-0.2918,-0.3738,-0.4259,0.0,0.0,0.0,0.0,0.0,0.0,0.0,0.0,0.0,0.0,0.0,0.0,0.0,0.0,0.0,0.0,0.0,0.0,0.0,0.0,0.0,0.0,0.0,0.0,0.0,0.0,0.0,0.0,0.0,0.0,0.0,0.0,0.0,0.0,0.0,0.0,0.0,0.0,0.0,0.0,0.0,0.0,0.0,0.0,0.0,0.0,0.0,0.0,0.0,0.0,0.0,0.0,0.0,0.0,0.0,0.0,0.0,0.0,0.0,0.0,0.0,0.0,0.0,0.0,0.0,0.0,0.0,0.0,0.0,0.0,0.0,0.0,0.0,0.0,0.0,0.0,0.0,0.0,0.0,0.0,0.0,0.0,0.0,0.0,0.0,0.0,0.0,0.0,0.0,0.0,0.0,0.0,0.0,0.0,0.0,0.0,0.0,0.0,0.0,0.0,0.0,0.0,0.0,0.0,0.0,0.0,0.0,0.0,-0.0237,-0.0712,-0.1382,-0.2282,-0.3035,-0.3698,0.0,0.0,0.0,0.0,0.0,0.0,0.0,0.0,0.0,0.0,0.0,0.0,0.0,0.0,0.0,0.0,0.0,0.0,0.0,0.0,0.0,0.0,0.0,0.0,0.0,0.0,0.0,0.0,0.0,0.0,0.0,0.0,0.0,0.0,0.0,0.0,0.0,0.0,0.0,0.0,0.0,0.0,0.0,0.0,0.0,0.0,0.0,0.0,0.0,0.0,0.0,0.0,0.0,0.0,0.0,0.0,0.0,0.0,0.0,0.0,0.0,0.0,0.0,0.0,0.0,0.0,0.0,0.0,0.0,0.0,0.0,0.0,0.0,0.0,0.0,0.0,0.0,0.0,0.0,0.0,0.0,0.0,0.0,0.0,0.0,0.0,0.0,0.0,0.0,0.0,0.0,0.0,0.0,0.0,0.0,0.0,0.0,0.0,0.0,0.0,0.0,0.0,0.0,0.0,0.0,0.0,0.0,0.0,0.0,-0.0973,-0.2008,-0.2517,-0.261,-0.3521,-0.408,0.0,0.0,0.0,0.0,0.0,0.0,0.0,0.0,0.0,0.0,0.0,0.0,0.0,0.0,0.0,0.0,0.0,0.0,0.0,0.0,0.0,0.0,0.0,0.0,0.0,0.0,0.0,0.0,0.0,0.0,0.0,0.0,0.0,0.0,0.0,0.0,0.0,0.0,0.0,0.0,0.0,0.0,0.0,0.0,0.0,0.0,0.0,0.0,0.0,0.0,0.0,0.0,0.0,0.0,0.0,0.0,0.0,0.0,0.0,0.0,0.0,0.0,0.0,0.0,0.0,0.0,0.0,0.0,0.0,0.0,0.0,0.0,0.0,0.0,0.0,0.0,0.0,0.0,0.0,0.0,0.0,0.0,0.0,0.0,0.0,0.0,0.0,0.0,0.0,0.0,0.0,0.0,0.0,0.0,0.0,0.0,0.0,0.0,0.0,0.0,0.0,0.0,0.0,0.0,0.0,0.0,0.0,0.0,-0.0811,-0.2096,-0.3181,-0.3665,-0.3602,-0.403,-0.4177,0.0,0.0,0.0,0.0,0.0,0.0,0.0,0.0,0.0,0.0,0.0,0.0,0.0,0.0,0.0,0.0,0.0,0.0,0.0,0.0,0.0,0.0,0.0,0.0,0.0,0.0,0.0,0.0,0.0,0.0,0.0,0.0,0.0,0.0,0.0,0.0,0.0,0.0,0.0,0.0,0.0,0.0,0.0,0.0,0.0,0.0,0.0,0.0,0.0,0.0,0.0,0.0,0.0,0.0,0.0,0.0,0.0,0.0,0.0,0.0,0.0,0.0,0.0,0.0,0.0,0.0,0.0,0.0,0.0,0.0,0.0,0.0,0.0,0.0,0.0,0.0,0.0,0.0,0.0,0.0,0.0,0.0,0.0,0.0,0.0,0.0,0.0,0.0,0.0,0.0,0.0,0.0,0.0,0.0,0.0,0.0,0.0,0.0,0.0,0.0,0.0,0.0,0.0,0.0,0.0,0.0,0.0,0.0,-0.1832,-0.3356,-0.4275,-0.4814,-0.4888,-0.4538,-0.4201,0.0,0.0,0.0,0.0,0.0,0.0,0.0,0.0,0.0,0.0,0.0,0.0,0.0,0.0,0.0,0.0,0.0,0.0,0.0,0.0,0.0,0.0,0.0,0.0,0.0,0.0,0.0,0.0,0.0,0.0,0.0,0.0,0.0,0.0,0.0,0.0,0.0,0.0,0.0,0.0,0.0,0.0,0.0,0.0,0.0,0.0,0.0,0.0,0.0,0.0,0.0,0.0,0.0,0.0,0.0,0.0,0.0,0.0,0.0,0.0,0.0,0.0,0.0,0.0,0.0,0.0,0.0,0.0,0.0,0.0,0.0,0.0,0.0,0.0,0.0,0.0,0.0,0.0,0.0,0.0,0.0,0.0,0.0,0.0,0.0,0.0,0.0,0.0,0.0,0.0,0.0,0.0,0.0,0.0,0.0,0.0,0.0,0.0,0.0,0.0,0.0,0.0,0.0,0.0,0.0,0.0,0.0,0.0,-0.2951,-0.4597,-0.5229,-0.5583,-0.5747,-0.5127,-0.4399,0.0,0.0,0.0,0.0,0.0,0.0,0.0,0.0,0.0,0.0,0.0,0.0,0.0,0.0,0.0,0.0,0.0,0.0,0.0,0.0,0.0,0.0,0.0,0.0,0.0,0.0,0.0,0.0,0.0,0.0,0.0,0.0,0.0,0.0,0.0,0.0,0.0,0.0,0.0,0.0,0.0,0.0,0.0,0.0,0.0,0.0,0.0,0.0,0.3078,0.0,0.0,0.0,0.0,0.0,0.0,0.0,0.0,0.0,0.0,0.0,0.0,0.0,0.0,0.0,0.0,0.0,0.0,0.0,0.0,0.0,0.0,0.0,0.0,0.0,0.0,0.0,0.0,0.0,0.0,0.0,0.0,0.0,0.0,0.0,0.0,0.0,0.0,0.0,0.0,0.0,0.0,0.0,0.0,0.0,0.0,0.0,0.0,0.0,0.0,0.0,0.0,0.0,0.0,0.0,0.0,0.0,0.0,0.0,-0.3864,-0.5597,-0.5916,-0.6103,-0.6157,-0.543,-0.4564,0.0,0.0,0.0,0.0,0.0,0.0,0.0,0.0,0.0,0.0,0.0,0.0,0.0,0.0,0.0,0.0,0.0,0.0,0.0,0.0,0.0,0.0,0.0,0.0,0.0,0.0,0.0,0.0,0.0,0.0,0.0,0.0,0.0,0.0,0.0,0.0,0.0,0.0,0.0,0.0,0.0,0.0,0.0,0.0,0.0,0.0,0.0,0.0,0.0,0.0,0.0,0.0,0.0,0.0,0.0,0.0,0.0,0.0,0.0,0.0,0.0,0.0,0.0,0.0,0.0,0.0,0.0,0.0,0.0,0.0,0.0,0.0,0.0,0.0,0.0,0.0,0.0,0.0,0.0,0.0,0.0,0.0,0.0,0.0,0.0,0.0,0.0,0.0,0.0,0.0,0.0,0.0,0.0,0.0,0.0,0.0,0.0,0.0,0.0,0.0,0.0,0.0,0.0,0.0,0.0,0.0,0.0,-0.3325,-0.4682,-0.6416,-0.6553,-0.6505,-0.6452,-0.5642,-0.4671,-0.3583,0.0,0.0,0.0,0.0,0.0,0.0,0.0,0.0,0.0,0.0,0.0,0.0,0.0,0.0,0.0,0.0,0.0,0.0,0.0,0.0,0.0,0.0,0.0,0.0,0.0,0.0,0.0,0.0,0.0,0.0,0.0,0.0,0.0,0.0,0.0,0.0,0.0,0.0,0.013,0.0752,0.0,0.0,0.0,0.0,0.0,0.0,0.0,0.0,0.2639,0.0,0.0,0.0,0.0,0.0,0.0,0.0,0.0,0.0,0.0,0.0,0.0,0.0,0.0,0.0,0.0,0.0,0.0,0.0,0.0,0.0,0.0,0.0,0.0,0.0,0.0,0.0,0.0,0.0,0.0,0.0,0.0,0.0,0.0,0.0,0.0,0.0,0.0,0.0,0.0,0.0,0.0,0.0,0.0,0.0,0.0,0.0,0.0,0.0,0.0,0.0,0.0,0.0,0.0,0.0,0.0,-0.3209,-0.4383,-0.5683,-0.7124,-0.7209,-0.711,-0.6888,-0.5785,-0.4619,-0.339,0.0,0.0,0.0,0.0,0.0,0.0,0.0,0.0,0.0,0.0,0.0,0.0,0.0,0.0,0.0,0.0,0.0,0.0,0.0,0.0,0.0,0.0,0.0,0.0,0.0,0.0,0.0,0.0,0.0,0.0,0.0,0.0,0.0,0.0,0.0,0.0,0.0,0.0,0.0,0.0888,0.1415,0.0,0.0,0.0,0.0,0.0,0.0,0.0,0.0,0.2236,0.0,0.0,0.0,0.0,0.0,0.0,0.0,0.0,0.0,0.0,0.0,0.0,0.0,0.0,0.0,0.0,0.0,0.0,0.0,0.0,0.0,0.0,0.0,0.0,0.0,0.0,0.0,0.0,0.0,0.0,0.0,0.0,0.0,0.0,0.0,0.0,0.0,0.0,0.0,0.0,0.0,0.0,0.0,0.0,0.0,0.0,0.0,0.0,0.0,0.0,0.0,0.0,0.0,0.0,0.0,-0.4184,-0.5156,-0.6331,-0.7632,-0.7505,-0.7271,-0.6936,-0.5769,-0.4504,0.0,0.0,0.0,0.0,0.0,0.0,0.0,0.0,0.0,0.0,0.0,0.0,0.0,0.0,0.0,0.0,0.0,0.0,0.0,0.0,0.0,0.0,0.0,0.0,0.0,0.0,0.0,0.0,0.0,0.0,0.0,0.0,0.0,0.0,0.0,0.0,0.0,0.0,0.0,0.0,0.0564,0.0995,0.1687,0.0,0.0,0.0,0.0,0.0,0.0,0.2079,0.172,0.0,0.0,0.0,0.0,0.0,0.0,0.0,0.0,0.0,0.0,0.0,0.0,0.0,0.0,0.0,0.0,0.0,0.0,0.0,0.0,0.0,0.0,0.0,0.0,0.0,0.0,0.0,0.0,0.0,0.0,0.0,0.0,0.0,0.0,0.0,0.0,0.0,0.0,0.0,0.0,0.0,0.0,0.0,0.0,0.0,0.0,0.0,0.0,0.0,0.0,0.0,0.0,0.0,0.0,0.0,-0.5027,-0.585,-0.6838,-0.8,-0.7779,-0.7404,-0.6965,-0.5832,-0.4576,0.0,0.0,0.0,0.0,0.0,0.0,0.0,0.0,0.0,0.0,0.0,0.0,0.0,0.0,0.0,0.0,0.0,0.0,0.0,0.0,0.0,0.0,0.0,0.0,0.0,0.0,0.0,0.0,0.0,0.0,0.0,0.0,0.0,0.0,0.0,0.0,0.0,0.0,0.0,0.0,0.0,0.0406,0.1137,0.1487,0.0,0.0,0.0,0.0,0.1874,0.14,0.0,0.0,0.0,0.0,0.0,0.0,0.0,0.0,0.0,0.0,0.0,0.0,0.0,0.0,0.0,0.0,0.0,0.0,0.0,0.0,0.0,0.0,0.0,0.0,0.0,0.0,0.0,0.0,0.0,0.0,0.0,0.0,0.0,0.0,0.0,0.0,0.0,0.0,0.0,0.0,0.0,0.0,0.0,0.0,0.0,0.0,0.0,0.0,0.0,0.0,0.0,0.0,0.0,0.0,0.0,0.0,-0.5267,-0.6448,-0.7422,-0.8059,-0.8154,-0.7892,-0.7276,-0.6221,-0.5057,0.0,0.0,0.0,0.0,0.0,0.0,0.0,0.0,0.0,0.0,0.0,0.0,0.0,0.0,0.0,0.0,0.0,0.0,0.0,0.0,0.0,0.0,0.0,0.0,0.0,0.0,0.0,0.0,0.0,0.0,0.0,0.0,0.0,0.0,0.0,0.0,0.0,0.0,0.0,0.0,0.0,-0.0301,-0.0043,0.0528,0.0846,0.0,0.0,0.0846,0.0401,0.035,0.0,0.0,0.0,0.0,0.0,0.0,0.0,0.0,0.0,0.0,0.0,0.0,0.0,0.0,0.0,0.0,0.0,0.0,0.0,0.0,0.0,0.0,0.0,0.0,0.0,0.0,0.0,0.0,0.0,0.0,0.0,0.0,0.0,0.0,0.0,0.0,0.0,0.0,0.0,0.0,0.0,0.0,0.0,0.0,0.0,0.0,0.0,0.0,0.0,0.0,0.0,0.0,0.0,0.0,0.0,-0.4638,-0.5961,-0.7056,-0.7872,-0.8321,-0.8314,-0.7999,-0.7328,-0.6244,-0.5085,0.0,0.0,0.0,0.0,0.0,0.0,0.0,0.0,0.0,0.0,0.0,0.0,0.0,0.0,0.0,0.0,0.0,0.0,0.0,0.0,0.0,0.0,0.0,0.0,0.0,0.0,0.0,0.0,0.0,0.0,0.0,0.0,0.0,0.0,0.0,0.0,0.0,0.0,0.0,0.0,0.0,0.0,-0.1574,-0.1032,0.0,0.0,0.0,-0.0283,-0.0472,0.0,0.0,0.0,0.0,0.0,0.0,0.0,0.0,0.0,0.0,0.0,0.0,0.0,0.0,0.0,0.0,0.0,0.0,0.0,0.0,0.0,0.0,0.0,0.0,0.0,0.0,0.0,0.0,0.0,0.0,0.0,0.0,0.0,0.0,0.0,0.0,0.0,0.0,0.0,0.0,0.0,0.0,0.0,0.0,0.0,0.0,0.0,0.0,0.0,0.0,0.0,0.0,0.0,0.0,0.0,0.0,0.0,-0.6553,-0.7503,-0.8131,-0.8533,-0.8434,-0.8107,-0.7434,-0.6374,0.0,0.0,0.0,0.0,0.0,0.0,0.0,0.0,0.0,0.0,0.0,0.0,0.0,0.0,0.0,0.0,0.0,0.0,0.0,0.0,0.0,0.0,0.0,0.0,0.0,0.0,0.0,0.2596,0.0,0.0,0.0,0.0,0.0,0.0,0.0,0.0,0.0,0.0,0.0,0.0,0.0,0.0,-0.3618,-0.3451,-0.2902,-0.2477,0.0,0.0,-0.186,-0.1852,-0.1963,-0.2009,0.0,0.0,0.0,0.0,0.0,0.0,0.0,0.0,0.0,0.0,0.0,0.0,0.0,0.0,0.0,0.0,0.0,0.0,0.0,0.0,0.0,0.0,0.0,0.0,0.0,0.0,0.0,0.0,0.0,0.0,0.0,0.0,0.0,0.0,0.0,0.0,0.0,0.0,0.0,0.0,0.0,0.0,0.0,0.0,0.0,0.0,0.0,0.0,0.0,0.0,0.0,0.0,0.0,0.0,0.0,-0.6863,-0.7698,-0.8276,-0.8635,-0.8703,-0.8374,-0.7703,-0.6862,-0.5876,0.0,0.0,0.0,0.0,0.0,0.0,0.0,0.0,0.0,0.0,0.0,0.0,0.0,0.0,0.0,0.0,0.0,0.0,0.0,0.0,0.0,0.0,0.0,0.0,0.0,0.0,0.0,0.0,0.0,0.0,0.0,0.0,0.0,0.0,0.0,0.0,0.0,0.0,0.0,0.0,0.0,-0.5677,-0.5746,-0.5193,-0.474,0.0,0.0,-0.431,-0.4186,-0.4106,-0.4007,-0.3997,0.0,0.0,0.0,0.0,0.0,0.0,0.0,0.0,0.0,0.0,0.0,0.0,0.0,0.0,0.0,0.0,0.0,0.0,0.0,0.0,0.0,0.0,0.0,0.0,0.0,0.0,0.0,0.0,0.0,0.0,0.0,0.0,0.0,0.0,0.0,0.0,0.0,0.0,0.0,0.0,0.0,0.0,0.0,0.0,0.0,0.0,0.0,0.0,0.0,0.0,0.0,0.0,0.0,-0.6303,-0.7141,-0.7917,-0.8454,-0.8703,-0.871,-0.8374,-0.7709,-0.7077,-0.6181,0.0,0.0,0.0,0.0,0.0,0.0,0.0,0.0,0.0,0.0,0.0,0.0,0.0,0.0,0.0,0.0,0.0,0.0,0.0,0.0,0.0,0.0,0.0,0.0,0.0,0.0,0.0,0.0,-0.1898,-0.3036,-0.458,0.0,0.0,0.0,0.0,0.0,0.0,0.0,0.0,0.0,0.0,-0.811,-0.8368,-0.7877,0.0,0.0,-0.7077,-0.6723,-0.6518,-0.6326,-0.6082,-0.5746,-0.561,0.0,0.0,0.0,0.0,0.0,0.0,0.0,0.0,0.0,0.0,0.0,0.0,0.0,0.0,0.0,0.0,0.0,0.0,0.0,0.0,0.0,0.0,0.0,0.0,0.0,0.0,0.0,0.0,0.0,0.0,0.0,0.0,0.0,0.0,0.0,0.0,0.0,0.0,0.0,0.0,0.0,0.0,0.0,0.0,0.0,0.0,0.0,0.0,0.0,0.0,0.0,0.0,-0.676,-0.7509,-0.817,-0.8574,-0.8771,-0.8777,-0.8494,-0.7924,-0.7331,-0.6487,0.0,0.0,0.0,0.0,0.0,0.0,0.0,0.0,0.0,0.0,0.0,0.0,0.0,0.0,0.0,0.0,0.0,0.0,0.0,0.0,0.0,0.0,0.0,0.0,0.0,0.0,0.0,0.0,-0.416,-0.5548,-0.7397,0.0,0.0,0.0,0.0,0.0,0.0,0.0,0.0,0.0,0.0,-1.0724,-1.113,-1.0722,-1.0443,-1.0463,-0.9993,-0.9581,-0.9314,-0.8893,-0.8467,-0.8052,0.0,0.0,0.0,0.0,0.0,0.0,0.0,0.0,0.0,0.0,0.0,0.0,0.0,0.0,0.0,0.0,0.0,0.0,0.0,0.0,0.0,0.0,0.0,0.0,0.0,0.0,0.0,0.0,0.0,0.0,0.0,0.0,0.0,0.0,0.0,0.0,0.0,0.0,0.0,0.0,0.0,0.0,0.0,0.0,0.0,0.0,0.0,0.0,0.0,0.0,0.0,0.0,0.0,-0.7135,-0.8046,-0.8374,-0.8628,-0.8865,-0.8933,-0.8694,-0.8278,-0.7653,-0.6935,-0.6187,0.0,0.0,0.0,0.0,0.0,0.0,0.0,0.0,0.0,0.0,0.0,0.0,0.0,0.0,0.0,0.0,0.0,0.0,0.0,0.0,0.0,0.0,0.0,0.0,0.0,0.0,-0.5525,-0.7067,-0.8638,0.0,0.0,0.0,0.0,0.0,0.0,0.0,0.0,0.0,0.0,-1.3275,-1.3508,-1.3967,-1.3602,-1.3391,-1.3591,-1.3231,-1.2873,-1.2728,-1.1877,-1.1193,0.0,0.0,0.0,0.0,0.0,0.0,0.0,0.0,0.0,0.0,0.0,0.0,0.0,0.0,0.0,0.0,0.0,0.0,0.0,0.0,0.0,0.0,0.0,0.0,0.0,0.0,0.0,-0.6263,-0.6632,0.0,0.0,0.0,0.0,0.0,0.0,0.0,0.0,0.0,0.0,0.0,-0.91,-0.8636,0.0,0.0,0.0,0.0,0.0,0.0,0.0,0.0,0.0,0.0,0.0,0.0,-0.7636,-0.8105,-0.8481,-0.873,-0.8927,-0.9106,-0.903,-0.8669,-0.8394,-0.7765,-0.6703,0.0,0.0,0.0,0.0,0.0,0.0,0.0,0.0,0.0,0.0,0.0,0.0,0.0,0.0,0.0,0.0,0.0,0.0,0.0,0.0,0.0,0.0,0.0,0.0,0.0,-0.7288,0.0,0.0,0.0,0.0,0.0,0.0,0.0,0.0,0.0,0.0,0.0,-1.533,-1.5796,-1.607,-1.6336,-1.6649,-1.6774,-1.6822,0.0,0.0,0.0,0.0,0.0,0.0,0.0,0.0,0.0,0.0,0.0,0.0,0.0,0.0,-1.1813,-1.0022,-0.9299,-0.8955,-0.9061,0.0,0.0,0.0,0.0,0.0,0.0,0.0,0.0,0.0,0.0,0.0,0.0,0.0,0.0,0.0,0.0,-0.9208,0.0,0.0,0.0,0.0,0.0,0.0,0.0,0.0,-1.1105,-1.1005,-1.0779,-1.0463,-1.0031,0.0,-0.8784,-0.7575,0.0,0.0,0.0,0.0,0.0,0.0,0.0,0.0,-0.8269,-0.8606,-0.8925,-0.9166,-0.921,-0.9591,-0.9658,-0.9334,-0.9277,-0.8657,-0.7403,-0.6729,-0.6189,0.0,0.0,0.0,0.0,0.0,0.0,0.0,0.0,0.0,0.0,0.0,0.0,0.0,0.0,0.0,0.0,0.0,0.0,0.0,0.0,0.0,0.0,0.0,-0.9781,0.0,0.0,0.0,0.0,0.0,0.0,0.0,0.0,0.0,-1.6512,-1.7085,-1.7789,-1.8198,-1.8712,-1.9167,-1.9402,0.0,0.0,0.0,0.0,0.0,0.0,0.0,-1.735,-1.6443,-1.6079,-1.5864,-1.5698,-1.5935,-1.6255,-1.6348,0.0,0.0,-1.2823,-1.1829,-1.1501,-1.1793,-1.1305,-1.0852,-1.0786,-1.0921,-1.1012,0.0,0.0,0.0,0.0,0.0,0.0,0.0,0.0,-1.0693,-1.1158,0.0,-1.1594,0.0,0.0,0.0,0.0,0.0,0.0,0.0,0.0,-1.2839,-1.2927,-1.2822,-1.2765,-1.2307,-1.1438,-1.1272,-1.0651,-0.9504,-0.7626,0.0,0.0,0.0,0.0,0.0,0.0,-0.9049,-0.9624,-0.9843,-0.9886,-0.9839,-1.0308,-1.0476,-1.0366,-1.0247,-0.9609,-0.8378,-0.83,-0.7902,-0.7139,-0.708,0.0,0.0,0.0,0.0,0.0,0.0,0.0,0.0,0.0,0.0,0.0,0.0,0.0,0.0,0.0,0.0,0.0,0.0,0.0,0.0,-1.1612,0.0,0.0,0.0,0.0,0.0,0.0,0.0,0.0,0.0,0.0,-1.878,-1.9542,-2.0277,-2.0292,0.0,0.0,0.0,0.0,-2.2736,-2.3132,-2.2921,-2.2622,-2.2364,-2.1611,-2.0822,-2.0128,0.0,0.0,-1.8901,-1.9081,-1.9252,-1.9264,-1.8944,-1.8013,-1.5597,-1.452,-1.414,-1.4343,-1.3901,-1.3483,-1.3451,-1.3427,-1.3431,-1.3231,0.0,0.0,0.0,0.0,-1.1686,-1.2095,-1.246,-1.3094,-1.3417,-1.3535,-1.383,0.0,0.0,0.0,0.0,0.0,0.0,-1.4147,-1.4593,-1.4656,-1.4756,-1.4907,-1.4662,-1.4229,-1.3558,-1.3153,-1.2497,-1.1781,-1.105,-0.9884,-0.8292,0.0,0.0,0.0,0.0,-1.0121,-1.0451,-1.0619,-1.0771,-1.0842,-1.127,-1.1479,-1.1518,-1.1379,-1.093,-1.014,-0.9856,-0.9373,-0.8754,-0.8537,0.0,0.0,0.0,0.0,0.0,0.0,0.0,0.0,0.0,0.0,0.0,0.0,0.0,0.0,0.0,0.0,0.0,0.0,0.0,-1.2875,-1.3945,-1.4896,0.0,0.0,0.0,0.0,0.0,0.0,0.0,0.0,0.0,-2.235,-2.2097,-2.2112,0.0,0.0,-2.3962,-2.4336,-2.483,-2.5302,-2.5496,0.0,0.0,0.0,-2.3516,-2.2957,-2.2105,-2.1602,-2.1082,-2.0541,-2.0682,-2.0757,-2.056,-2.0592,-2.034,-1.965,-1.7889,-1.6774,-1.684,-1.6751,-1.6425,-1.6116,-1.6157,-1.6078,-1.5951,-1.4615,-1.326,-1.2844,-1.3131,-1.3573,-1.4038,-1.4518,-1.5338,-1.5746,-1.5746,-1.6122,-1.5931,-1.5336,-1.5039,0.0,0.0,0.0,-1.5959,-1.6469,-1.656,-1.6686,-1.6823,-1.6643,-1.6204,-1.5645,-1.5287,-1.4695,-1.3867,-1.3739,-1.2945,-1.1423,0.0,0.0,-1.0722,-1.1053,-1.1298,-1.1568,-1.1759,-1.1916,-1.2029,-1.2402,-1.2737,-1.2998,-1.2837,-1.2423,-1.1753,-1.1476,-1.1061,-1.0398,-1.0112,-0.992,0.0,0.0,0.0,0.0,0.0,0.0,0.0,0.0,0.0,0.0,0.0,-0.9775,-1.0915,0.0,0.0,0.0,-1.3284,-1.4064,-1.4875,-1.5787,0.0,0.0,0.0,0.0,0.0,0.0,0.0,-2.2042,-2.317,-2.4137,-2.4832,-2.4677,-2.4612,-2.4863,-2.5361,-2.5898,-2.6403,0.0,-2.7355,-2.7611,-2.7409,-2.7046,-2.6568,-2.6181,-2.5538,-2.4317,-2.3794,-2.3227,-2.2487,-2.2522,-2.2525,-2.2097,-2.2036,-2.2095,-2.1958,-2.065,-1.9598,-1.9478,-1.9334,-1.9025,-1.8503,-1.8535,-1.8407,-1.8533,-1.7982,-1.5574,-1.4715,-1.49,-1.5483,-1.5888,-1.6295,-1.7519,-1.8053,-1.8064,-1.8392,-1.825,-1.7669,-1.682,0.0,0.0,-1.7409,-1.7841,-1.8203,-1.8423,-1.8533,-1.8557,-1.8557,-1.8225,-1.7499,-1.7561,-1.7002,-1.5953,-1.5931,-1.569,-1.5161,-1.358,-1.2603,-1.2413,-1.2413,-1.2615,-1.3019,-1.3155,-1.326,-1.3317,-1.3668,-1.4148,-1.468,-1.4451,-1.3955,-1.3223,-1.315,-1.2795,-1.2109,-1.1805,-1.169,-1.1661,0.0,0.0,0.0,0.0,0.0,0.0,0.0,0.0,0.0,0.0,0.0,0.0,0.0,0.0,0.0,-1.5443,0.0,-1.6539,-1.7241,0.0,0.0,0.0,-2.0281,-2.0863,-2.2108,-2.3131,-2.3587,0.0,0.0,0.0,0.0,-2.7408,-2.6956,-2.7161,-2.7586,-2.8314,-2.8691,-2.9051,-2.9474,-2.9346,-2.9282,-2.9092,-2.8772,-2.7974,-2.6551,-2.6064,-2.5414,-2.4465,-2.4334,-2.4263,-2.357,-2.3432,-2.3217,-2.2937,-2.2685,-2.2548,-2.1986,-2.1595,-2.1172,-2.0659,-2.0523,-2.034,-2.0154,-1.9802,-1.8893,-1.8032,-1.7228,-1.7931,-1.8511,-1.9012,-1.9883,-2.0235,-2.0235,-2.0313,-2.002,-1.9426,-1.8767,-1.8686,-1.8999,-1.8926,-1.9274,-1.9979,-1.9764,-1.9814,-2.0016,-1.9964,-1.9548,-1.8789,-1.8764,-1.8408,-1.779,-1.7778,-1.7457,-1.6961,-1.6529,-1.5671,-1.4364,-1.4298,-1.4435,-1.4708,-1.4772,-1.4976,-1.5415,-1.5309,-1.5422,-1.5901,-1.5653,-1.5221,-1.4576,-1.4522,-1.4199,-1.3488,-1.3372,-1.3257,-1.3067,-1.3416,0.0,0.0,0.0,0.0,0.0,0.0,0.0,0.0,0.0,-1.3667,-1.4406,0.0,-1.5122,0.0,-1.6234,-1.6995,-1.782,-1.8455,0.0,0.0,-2.1042,-2.1862,-2.2609,-2.3641,-2.4432,-2.4794,-2.575,-2.6721,-2.7428,-2.7758,-2.8308,-2.918,-2.8934,-2.886,-2.9374,-2.9968,-3.0451,-3.0598,-3.0841,-3.0762,-3.0105,-2.9501,-2.887,-2.7891,-2.7605,-2.7108,-2.5859,-2.545,-2.5105,-2.4374,-2.3997,-2.3761,-2.3649,-2.3714,-2.3747,-2.3576,-2.3045,-2.2466,-2.2019,-2.2044,-2.2054,-2.1374,-2.1019,-2.0816,-2.0325,-1.9709,-1.9736,-1.9989,-2.0468,-2.114,-2.1391,-2.1391,-2.1391,-2.1038,-2.0495,-2.0135,-2.0203,-2.0462,-2.0374,-2.0605,-2.1215,-2.1045,-2.0994,-2.1163,-2.1163,-2.0734,-1.9992,-1.9979,-1.9651,-1.9026,-1.8939,-1.8789,-1.8379,-1.8255,-1.7691,-1.675,-1.6125,-1.5909,-1.6103,-1.6205,-1.6495,-1.6936,-1.6535,-1.6498,-1.6851,-1.6468,-1.6045,-1.5577,-1.5577,-1.5346,-1.4836,-1.4669,-1.4544,-1.4396,-1.4753,-1.4949,0.0,0.0,0.0,0.0,0.0,0.0,0.0,0.0,0.0,0.0,0.0,-1.6112,0.0,-1.7565,0.0,-1.9118,-2.0059,-2.1007,-2.1859,-2.2808,-2.3597,-2.4176,-2.5039,-2.5754,-2.6096,-2.674,-2.7468,-2.828,-2.8616,-2.9119,-3.006,-3.0005,-3.0025,-3.0277,-3.0782,-3.1249,-3.1498,-3.1803,-3.1779,-3.1246,-3.0756,-3.0216,-2.959,-2.9275,-2.8691,-2.7302,-2.6769,-2.6234,-2.539,-2.489,-2.4552,-2.4372,-2.4241,-2.4251,-2.4313,-2.3978,-2.3435,-2.3184,-2.3176,-2.3215,-2.2173,-2.1979,-2.1979,-2.1979,-2.1872,-2.1104,-2.0968,-2.1194,-2.1774,-2.2013,-2.2013,-2.2013,-2.1735,-2.1247,-2.1247,-2.1381,-2.17,-2.1674,-2.1793,-2.2098,-2.2058,-2.2044,-2.2044,-2.2044,-2.1687,-2.1163,-2.1149,-2.0747,-1.9976,-1.9964,-1.9797,-1.9489,-1.9245,-1.9116,-1.9039,-1.7873,-1.7256,-1.7256,-1.7487,-1.7772,-1.7981,-1.7459,-1.7353,-1.7687,-1.7149,-1.6683,-1.643,-1.643,-1.6271,-1.5992,-1.5773,-1.5652,-1.5652,-1.5741,-1.5833,0.0,-1.6126,0.0,0.0,0.0,0.0,0.0,0.0,0.0,0.0,-1.67,-1.7112,-1.7884,-1.9175,-2.0119,-2.0476,-2.1713,-2.2761,-2.3453,-2.4456,-2.5188,-2.5518,-2.6229,-2.6866,-2.7284,-2.7649,-2.8125,-2.8887,-2.9375,-2.9805,-3.0254,-3.0605,-3.082,-3.0918,-3.123,-3.1621,-3.2051,-3.2254,-3.2248,-3.2296,-3.211,-3.1662,-3.112,-3.0649,-3.0,-2.8691,-2.8097,-2.7517,-2.6599,-2.5922,-2.5432,-2.5034,-2.468,-2.4421,-2.4497,-2.4332,-2.4216,-2.4088,-2.4018,-2.3957,-2.2722,-2.2722,-2.2654,-2.2722,-2.2709,-2.2534,-2.229,-2.2086,-2.2548,-2.2711,-2.2711,-2.2711,-2.2684,-2.2563,-2.2563,-2.2563,-2.2617,-2.2378,-2.2404,-2.2753,-2.2445,-2.2338,-2.2338,-2.2338,-2.2191,-2.1858,-2.1832,-2.1593,-2.1261,-2.1261,-2.0982,-2.0478,-2.0411,-2.0204,-1.9966,0.0,0.0,0.0,-1.8215,-1.8357,-1.868,-1.8138,-1.7978,-1.8311,-1.7742,0.0,-1.7067,-1.7014,-1.6908,-1.6577,-1.6527,0.0,0.0,0.0,0.0,0.0,0.0,0.0,0.0,0.0,0.0,0.0,-1.8237,-1.8238,-1.813,-1.878,-1.9362,-1.9758,-2.0494,-2.1202,-2.19,-2.2659,-2.3559,-2.4543,-2.5102,-2.5622,-2.6294,-2.6858,-2.7265,-2.7604,-2.8242,-2.8867,-2.9375,-2.9824,-3.0234,-3.0664,-3.084,-3.0879,-3.0898,-3.125,-3.1543,-3.162,-3.208,-3.2431,-3.2727,-3.253,-3.2211,-3.1763,-3.1442,-3.0843,-3.0065,-2.9151,-2.851,-2.7849,-2.6831,-2.5869,-2.5546,-2.5114,-2.4665,-2.4162,-2.4361,-2.458,-2.4496,-2.4488,-2.4488,-2.2859,0.0,-2.2859,-2.2859,0.0,-2.2859,-2.2791,-2.2585,-2.2791,-2.2859,-2.2859,-2.2859,-2.2859,-2.2859,-2.2859,-2.2859,-2.2928,-2.2699,-2.2848,-2.3119,-2.2984,-2.2971,-2.3188,-2.3188,-2.2956,-2.2537,-2.2471,-2.2242,-2.1842,-2.1764,-2.1614,-2.1186,-2.0962,-2.0748,-2.0454,-2.0307,-1.9833,-1.9103,-1.9103,-1.9083,-1.9113,-1.8691,-1.8456,-1.849,0.0,0.0,0.0,0.0,0.0,0.0,0.0,0.0,0.0,0.0,0.0,-1.782,-1.8074,-1.8506,-1.9104,-1.9201,-1.9394,-1.9781,-2.0256,-2.016,-1.9292,-1.9895,-2.0441,-2.0728,-2.1666,-2.2538,-2.3133,-2.4056,-2.4968,-2.5718,-2.6321,-2.6797,-2.7185,-2.7569,-2.7941,-2.8281,-2.8652,-2.9141,-2.9805,-3.0059,-3.0371,-3.0801,-3.0898,-3.0898,-3.0937,-3.125,-3.1582,-3.1797,-3.2241,-3.2603,-3.2773,-3.2942,-3.2785,-3.2466,-3.2275,-3.1873,-3.123,-3.039,-2.9691,-2.9216,-2.8097,-2.7035,-2.6651,-2.605,-2.5315,-2.4815,-2.4596,-2.4561,-2.4431,-2.4509,-2.4636,-2.2859,-2.2859,-2.2859,-2.2859,-2.2859,-2.2859,-2.2859,-2.2859,0.0,0.0,0.0,-2.2859,-2.2859,-2.2859,-2.2859,-2.2928,-2.2996,-2.2996,-2.3201,-2.3611,-2.3611,-2.3816,-2.417,-2.417,-2.3826,-2.3252,-2.3239,-2.2887,-2.2203,-2.2203,-2.1976,-2.1695,-2.139,-2.1122,-2.0891,-2.0596,-2.0301,-2.008,-1.9966,-1.9746,-1.9511,-1.9158,-1.8865,-1.8571,-1.8277,-1.8063,-1.7862,-1.7849,-1.7849,-1.7795,-1.7795,-1.7742,-1.7756,-1.7983,-1.8156,-1.8264,-1.8532,-1.916,-1.9979,-2.0192,-2.0603,-2.1526,-2.2095,-2.1818,-2.0577,-2.1058,-2.1539,-2.1869,-2.3184,-2.4154,-2.4521,-2.5679,-2.6665,-2.703,-2.7704,-2.8118,-2.8192,-2.8408,-2.8652,-2.8965,-2.9101,-2.9394,-3.0078,-3.0273,-3.0449,-3.0801,-3.0898,-3.0898,-3.0937,-3.1172,-3.1523,-3.1914,-3.2246,-3.2559,-3.2734,-3.3027,-3.3155,-3.284,-3.2854,-3.2657,-3.2147,-3.1506,-3.0991,-3.052,-2.9413,-2.8493,-2.7899,-2.7051,-2.6206,-2.5662,-2.5077,-2.4553,-2.4355,-2.4462,-2.4536,-2.2859,-2.2859,-2.2859,-2.2859,-2.2859,-2.2859,-2.2859,-2.2859,-2.2859,-2.2859,-2.2859,-2.2859,-2.2859,-2.2859,-2.2859,-2.3065,-2.3338,-2.3338,-2.3679,0.0,-2.436,-2.4495,-2.4849,-2.4849,-2.4684,-2.4303,-2.4303,-2.3795,-2.2928,-2.29,-2.2551,-2.2016,-2.1884,-2.1775,-2.1494,-2.1452,-2.1278,-2.0978,-2.0429,-2.0027,-1.9746,-1.9452,-1.9172,-1.8878,-1.8793,-1.8727,-1.8741,-1.8728,-1.8728,-1.8728,-1.8522,-1.8357,-1.8357,-1.8397,-1.8655,-1.9178,-1.9535,-1.9965,-2.0648,-2.1152,-2.1873,-2.2796,-2.2989,-2.2957,-2.279,-2.352,-2.4217,-2.4548,-2.5623,-2.6526,-2.6885,-2.7508,-2.8108,-2.8631,-2.8818,-2.9041,-2.928,-2.9336,-2.9355,-2.9473,-2.9805,-3.0,-3.0215,-3.0547,-3.0781,-3.0879,-3.0898,-3.0898,-3.0898,-3.0937,-3.1152,-3.1504,-3.166,-3.1855,-3.2207,-3.2617,-3.2789,-3.2828,-3.287,-3.2892,-3.2721,-3.2211,-3.1616,-3.1313,-3.052,-2.9739,-2.8888,-2.8031,-2.72,-2.6372,-2.5657,-2.5175,-2.4553,-2.4368,-2.434,-2.2859,-2.2859,-2.2859,-2.2859,-2.2859,-2.2859,-2.2859,-2.2859,-2.2859,-2.2859,-2.2859,-2.2859,-2.2996,-2.3133,-2.3201,-2.3475,-2.402,-2.402,-2.4495,-2.536,-2.5375,-2.5644,-2.6182,-2.6182,-2.5913,-2.5375,-2.5375,-2.4815,-2.3891,-2.3823,-2.3454,-2.283,-2.2665,-2.2501,-2.2428,-2.2204,-2.2173,-2.2209,-2.1437,-2.0868,-2.058,-2.0429,-2.0141,-1.9674,-1.9807,-1.9738,-1.947,-1.947,-1.9456,-1.947,-1.914,-1.8975,-1.8975,-1.9125,-1.9514,-2.0103,-2.047,-2.1085,-2.2049,-2.2855,-2.3703,-2.4671,-2.4791,-2.4972,-2.5495,-2.5267,-2.5386,-2.6007,-2.6889,-2.7518,-2.7879,-2.8389,-2.8841,-2.9066,-2.9234,-2.9458,-2.957,-2.957,-2.9668,-2.9863,-3.0059,-3.0293,-3.0547,-3.0762,-3.0898,-3.0898,-3.0898,-3.0898,-3.0898,-3.0898,-3.0957,-3.1152,-3.1367,-3.1582,-3.1797,-3.2168,-3.25,-3.2754,-3.2825,-3.2913,-3.3107,-3.2721,-3.2403,-3.2211,-3.1635,-3.0908,-3.0083,-2.9347,-2.8427,-2.7251,-2.6341,-2.565,-2.4944,-2.4414,-2.4156,-2.3187,-2.3133,-2.3133,-2.3133,-2.3133,-2.3133,-2.3133,-2.3133,-2.3133,-2.3133,-2.3133,-2.3065,-2.3133,-2.3406,-2.3543,-2.4088,-2.4699,-2.4834,-2.551,-2.6501,-2.6568,-2.6985,-2.76,-2.7666,-2.7318,-2.6635,-2.6584,-2.5965,-2.497,-2.4834,-2.4516,-2.3856,-2.3558,-2.3403,-2.3403,-2.3221,-2.3257,-2.347,-2.2957,-2.2233,-2.1548,-2.1534,-2.1265,-2.0828,-2.1119,-2.1117,-2.0691,-2.0662,-2.0633,-2.0504,-2.0228,-2.0018,-1.9906,-2.0175,-2.063,-2.1292,-2.1657,-2.2438,-2.3718,-2.4516,-2.5394,-2.6311,-2.6493,-2.6918,-2.7589,-2.6981,-2.6615,-2.7329,-2.8001,-2.8518,-2.8822,-2.9203,-2.9543,-2.9543,-2.975,-2.9922,-2.9883,-2.992,-2.998,-3.0293,-3.0351,-3.0508,-3.0801,-3.0898,-3.0898,-3.0898,-3.0898,-3.0898,-3.0898,-3.0898,-3.0898,-3.0957,-3.1172,-3.1348,-3.1406,-3.1738,-3.2109,-3.248,-3.2598,-3.275,-3.3043,-3.301,-3.2898,-3.2746,-3.2466,-3.1827,-3.1267,-3.0538,-2.9609,-2.8427,-2.7334,-2.6197,-2.5149,-2.4354,-2.3897,-2.4149,-2.3912,-2.3898,-2.3898,-2.3884,-2.3898,-2.3884,-2.3898,-2.3898,-2.3884,-2.3884,-2.3543,-2.3406,-2.3475,-2.4102,-2.4834,-2.5495,-2.5846,-2.6702,-2.7915,-2.7981,-2.8378,-2.9036,-2.9102,-2.8708,-2.8048,-2.7981,-2.7302,-2.6032,-2.5965,-2.5547,-2.4897,-2.4619,-2.4459,-2.4496,-2.4529,-2.469,-2.4982,-2.5193,-2.4449,-2.2713,-2.2593,-2.2418,-2.2007,-2.2661,-2.2927,-2.2833,-2.2866,-2.2772,-2.2455,-2.2068,-2.1818,-2.1584,-2.1832,-2.226,-2.2957,-2.3322,-2.4174,-2.5603,-2.5928,-2.6371,-2.728,-2.7642,-2.808,-2.8797,-2.8943,-2.8947,-2.8987,-2.9594,-3.0025,-3.0218,-3.0471,-3.0626,-3.0587,-3.0684,-3.0781,-3.0703,-3.0762,-3.0781,-3.082,-3.0781,-3.0859,-3.0879,-3.0898,-3.0898,-3.0898,-3.0898,-3.0898,-3.0898,-3.0898,-3.0898,-3.0898,-3.0957,-3.0976,-3.1035,-3.1309,-3.1601,-3.1699,-3.1992,-3.2363,-3.2695,-3.2828,-3.2825,-3.2865,-3.2848,-3.253,-3.1955,-3.1249,-3.0538,-2.9561,-2.8362,-2.6969,-2.5442,-2.4266,-2.379,-2.5192,-2.4919,-2.4973,-2.4804,-2.4578,-2.4563,-2.4563,-2.4563,-2.4563,-2.4563,-2.4631,-2.4887,-2.4766,-2.436,-2.5105,-2.5965,-2.6835,-2.7185,-2.8097,-2.933,-2.9478,-2.9805,-3.0473,-3.0538,-3.0148,-2.9478,-2.9478,-2.8757,-2.7517,-2.6918,-2.6584,-2.6316,-2.6178,-2.6116,-2.6167,-2.599,-2.6129,-2.6632,-2.6616,-2.6357,-2.5953,-2.4984,-2.4193,-2.3776,-2.4237,-2.4467,-2.4365,-2.4333,-2.4269,-2.4082,-2.3607,-2.3284,-2.3145,-2.3268,-2.3719,-2.4519,-2.5294,-2.61,-2.7159,-2.722,-2.7642,-2.8582,-2.8719,-2.9035,-2.9509,-2.9804,-2.9981,-2.9922,-3.0216,-3.045,-3.0645,-3.082,-3.0898,-3.0898,-3.0898,-3.0898,-3.0898,-3.0898,-3.0898,-3.0898,-3.0898,-3.0898,-3.0898,-3.0898,-3.0898,-3.0898,-3.0898,-3.0898,-3.0898,-3.0898,-3.0898,-3.0898,-3.0898,-3.0898,-3.0918,-3.0996,-3.123,-3.1465,-3.166,-3.1934,-3.2324,-3.2676,-3.2809,-3.2859,-3.301,-3.2975,-3.2594,-3.2083,-3.1506,-3.0473,-2.8822,-2.7251,-2.5644,-2.4834,-2.4311,-2.6643,-2.6358,-2.6343,-2.6192,-2.5914,-2.5914,-2.5914,-2.5914,-2.5914,-2.5869,-2.5847,-2.6506,-2.646,-2.5981,-2.6435,-2.7169,-2.7981,-2.8559,-2.9413,-3.0502,-3.0714,-3.1102,-3.1635,-3.1635,-3.1359,-3.0825,-3.0714,-3.0065,-2.8822,-2.8114,-2.7799,-2.7799,-2.7799,-2.7799,-2.7766,-2.7523,-2.7719,-2.8336,-2.8148,-2.8362,-2.8685,-2.7735,-2.6612,-2.579,-2.6111,-2.627,-2.6092,-2.5974,-2.5872,-2.5729,-2.5225,-2.4827,-2.4789,-2.4811,-2.538,-2.6328,-2.7159,-2.7912,-2.8684,-2.8763,-2.9046,-2.9748,-2.9852,-2.9955,-3.0192,-3.041,-3.0528,-3.0509,-3.0509,-3.0645,-3.082,-3.0898,-3.0898,-3.0898,-3.0898,-3.0898,-3.0898,-3.0898,-3.0898,-3.0898,-3.0898,-3.0898,-3.0898,-3.0898,-3.0898,-3.0898,-3.0898,-3.0898,-3.0898,-3.0898,-3.0898,-3.0898,-3.0898,-3.0898,-3.0898,-3.0918,-3.1055,-3.1191,-3.1348,-3.1504,-3.1934,-3.2344,-3.2734,-3.2809,-3.3184,-3.3316,-3.3038,-3.2657,-3.2147,-3.0926,-2.9413,-2.7766,-2.6568,-2.5779,-2.4902,-2.8465,-2.8233,-2.8217,-2.8101,-2.8186,-2.8085,-2.817,-2.8122,-2.8154,-2.791,-2.7693,-2.8337,-2.8442,-2.8097,-2.818,-2.8395,-2.8905,-2.9739,-3.0584,-3.1377,-3.1717,-3.2019,-3.2358,-3.2358,-3.2166,-3.192,-3.1856,-3.1303,-3.023,-2.9578,-2.925,-2.9233,-2.9233,-2.9185,-2.9233,-2.9134,-2.9526,-3.0042,-3.0072,-3.027,-3.0619,-3.0546,-2.9681,-2.8334,-2.8359,-2.842,-2.8367,-2.8084,-2.773,-2.7417,-2.7004,-2.6696,-2.65,-2.6696,-2.7401,-2.8341,-2.8778,-2.9446,-3.0328,-3.0488,-3.0672,-3.102,-3.094,-3.0928,-3.0969,-3.0955,-3.0957,-3.0918,-3.0937,-3.0996,-3.0976,-3.0937,-3.0898,-3.0898,-3.0898,-3.0898,-3.0898,-3.0898,-3.0898,-3.0898,-3.0898,-3.0898,-3.0898,-3.0898,-3.0898,-3.0898,-3.0898,-3.0898,-3.0898,-3.0898,-3.0898,-3.0898,-3.0898,-3.0898,-3.0898,-3.0898,-3.0898,-3.0996,-3.1094,-3.1074,-3.1484,-3.1894,-3.2324,-3.2734,-3.3125,-3.3296,-3.3272,-3.2912,-3.2211,-3.1249,-3.0018,-2.8625,-2.7567,-2.6435,-2.5495,-3.0363,-2.9996,-2.983,-2.973,-2.973,-2.973,-2.973,-2.973,-2.973,-2.9663,-2.9614,-3.0004,-3.0273,-3.042,-3.0821,-3.069,-3.0248,-3.0714,-3.1506,-3.2313,-3.2815,-3.3187,-3.3482,-3.3733,-3.3719,-3.3394,-3.3394,-3.2786,-3.1781,-3.124,-3.09,-3.0638,-3.0667,-3.0667,-3.0667,-3.0667,-3.0926,-3.1295,-3.1359,-3.1478,-3.175,-3.1813,-3.1485,-3.0919,-3.0296,-2.9965,-2.9965,-2.9562,-2.9269,-2.9182,-2.863,-2.8373,-2.8498,-2.904,-2.9494,-2.9947,-3.0254,-3.0696,-3.1214,-3.1313,-3.1497,-3.1783,-3.1789,-3.1733,-3.1793,-3.1737,-3.1719,-3.1699,-3.1699,-3.1719,-3.1582,-3.123,-3.0898,-3.0898,-3.0898,-3.0937,-3.0898,-3.0898,-3.0898,-3.0898,-3.0898,-3.0898,-3.0898,-3.0898,-3.0898,-3.0898,-3.0898,-3.0898,-3.0898,-3.0898,-3.0898,-3.0898,-3.0898,-3.0898,-3.0898,-3.0898,-3.0898,-3.0898,-3.0937,-3.0957,-3.1211,-3.1816,-3.2305,-3.248,-3.293,-3.3379,-3.3355,-3.3102,-3.2403,-3.1827,-3.0602,-2.9561,-2.8625,-2.7567,-2.6501,-3.2106,-3.1912,-3.1649,-3.1544,-3.1595,-3.1544,-3.1595,-3.1526,-3.1526,-3.1456,-3.1436,-3.1758,-3.1976,-3.2204,-3.2721,-3.2662,-3.1995,-3.2218,-3.2671,-3.329,-3.3753,-3.4083,-3.4316,-3.457,-3.4576,-3.4379,-3.4247,-3.3764,-3.3077,-3.2711,-3.2413,-3.219,-3.2042,-3.1967,-3.1949,-3.1837,-3.1891,-3.2147,-3.2192,-3.2403,-3.2676,-3.274,-3.274,-3.26,-3.1979,-3.1451,-3.1256,-3.0841,-3.0615,-3.0517,-3.005,-2.9851,-3.0129,-3.0573,-3.0982,-3.1219,-3.1423,-3.1746,-3.2189,-3.227,-3.2351,-3.2559,-3.2441,-3.2424,-3.2363,-3.2307,-3.2248,-3.2229,-3.2229,-3.2229,-3.207,-3.1641,-3.1309,-3.1309,-3.1309,-3.1309,-3.1309,-3.1309,-3.125,-3.1133,-3.0976,-3.0918,-3.0898,-3.0898,-3.0898,-3.0898,-3.0898,-3.0898,-3.0898,-3.0898,-3.0898,-3.0898,-3.0898,-3.0898,-3.0898,-3.0898,-3.0898,-3.0898,-3.0898,-3.0898,-3.1113,-3.1738,-3.2229,-3.2324,-3.2676,-3.3184,-3.3292,-3.3102,-3.2721,-3.2275,-3.1506,-3.0473,-2.9543,-2.8708,-2.77,-3.3729,-3.3711,-3.3798,-3.3656,-3.3619,-3.3619,-3.3692,-3.3656,-3.3656,-3.3418,-3.3125,-3.3447,-3.3415,-3.3337,-3.369,-3.3889,-3.4068,-3.4049,-3.4058,-3.4197,-3.4471,-3.4707,-3.4707,-3.4805,-3.4844,-3.4778,-3.4437,-3.4285,-3.4134,-3.3851,-3.37,-3.3605,-3.3263,-3.3074,-3.3093,-3.2668,-3.2568,-3.2804,-3.2848,-3.3038,-3.3355,-3.3292,-3.3292,-3.3292,-3.3214,-3.2894,-3.2315,-3.1911,-3.1619,-3.1619,-3.1317,-3.1195,-3.1214,-3.1309,-3.1584,-3.2114,-3.2296,-3.2633,-3.3175,-3.3277,-3.3218,-3.3242,-3.3008,-3.2793,-3.2754,-3.25,-3.2305,-3.2324,-3.2305,-3.2246,-3.2285,-3.2226,-3.2129,-3.2148,-3.2012,-3.2072,-3.2131,-3.2129,-3.1973,-3.1523,-3.1191,-3.0937,-3.0898,-3.0898,-3.0898,-3.0898,-3.0898,-3.0898,-3.0898,-3.0898,-3.0898,-3.0898,-3.0898,-3.0898,-3.0898,-3.0898,-3.0898,-3.0898,-3.0898,-3.0918,-3.1211,-3.1699,-3.2168,-3.2402,-3.2891,-3.3359,-3.3355,-3.3165,-3.3038,-3.253,-3.1891,-3.1313,-3.0538,-2.9626,-2.8774,-3.4577,-3.4577,-3.4577,-3.4577,-3.4577,-3.4577,-3.4577,-3.4577,-3.4577,-3.4483,-3.439,-3.4508,-3.4637,-3.4765,-3.4882,-3.5133,-3.5403,-3.5451,-3.5159,-3.4751,-3.4973,-3.5195,-3.5234,-3.5469,-3.5605,-3.5605,-3.5471,-3.5315,-3.5034,-3.4929,-3.4707,-3.4398,-3.4243,-3.403,-3.3798,-3.3624,-3.3495,-3.3267,-3.3228,-3.3292,-3.3355,-3.3418,-3.3418,-3.3418,-3.3418,-3.3277,-3.3097,-3.2646,-3.2494,-3.2474,-3.206,-3.198,-3.227,-3.256,-3.2836,-3.3015,-3.3034,-3.3136,-3.3316,-3.3418,-3.3418,-3.3398,-3.3281,-3.3242,-3.3223,-3.3086,-3.2988,-3.3008,-3.3027,-3.3027,-3.3027,-3.3027,-3.2793,-3.2246,-3.2229,-3.2207,-3.2307,-3.2248,-3.1973,-3.1601,-3.1406,-3.1211,-3.0976,-3.0898,-3.0898,-3.0898,-3.0898,-3.0898,-3.0898,-3.0898,-3.0898,-3.0898,-3.0898,-3.0898,-3.0898,-3.0918,-3.0937,-3.0996,-3.1016,-3.1055,-3.1328,-3.1777,-3.2207,-3.2617,-3.3105,-3.3296,-3.3335,-3.3292,-3.3165,-3.2975,-3.253,-3.1955,-3.1377,-3.0538,-2.9626,-3.5333,-3.5333,-3.5333,-3.5333,-3.5333,-3.5264,-3.5333,-3.5333,-3.5333,-3.5333,-3.5333,-3.5333,-3.547,-3.5675,-3.5694,-3.5908,-3.625,-3.6269,-3.6055,-3.5703,-3.5742,-3.5879,-3.5918,-3.6309,-3.6484,-3.6504,-3.6504,-3.6269,-3.5879,-3.5859,-3.5644,-3.5254,-3.5039,-3.4844,-3.4531,-3.4219,-3.3926,-3.3691,-3.3516,-3.3418,-3.3418,-3.3418,-3.3418,-3.3418,-3.3418,-3.3418,-3.3398,-3.3164,-3.3027,-3.2988,-3.2754,-3.2773,-3.3027,-3.3262,-3.3418,-3.3418,-3.3418,-3.3418,-3.3418,-3.3418,-3.3418,-3.3418,-3.3418,-3.3418,-3.3418,-3.3418,-3.3418,-3.3418,-3.3398,-3.3418,-3.3398,-3.3418,-3.3164,-3.2715,-3.2676,-3.2637,-3.2617,-3.2542,-3.2324,-3.2031,-3.1738,-3.1426,-3.1211,-3.0937,-3.0918,-3.0898,-3.0898,-3.0898,-3.0898,-3.0898,-3.0898,-3.0898,-3.0898,-3.0898,-3.0898,-3.0918,-3.0976,-3.1074,-3.1191,-3.1289,-3.1465,-3.207,-3.2578,-3.2891,-3.334,-3.3379,-3.3355,-3.3355,-3.3292,-3.3102,-3.2975,-3.253,-3.1955,-3.1377,-3.0538,-3.6016,-3.6035,-3.6035,-3.5947,-3.5947,-3.5947,-3.5947,-3.5947,-3.5947,-3.5879,-3.5967,-3.5879,-3.5986,-3.6006,-3.6064,-3.6328,-3.6641,-3.6699,-3.6855,-3.6934,-3.6875,-3.6719,-3.6699,-3.6992,-3.7129,-3.7187,-3.7207,-3.7031,-3.6641,-3.6621,-3.6484,-3.6016,-3.5684,-3.541,-3.5176,-3.4531,-3.4219,-3.4082,-3.375,-3.3574,-3.3574,-3.3555,-3.3555,-3.3574,-3.3574,-3.3574,-3.3516,-3.3418,-3.3379,-3.3398,-3.332,-3.3301,-3.3398,-3.3418,-3.3418,-3.3418,-3.3418,-3.3418,-3.3418,-3.3418,-3.3418,-3.3418,-3.3418,-3.3418,-3.3418,-3.3418,-3.3418,-3.3418,-3.3418,-3.3418,-3.3418,-3.3418,-3.3379,-3.3398,-3.3262,-3.3281,-3.3359,-3.3027,-3.2773,-3.2617,-3.209,-3.1543,-3.1504,-3.1152,-3.0996,-3.0898,-3.0898,-3.0898,-3.0898,-3.0898,-3.0898,-3.0898,-3.0898,-3.1016,-3.1055,-3.1133,-3.1211,-3.1523,-3.1641,-3.1777,-3.1875,-3.2422,-3.2851,-3.3184,-3.3359,-3.3398,-3.3418,-3.3418,-3.3418,-3.3292,-3.3165,-3.2975,-3.2594,-3.1955,-3.1442,-3.6035,-3.6035,-3.6035,-3.6035,-3.6035,-3.6035,-3.6035,-3.6035,-3.6035,-3.6035,-3.6035,-3.6035,-3.623,-3.6484,-3.6504,-3.6738,-3.7051,-3.7129,-3.7168,-3.7324,-3.7539,-3.7383,-3.7187,-3.7246,-3.7324,-3.7344,-3.7383,-3.7246,-3.7148,-3.7129,-3.6914,-3.6523,-3.6348,-3.5976,-3.543,-3.5156,-3.4863,-3.459,-3.4434,-3.4336,-3.4316,-3.4316,-3.4355,-3.4375,-3.4336,-3.418,-3.3906,-3.3594,-3.3418,-3.3418,-3.3418,-3.3418,-3.3418,-3.3418,-3.3418,-3.3418,-3.3418,-3.3418,-3.3418,-3.3418,-3.3418,-3.3418,-3.3418,-3.3418,-3.3418,-3.3418,-3.3418,-3.3418,-3.3418,-3.3418,-3.3418,-3.3418,-3.3418,-3.3418,-3.3418,-3.3418,-3.3398,-3.332,-3.3144,-3.2832,-3.2559,-3.2148,-3.168,-3.1387,-3.1172,-3.0957,-3.0898,-3.0898,-3.0898,-3.0898,-3.0898,-3.0898,-3.0937,-3.1113,-3.125,-3.1328,-3.1543,-3.1953,-3.2226,-3.248,-3.2598,-3.291,-3.3184,-3.3398,-3.3398,-3.3418,-3.3418,-3.3418,-3.3418,-3.3418,-3.3292,-3.3165,-3.2975,-3.253,-3.2211,-3.6035,-3.6035,-3.6035,-3.6035,-3.6035,-3.6035,-3.6035,-3.6035,-3.6035,-3.6133,-3.6269,-3.6289,-3.6543,-3.6894,-3.6934,-3.7168,-3.7519,-3.7559,-3.7676,-3.7891,-3.8086,-3.8047,-3.7871,-3.7832,-3.7832,-3.7832,-3.7832,-3.7734,-3.7598,-3.7559,-3.7324,-3.6973,-3.6758,-3.6406,-3.5996,-3.5527,-3.5293,-3.5,-3.4824,-3.4687,-3.4687,-3.4687,-3.4687,-3.4687,-3.4687,-3.4551,-3.4297,-3.3926,-3.3633,-3.3476,-3.3418,-3.3418,-3.3418,-3.3418,-3.3418,-3.3418,-3.3418,-3.3418,-3.3418,-3.3418,-3.3418,-3.3418,-3.3418,-3.3418,-3.3418,-3.3418,-3.3418,-3.3418,-3.3418,-3.3418,-3.3418,-3.3418,-3.3418,-3.3418,-3.3418,-3.3418,-3.3418,-3.3418,-3.332,-3.3066,-3.2734,-3.2383,-3.1816,-3.1504,-3.1191,-3.0976,-3.0898,-3.0898,-3.0898,-3.0898,-3.0976,-3.1055,-3.1191,-3.1406,-3.1641,-3.1758,-3.1973,-3.2363,-3.2656,-3.2969,-3.3066,-3.3242,-3.332,-3.3418,-3.3418,-3.3418,-3.3418,-3.3418,-3.3418,-3.3418,-3.3418,-3.3355,-3.3165,-3.2975,-3.2657,-3.6035,-3.6035,-3.6035,-3.6035,-3.6035,-3.6074,-3.6133,-3.6113,-3.6211,-3.6406,-3.668,-3.6738,-3.6973,-3.7363,-3.7363,-3.7598,-3.7988,-3.8086,-3.8379,-3.8613,-3.8769,-3.873,-3.8711,-3.8476,-3.8437,-3.8437,-3.8555,-3.832,-3.8066,-3.7988,-3.7754,-3.7402,-3.7012,-3.6827,-3.6465,-3.5918,-3.5566,-3.541,-3.5156,-3.5,-3.5,-3.5,-3.5019,-3.5,-3.4883,-3.4844,-3.4687,-3.4355,-3.3984,-3.3594,-3.3476,-3.3418,-3.3418,-3.3418,-3.3418,-3.3418,-3.3418,-3.3418,-3.3418,-3.3418,-3.3418,-3.3418,-3.3418,-3.3418,-3.3418,-3.3418,-3.3418,-3.3418,-3.3418,-3.3418,-3.3418,-3.3418,-3.3418,-3.3418,-3.3418,-3.3418,-3.3418,-3.3418,-3.3418,-3.3379,-3.2695,-3.2324,-3.1973,-3.1523,-3.0957,-3.0937,-3.0898,-3.0898,-3.0957,-3.1055,-3.1191,-3.1367,-3.1543,-3.1758,-3.1992,-3.2226,-3.248,-3.2773,-3.3047,-3.3262,-3.3262,-3.3359,-3.3379,-3.3418,-3.3418,-3.3418,-3.3418,-3.3418,-3.3418,-3.3418,-3.3418,-3.3418,-3.3355,-3.3165,-3.2912,-3.6035,-3.6035,-3.6035,-3.6035,-3.6074,-3.6387,-3.6543,-3.6543,-3.6875,-3.7012,-3.7148,-3.7168,-3.7402,-3.7793,-3.7832,-3.8027,-3.8457,-3.875,-3.918,-3.957,-3.9609,-3.9609,-3.9434,-3.8984,-3.8633,-3.8633,-3.8594,-3.8535,-3.8437,-3.8398,-3.8223,-3.7812,-3.7598,-3.7324,-3.6738,-3.6523,-3.6211,-3.5937,-3.5781,-3.5742,-3.5742,-3.5742,-3.5742,-3.5703,-3.5449,-3.5273,-3.5156,-3.4805,-3.4531,-3.4297,-3.3828,-3.3535,-3.3516,-3.3496,-3.3496,-3.3516,-3.3476,-3.3457,-3.3437,-3.3476,-3.3418,-3.3457,-3.3437,-3.3418,-3.3418,-3.3418,-3.3418,-3.3418,-3.3418,-3.3418,-3.3418,-3.3418,-3.3418,-3.3418,-3.3418,-3.3398,-3.3398,-3.3418,-3.3418,-3.3281,-3.3011,-3.26,-3.2248,-3.1739,-3.1289,-3.1055,-3.0957,-3.0898,-3.0996,-3.1152,-3.1387,-3.1601,-3.1934,-3.2168,-3.248,-3.2676,-3.2832,-3.3027,-3.3262,-3.3418,-3.3418,-3.3418,-3.3418,-3.3418,-3.3418,-3.3418,-3.3418,-3.3418,-3.3418,-3.3418,-3.3437,-3.3476,-3.3433,-3.333,-3.3442,-3.6035,-3.6035,-3.623,-3.6328,-3.6387,-3.6777,-3.6953,-3.7012,-3.7187,-3.7422,-3.7559,-3.7598,-3.7832,-3.8242,-3.8437,-3.8672,-3.8926,-3.9316,-3.9648,-3.9844,-3.9863,-3.9883,-3.9844,-3.9492,-3.9199,-3.9199,-3.9219,-3.9101,-3.8926,-3.8828,-3.8652,-3.8223,-3.8047,-3.7715,-3.7285,-3.707,-3.6855,-3.668,-3.6621,-3.6621,-3.6621,-3.6621,-3.6621,-3.6543,-3.623,-3.5996,-3.5976,-3.5351,-3.5078,-3.4863,-3.4394,-3.4023,-3.4023,-3.4004,-3.4004,-3.4023,-3.4023,-3.4023,-3.4023,-3.3828,-3.373,-3.373,-3.3555,-3.3437,-3.3418,-3.3418,-3.3418,-3.3418,-3.3418,-3.3418,-3.3418,-3.3418,-3.3418,-3.3418,-3.3418,-3.334,-3.3223,-3.3426,-3.3509,-3.3375,-3.3085,-3.2711,-3.2315,-3.188,-3.1545,-3.1248,-3.117,-3.1132,-3.1016,-3.1191,-3.1582,-3.1875,-3.2246,-3.2578,-3.293,-3.3105,-3.3144,-3.3262,-3.334,-3.3418,-3.3418,-3.3418,-3.3418,-3.3418,-3.3418,-3.3418,-3.3418,-3.3418,-3.3418,-3.3418,-3.3457,-3.3535,-3.3652,-3.3706,-3.394,-3.6035,-3.6055,-3.6484,-3.6749,-3.6758,-3.7168,-3.7402,-3.7402,-3.7461,-3.7754,-3.7969,-3.8027,-3.8262,-3.8672,-3.9004,-3.9219,-3.9512,-3.9766,-4.0059,-4.0215,-4.0234,-4.0234,-4.0195,-4.0137,-4.0098,-4.0078,-3.9863,-3.9609,-3.9375,-3.9297,-3.916,-3.8769,-3.8359,-3.8144,-3.7969,-3.7617,-3.7305,-3.7187,-3.7148,-3.7168,-3.7187,-3.7207,-3.7187,-3.7109,-3.6914,-3.6699,-3.6562,-3.6074,-3.5625,-3.5547,-3.5137,-3.4941,-3.4863,-3.4726,-3.4687,-3.4668,-3.459,-3.4551,-3.4492,-3.4336,-3.416,-3.416,-3.3887,-3.3672,-3.3672,-3.373,-3.375,-3.3672,-3.3672,-3.3574,-3.3516,-3.3457,-3.3437,-3.3418,-3.3418,-3.3242,-3.3172,-3.3539,-3.3565,-3.3208,-3.2933,-3.2695,-3.2414,-3.2073,-3.1794,-3.1498,-3.1441,-3.1326,-3.1269,-3.1368,-3.1798,-3.2148,-3.2539,-3.2832,-3.3184,-3.3262,-3.334,-3.3359,-3.3418,-3.3418,-3.3418,-3.3418,-3.3418,-3.3418,-3.3418,-3.3418,-3.3418,-3.3418,-3.3418,-3.3418,-3.3555,-3.373,-3.3926,-3.4101,-3.4394,-3.6035,-3.6055,-3.6484,-3.6749,-3.6797,-3.748,-3.7812,-3.7891,-3.8164,-3.8379,-3.8437,-3.8476,-3.8691,-3.9023,-3.9141,-3.959,-4.0156,-4.0391,-4.0586,-4.0801,-4.0859,-4.084,-4.082,-4.0859,-4.0898,-4.0742,-4.0506,-4.0115,-3.9824,-3.9766,-3.9743,-3.9551,-3.9254,-3.8901,-3.8549,-3.8066,-3.7812,-3.7656,-3.7559,-3.75,-3.75,-3.7441,-3.7422,-3.7402,-3.7285,-3.7207,-3.7109,-3.6758,-3.6465,-3.6426,-3.6035,-3.584,-3.5644,-3.5156,-3.4863,-3.4805,-3.4824,-3.4863,-3.4824,-3.4687,-3.4609,-3.459,-3.4453,-3.4434,-3.4434,-3.4434,-3.4316,-3.4277,-3.4101,-3.3926,-3.3945,-3.3633,-3.3437,-3.3418,-3.3418,-3.3422,-3.3618,-3.3731,-3.3616,-3.3095,-3.2794,-3.2747,-3.2717,-3.2608,-3.235,-3.2076,-3.196,-3.181,-3.1639,-3.1841,-3.2253,-3.2544,-3.2832,-3.3105,-3.3379,-3.3379,-3.3398,-3.3398,-3.3418,-3.3418,-3.3418,-3.3418,-3.3418,-3.3418,-3.3418,-3.3418,-3.3418,-3.3437,-3.3496,-3.3574,-3.3769,-3.3984,-3.4258,-3.4531,-3.4824,-3.6152,-3.6406,-3.6816,-3.7129,-3.7402,-3.7988,-3.8262,-3.8281,-3.8496,-3.8574,-3.8633,-3.8789,-3.9004,-3.9277,-3.9746,-4.0254,-4.0703,-4.0859,-4.0996,-4.1152,-4.1172,-4.1172,-4.125,-4.1387,-4.1484,-4.1543,-4.1483,-4.0916,-4.0273,-4.0442,-4.042,-4.0164,-3.9928,-3.9731,-3.9574,-3.923,-3.8882,-3.8574,-3.8379,-3.8262,-3.8242,-3.8086,-3.7969,-3.793,-3.7734,-3.7637,-3.7539,-3.7226,-3.7012,-3.6953,-3.6797,-3.6582,-3.6289,-3.5996,-3.5586,-3.541,-3.5351,-3.5371,-3.5312,-3.5215,-3.5059,-3.5019,-3.4883,-3.4707,-3.4687,-3.4668,-3.4746,-3.4629,-3.4336,-3.4062,-3.4043,-3.3691,-3.3457,-3.3418,-3.3418,-3.3509,-3.3624,-3.3838,-3.372,-3.3353,-3.3402,-3.3464,-3.3476,-3.3287,-3.2955,-3.2685,-3.2534,-3.2313,-3.2165,-3.2455,-3.2873,-3.2964,-3.3152,-3.3223,-3.3418,-3.3418,-3.3418,-3.3418,-3.3496,-3.3496,-3.3516,-3.3555,-3.3476,-3.3418,-3.3418,-3.3574,-3.3535,-3.3594,-3.3672,-3.3809,-3.4121,-3.4434,-3.4707,-3.498,-3.5312,-3.6269,-3.6699,-3.7109,-3.7539,-3.7969,-3.8398,-3.8574,-3.8574,-3.8574,-3.8633,-3.875,-3.9043,-3.9297,-3.9648,-4.0254,-4.084,-4.1172,-4.1152,-4.1211,-4.1328,-4.1348,-4.1328,-4.1523,-4.1699,-4.2013,-4.2191,-4.2487,-4.2329,-4.1325,-4.1359,-4.1291,-4.1052,-4.0873,-4.0753,-4.0619,-4.0121,-4.0148,-3.986,-3.957,-3.9355,-3.9238,-3.9023,-3.8848,-3.8789,-3.8418,-3.8203,-3.8203,-3.7695,-3.7461,-3.7383,-3.7285,-3.7179,-3.6995,-3.6936,-3.674,-3.6436,-3.6142,-3.6035,-3.5918,-3.5723,-3.5508,-3.5508,-3.5176,-3.5039,-3.5,-3.5117,-3.5039,-3.4902,-3.4629,-3.4401,-3.4387,-3.3956,-3.3681,-3.367,-3.365,-3.3697,-3.3957,-3.4248,-3.4627,-3.4428,-3.436,-3.4382,-3.4515,-3.4038,-3.3706,-3.389,-3.3664,-3.3382,-3.3186,-3.3212,-3.3417,-3.3428,-3.3477,-3.3426,-3.3418,-3.3418,-3.3418,-3.3418,-3.3594,-3.3711,-3.3711,-3.373,-3.3711,-3.3789,-3.3848,-3.3965,-3.3867,-3.3867,-3.4062,-3.4316,-3.4609,-3.4863,-3.5059,-3.5469,-3.5879,-3.6269,-3.6719,-3.7129,-3.7539,-3.7969,-3.8398,-3.8574,-3.8574,-3.8594,-3.8809,-3.9082,-3.9238,-3.9687,-4.0312,-4.0801,-4.1094,-4.1191,-4.125,-4.1426,-4.168,-4.1738,-4.1894,-4.2187,-4.2305,-4.2603,-4.2862,-4.3101,-4.2784,-4.2465,-4.2755,-4.2611,-4.2265,-4.1882,-4.1625,-4.1681,-4.1103,-4.0409,-4.0429,-4.0089,-3.988,-3.9841,-3.9762,-3.9723,-3.9606,-3.9351,-3.9077,-3.9033,-3.8485,-3.8073,-3.7923,-3.759,-3.7535,-3.7667,-3.7738,-3.7689,-3.7291,-3.6748,-3.6035,-3.6084,-3.5986,-3.5859,-3.5859,-3.5781,-3.584,-3.5857,-3.5838,-3.5857,-3.5859,-3.5497,-3.5198,-3.5021,-3.467,-3.4421,-3.4352,-3.4338,-3.461,-3.4944,-3.5065,-3.5417,-3.6031,-3.6114,-3.5799,-3.5736,-3.5091,-3.4547,-3.4756,-3.4818,-3.4511,-3.4318,-3.4318,-3.4004,-3.3957,-3.3783,-3.367,-3.3721,-3.3638,-3.3652,-3.3574,-3.3769,-3.3984,-3.4043,-3.4121,-3.4355,-3.4414,-3.4434,-3.4394,-3.4336,-3.4394,-3.457,-3.4785,-3.5039,-3.5195,-3.5332,-3.582,-3.6367,-3.6641,-3.7051,-3.748,-3.791,-3.8301,-3.8496,-3.8574,-3.8633,-3.8828,-3.9023,-3.9297,-3.9766,-4.0312,-4.0859,-4.1113,-4.1308,-4.1465,-4.1523,-4.1758,-4.209,-4.2168,-4.2266,-4.2422,-4.2676,-4.3035,-4.3558,-4.4181,-4.4802,-4.4433,-4.4058,-4.369,-4.3813,-4.34,-4.3153,-4.3057,-4.2287,-4.1999,-4.1766,-4.1283,-4.0873,-4.0619,-4.0559,-4.0559,-4.0559,-4.036,-4.0261,-4.0082,-3.9685,-3.9327,-3.9228,-3.8891,-3.8746,-3.8869,-3.8929,-3.8888,-3.8766,-3.8112,-3.7292,-3.6463,-3.6355,-3.62,-3.6152,-3.6219,-3.6364,-3.6539,-3.6606,-3.6606,-3.6586,-3.6209,-3.6004,-3.5836,-3.5425,-3.5234,-3.5078,-3.5229,-3.5604,-3.5974,-3.6152,-3.6419,-3.7192,-3.7824,-3.7679,-3.7422,-3.7084,-3.6634,-3.6589,-3.6534,-3.6117,-3.5815,-3.56,-3.5148,-3.4571,-3.4235,-3.3938,-3.4049,-3.4059,-3.4146,-3.4121,-3.4258,-3.4434,-3.4453,-3.457,-3.4805,-3.4922,-3.4883,-3.4844,-3.4805,-3.4902,-3.5078,-3.5254,-3.5449,-3.5684,-3.5937,-3.6172,-3.6719,-3.707,-3.748,-3.7793,-3.8164,-3.8555,-3.8574,-3.8574,-3.8633,-3.9004,-3.9258,-3.959,-4.0273,-4.0918,-4.125,-4.1367,-4.1582,-4.1953,-4.1953,-4.2226,-4.2461,-4.2598,-4.2676,-4.2891,-4.3206,-4.3712,-4.4179,-4.5392,-4.6236,-4.6653,-4.628,-4.5813,-4.5524,-4.5057,-4.4866,-4.4576,-4.3898,-4.3339,-4.2937,-4.2454,-4.2019,-4.1696,-4.1444,-4.1444,-4.1384,-4.1283,-4.1298,-4.1217,-4.0908,-4.0686,-4.0585,-4.0367,-4.0269,-4.0492,-4.0448,-4.0368,-4.0297,-3.9967,-3.9223,-3.8106,-3.7368,-3.6734,-3.6471,-3.6606,-3.6991,-3.726,-3.7327,-3.7327,-3.7327,-3.7104,-3.6907,-3.6775,-3.6483,-3.6556,-3.6477,-3.6478,-3.6786,-3.713,-3.7619,-3.8077,-3.8775,-3.9371,-3.9763,-3.9533,-3.9231,-3.893,-3.8606,-3.8215,-3.7723,-3.7288,-3.6893,-3.6173,-3.548,-3.5124,-3.4702,-3.4354,-3.4463,-3.4589,-3.4714,-3.487,-3.4883,-3.4922,-3.5039,-3.5234,-3.5312,-3.5391,-3.5527,-3.5625,-3.5605,-3.5586,-3.584,-3.6094,-3.6367,-3.6601,-3.6797,-3.7148,-3.75,-3.7891,-3.791,-3.8184,-3.8574,-3.8574,-3.8574,-3.8613,-3.9043,-3.9492,-4.0,-4.0723,-4.1348,-4.1641,-4.1777,-4.1992,-4.2383,-4.2383,-4.2656,-4.291,-4.3066,-4.3223,-4.3543,-4.4008,-4.468,-4.5555,-4.6467,-4.7709,-4.8846,-4.8852,-4.8135,-4.7455,-4.7071,-4.6745,-4.6344,-4.5642,-4.466,-4.4245,-4.3792,-4.3521,-4.3101,-4.2749,-4.2576,-4.2378,-4.1963,-4.1646,-4.1721,-4.1746,-4.1797,-4.1797,-4.1679,-4.1781,-4.2124,-4.2032,-4.2021,-4.2076,-4.2,-4.1287,-4.0312,-3.8709,-3.7604,-3.7321,-3.7455,-3.7898,-3.832,-3.815,-3.8063,-3.8196,-3.8117,-3.8037,-3.807,-3.8057,-3.8103,-3.8122,-3.8241,-3.8587,-3.9014,-3.9534,-3.9992,-4.0486,-4.094,-4.1297,-4.158,-4.1305,-4.0499,-4.0178,-3.9557,-3.9024,-3.8426,-3.7954,-3.7175,-3.647,-3.6165,-3.5638,-3.4912,-3.4978,-3.5355,-3.5429,-3.5446,-3.5457,-3.543,-3.5586,-3.5918,-3.5957,-3.6113,-3.6289,-3.6387,-3.6289,-3.6269,-3.6484,-3.6699,-3.6855,-3.7168,-3.7441,-3.7832,-3.7539,-3.7949,-3.8223,-3.8418,-3.8574,-3.8574,-3.8574,-3.8691,-3.9316,-4.0039,-4.0703,-4.1289,-4.1641,-4.1836,-4.2129,-4.2422,-4.2773,-4.2832,-4.3105,-4.334,-4.3516,-4.3739,-4.4103,-4.4678,-4.5332,-4.6467,-4.7352,-4.8626,-5.0053,-5.0625,-5.1194,-5.0529,-4.951,-4.8839,-4.8336,-4.7622,-4.6778,-4.6115,-4.5728,-4.5497,-4.5377,-4.4964,-4.4628,-4.4294,-4.4211,-4.3877,-4.3702,-4.3318,-4.3373,-4.3405,-4.3213,-4.3493,-4.3785,-4.3806,-4.3852,-4.3891,-4.3826,-4.3286,-4.2318,-4.0694,-3.9495,-3.9323,-3.9223,-3.9281,-3.9792,-3.9644,-3.9494,-3.9386,-3.9386,-3.9367,-3.9433,-3.9583,-3.9765,-3.98,-4.0043,-4.0468,-4.0815,-4.1314,-4.1565,-4.1899,-4.2423,-4.2925,-4.3201,-4.3358,-4.2438,-4.1622,-4.0941,-4.0324,-3.979,-3.9166,-3.8497,-3.7819,-3.7524,-3.7001,-3.6292,-3.6233,-3.6254,-3.6176,-3.6158,-3.6161,-3.625,-3.6523,-3.6777,-3.6797,-3.6758,-3.6855,-3.6894,-3.6855,-3.6914,-3.7012,-3.7129,-3.7226,-3.7598,-3.8027,-3.8398,-3.7617,-3.8125,-3.8437,-3.8574,-3.8574,-3.8574,-3.8652,-3.8887,-3.9551,-4.0371,-4.1191,-4.1601,-4.1875,-4.207,-4.2422,-4.2851,-4.3164,-4.3281,-4.3519,-4.3739,-4.4001,-4.4288,-4.478,-4.5495,-4.6306,-4.7352,-4.8525,-4.9864,-5.1262,-5.2154,-5.2745,-5.2835,-5.2305,-5.1479,-5.0452,-4.9851,-4.9026,-4.8307,-4.7904,-4.7509,-4.7367,-4.6862,-4.6489,-4.6048,-4.5984,-4.5748,-4.5459,-4.517,-4.523,-4.5265,-4.5187,-4.5224,-4.5438,-4.5615,-4.5644,-4.5599,-4.5478,-4.5064,-4.4097,-4.2388,-4.1247,-4.1121,-4.1015,-4.1263,-4.1529,-4.1417,-4.1195,-4.1063,-4.0952,-4.0841,-4.0906,-4.1171,-4.1416,-4.1531,-4.1939,-4.2318,-4.2518,-4.2933,-4.3083,-4.3264,-4.3776,-4.4057,-4.3986,-4.4062,-4.3805,-4.3061,-4.2667,-4.1972,-4.1283,-4.0698,-4.0106,-3.9456,-3.8916,-3.8401,-3.7905,-3.7847,-3.7693,-3.7159,-3.714,-3.7075,-3.7173,-3.7387,-3.7324,-3.7129,-3.7129,-3.7324,-3.7383,-3.7383,-3.7422,-3.748,-3.7617,-3.7773,-3.8047,-3.8437,-3.875,-3.7793,-3.8535,-3.8574,-3.8574,-3.8574,-3.8574,-3.8789,-3.916,-3.9726,-4.043,-4.125,-4.168,-4.209,-4.2441,-4.2871,-4.3324,-4.3598,-4.3696,-4.3982,-4.435,-4.4514,-4.4924,-4.5739,-4.6548,-4.7352,-4.8367,-4.9629,-5.103,-5.2512,-5.3195,-5.4047,-5.457,-5.4178,-5.3613,-5.2458,-5.1587,-5.0706,-4.9955,-4.9638,-4.9243,-4.8857,-4.8255,-4.7904,-4.7696,-4.7652,-4.7487,-4.7144,-4.714,-4.7217,-4.7224,-4.7191,-4.7284,-4.772,-4.7422,-4.7346,-4.7498,-4.7428,-4.7032,-4.6154,-4.3422,-4.2727,-4.2884,-4.2861,-4.3059,-4.3519,-4.3395,-4.3092,-4.3005,-4.2752,-4.2477,-4.2552,-4.2869,-4.3145,-4.3459,-4.3864,-4.4151,-4.4398,-4.4583,-4.4744,-4.4914,-4.4897,-4.4873,-4.4668,-4.4527,-4.4652,-4.4419,-4.4261,-4.3634,-4.2769,-4.2221,-4.1546,-4.1061,-4.053,-4.0049,-3.9606,-3.9399,-3.9134,-3.8507,-3.8093,-3.8027,-3.7766,-3.7752,-3.759,-3.7402,-3.7539,-3.7754,-3.7851,-3.791,-3.7988,-3.8066,-3.8242,-3.8418,-3.8633,-3.8848,-3.9121,-3.8047,-3.8574,-3.8574,-3.8574,-3.8574,-3.8574,-3.8809,-3.9297,-3.998,-4.0781,-4.1543,-4.2031,-4.2461,-4.2871,-4.3324,-4.3801,-4.4166,-4.4205,-4.4452,-4.5169,-4.525,-4.6063,-4.687,-4.7672,-4.8525,-4.9707,-5.0953,-5.2054,-5.3346,-5.4047,-5.4645,-5.5164,-5.5312,-5.477,-5.3955,-5.3384,-5.3016,-5.2419,-5.1933,-5.1476,-5.1162,-5.0483,-4.9833,-4.9616,-4.9517,-4.9268,-4.8839,-4.8944,-4.9084,-4.913,-4.911,-4.9173,-4.944,-4.9125,-4.9109,-4.9068,-4.8853,-4.8366,-4.7593,-4.6072,-4.5512,-4.5239,-4.4874,-4.4976,-4.5562,-4.529,-4.5077,-4.4958,-4.4681,-4.4539,-4.4896,-4.5127,-4.5405,-4.5468,-4.5799,-4.5987,-4.6238,-4.6426,-4.6625,-4.6662,-4.6711,-4.6659,-4.6481,-4.603,-4.592,-4.567,-4.54,-4.4734,-4.3919,-4.3529,-4.3083,-4.2617,-4.2133,-4.1688,-4.1367,-4.1045,-4.0586,-3.9962,-3.9363,-3.8859,-3.8576,-3.8458,-3.821,-3.8216,-3.8164,-3.8203,-3.8301,-3.8418,-3.8574,-3.8691,-3.8809,-3.8887,-3.9023,-3.9199,-3.9414,-3.8184,-3.8574,-3.8574,-3.8574,-3.8574,-3.8574,-3.896,-3.9735,-4.058,-4.1463,-4.225,-4.2704,-4.3139,-4.3573,-4.3988,-4.4432,-4.4862,-4.4862,-4.5495,-4.6225,-4.6387,-4.7272,-4.823,-4.8921,-5.002,-5.1108,-5.2054,-5.2968,-5.4173,-5.4645,-5.5164,-5.5681,-5.5779,-5.5509,-5.5041,-5.472,-5.4348,-5.3852,-5.3275,-5.2821,-5.2646,-5.2166,-5.1562,-5.1407,-5.1268,-5.1082,-5.0735,-5.0624,-5.0653,-5.0791,-5.076,-5.0674,-5.0698,-5.0613,-5.0518,-5.0327,-4.9928,-4.9552,-4.8974,-4.861,-4.7954,-4.7623,-4.6902,-4.6795,-4.7133,-4.6811,-4.6657,-4.6536,-4.6503,-4.6406,-4.6406,-4.6749,-4.69,-4.6939,-4.7129,-4.7293,-4.7332,-4.7533,-4.7533,-4.7733,-4.7821,-4.7921,-4.7983,-4.7782,-4.7394,-4.6957,-4.6545,-4.5849,-4.5231,-4.5009,-4.4719,-4.4312,-4.3945,-4.3589,-4.3146,-4.2701,-4.2146,-4.1431,-4.0801,-4.0075,-3.9907,-3.9752,-3.9346,-3.8901,-3.875,-3.873,-3.8809,-3.8926,-3.9121,-3.9219,-3.9258,-3.9355,-3.9434,-3.9609,-3.9824,-3.8184,-3.8555,-3.8574,-3.8574,-3.8574,-3.8745,-3.9436,-4.0524,-4.1453,-4.2321,-4.3192,-4.3537,-4.4059,-4.4503,-4.4865,-4.5352,-4.5739,-4.582,-4.6709,-4.7432,-4.7752,-4.8864,-4.9808,-5.0565,-5.1339,-5.2436,-5.3366,-5.4066,-5.4991,-5.5633,-5.6078,-5.6173,-5.6248,-5.6099,-5.5829,-5.546,-5.509,-5.4794,-5.4421,-5.4047,-5.3798,-5.3195,-5.2921,-5.275,-5.2627,-5.2462,-5.2127,-5.2009,-5.1923,-5.179,-5.1413,-5.1586,-5.1604,-5.1415,-5.1368,-5.1222,-5.0936,-5.0737,-5.0447,-5.0037,-4.9981,-4.9453,-4.8771,-4.8526,-4.8314,-4.8099,-4.7902,-4.773,-4.7582,-4.7361,-4.7277,-4.7491,-4.7731,-4.7832,-4.7958,-4.7996,-4.8033,-4.8096,-4.8096,-4.8146,-4.8171,-4.8259,-4.8335,-4.8259,-4.846,-4.8209,-4.787,-4.7733,-4.7134,-4.6797,-4.6476,-4.6064,-4.5731,-4.5478,-4.4971,-4.4351,-4.3714,-4.3068,-4.2259,-4.1658,-4.1416,-4.0767,-3.9974,-3.9445,-3.9332,-3.9258,-3.9277,-3.9473,-3.9746,-3.9805,-3.9785,-3.9805,-3.9883,-4.0098,-4.0312,-3.8457,-3.8574,-3.8574,-3.8574,-3.8745,-3.9608,-4.0321,-4.1033,-4.216,-4.318,-4.4068,-4.4406,-4.5116,-4.5776,-4.5941,-4.6366,-4.679,-4.7272,-4.815,-4.8864,-4.9415,-5.0277,-5.1131,-5.1901,-5.2588,-5.3513,-5.4361,-5.5158,-5.6004,-5.6725,-5.6849,-5.6798,-5.6746,-5.657,-5.6296,-5.5926,-5.5852,-5.5632,-5.5164,-5.4942,-5.4794,-5.4347,-5.4197,-5.4047,-5.3798,-5.3579,-5.3507,-5.3234,-5.3091,-5.3046,-5.291,-5.3011,-5.2908,-5.2625,-5.2526,-5.1947,-5.174,-5.1497,-5.1172,-5.1005,-5.0955,-5.0897,-5.0448,-4.994,-4.9541,-4.9217,-4.9092,-4.8953,-4.8903,-4.8739,-4.8689,-4.8818,-4.8871,-4.886,-4.8899,-4.8848,-4.8912,-4.8912,-4.8937,-4.9113,-4.9113,-4.9113,-4.9113,-4.9163,-4.9314,-4.9188,-4.9113,-4.9049,-4.876,-4.8321,-4.7945,-4.7478,-4.7184,-4.6834,-4.6412,-4.5818,-4.5232,-4.4609,-4.3779,-4.2794,-4.1933,-4.1197,-4.0425,-3.9991,-3.9782,-3.9687,-3.9707,-3.9941,-4.0215,-4.0293,-4.0293,-4.0312,-4.0391,-4.0605,-4.0781,-3.8418,-3.8574,-3.8574,-3.8891,-3.9439,-4.0538,-4.1366,-4.2099,-4.3077,-4.4112,-4.5268,-4.5799,-4.6463,-4.7246,-4.7432,-4.7832,-4.8547,-4.8706,-4.9415,-5.051,-5.0976,-5.1747,-5.2535,-5.3167,-5.3966,-5.4687,-5.543,-5.6127,-5.6975,-5.74,-5.7625,-5.7399,-5.7223,-5.6872,-5.6522,-5.6296,-5.6146,-5.5999,-5.5852,-5.5632,-5.5485,-5.5263,-5.5041,-5.4967,-5.4645,-5.4496,-5.4397,-5.4047,-5.3822,-5.375,-5.3639,-5.3546,-5.3518,-5.3452,-5.3059,-5.2535,-5.2359,-5.2234,-5.2033,-5.1933,-5.1825,-5.1674,-5.1599,-5.1122,-5.0629,-5.0303,-5.0278,-5.0228,-5.0228,-5.0268,-5.0268,-5.0243,-5.0092,-4.9941,-4.9866,-4.9791,-4.9791,-4.9791,-4.9967,-5.0193,-5.0268,-5.0268,-5.0268,-5.0243,-5.0268,-5.0268,-5.0268,-5.0268,-4.9891,-4.9275,-4.891,-4.8568,-4.8313,-4.8016,-4.7644,-4.7284,-4.6676,-4.5914,-4.492,-4.3867,-4.2696,-4.1751,-4.1131,-4.0577,-4.0156,-4.0137,-4.0137,-4.0371,-4.0605,-4.0703,-4.082,-4.0898,-4.0976,-4.1152,-4.1308,-3.8223,-3.8574,-3.8647,-3.936,-4.0459,-4.1325,-4.2423,-4.3667,-4.4398,-4.5358,-4.6776,-4.7389,-4.8189,-4.8934,-4.9122,-4.9494,-5.0042,-5.0277,-5.0898,-5.2154,-5.2512,-5.312,-5.3672,-5.4419,-5.5086,-5.6004,-5.67,-5.7198,-5.7825,-5.8202,-5.8227,-5.7951,-5.7549,-5.7273,-5.7097,-5.6796,-5.6671,-5.6622,-5.63,-5.6103,-5.5682,-5.5337,-5.5115,-5.5115,-5.4794,-5.4496,-5.4347,-5.4122,-5.3822,-5.3654,-5.3536,-5.3593,-5.3788,-5.379,-5.3368,-5.3061,-5.2904,-5.2754,-5.2678,-5.2628,-5.2477,-5.2302,-5.2151,-5.19,-5.1574,-5.1021,-5.0896,-5.087,-5.082,-5.082,-5.082,-5.0795,-5.0695,-5.0569,-5.0469,-5.0393,-5.0318,-5.0393,-5.0569,-5.077,-5.082,-5.0845,-5.0845,-5.077,-5.0745,-5.1046,-5.1096,-5.1071,-5.0845,-5.0193,-4.9992,-4.9651,-4.9546,-4.9321,-4.9026,-4.8638,-4.8045,-4.7233,-4.6167,-4.4949,-4.3739,-4.2809,-4.1882,-4.1243,-4.0586,-4.0586,-4.0625,-4.0801,-4.0957,-4.1152,-4.1289,-4.1445,-4.1601,-4.1758,-4.1816,-3.8476,-3.8647,-3.8958,-3.9738,-4.1009,-4.1818,-4.3225,-4.503,-4.648,-4.733,-4.7958,-4.8892,-4.9901,-5.0675,-5.0743,-5.1131,-5.1539,-5.1824,-5.2535,-5.3219,-5.3747,-5.4171,-5.4767,-5.541,-5.6079,-5.6675,-5.7399,-5.8326,-5.883,-5.8956,-5.8855,-5.8529,-5.8202,-5.8001,-5.77,-5.7399,-5.7323,-5.7273,-5.7199,-5.6699,-5.6224,-5.6049,-5.5901,-5.5681,-5.5312,-5.4868,-5.4645,-5.4197,-5.3972,-5.3774,-5.3726,-5.3884,-5.4157,-5.3886,-5.3663,-5.3482,-5.3181,-5.303,-5.2861,-5.2861,-5.2735,-5.271,-5.2678,-5.2653,-5.2352,-5.1699,-5.1348,-5.1348,-5.1348,-5.1373,-5.1373,-5.1373,-5.1297,-5.1197,-5.1071,-5.0971,-5.0845,-5.0996,-5.1147,-5.1272,-5.1348,-5.1373,-5.1398,-5.1348,-5.1297,-5.1272,-5.1247,-5.1247,-5.1348,-5.1021,-5.1046,-5.0845,-5.0795,-5.0589,-5.032,-4.9791,-4.9006,-4.8215,-4.7178,-4.5984,-4.4654,-4.3172,-4.1771,-4.1481,-4.1016,-4.0976,-4.0957,-4.1055,-4.123,-4.1523,-4.1699,-4.1836,-4.2168,-4.2383,-4.2383,-3.8242,-3.8627,-3.903,-4.0038,-4.1407,-4.2396,-4.388,-4.5875,-4.7925,-4.8997,-4.9314,-5.0474,-5.1512,-5.216,-5.236,-5.2588,-5.2992,-5.3271,-5.3747,-5.4272,-5.4793,-5.5163,-5.5732,-5.6352,-5.7,-5.7549,-5.8426,-5.9207,-5.9458,-5.9458,-5.9232,-5.9006,-5.8855,-5.8579,-5.8227,-5.8077,-5.7951,-5.7876,-5.7951,-5.7549,-5.6872,-5.6721,-5.642,-5.6124,-5.5705,-5.5337,-5.5115,-5.4645,-5.4421,-5.4421,-5.4546,-5.4475,-5.4571,-5.4505,-5.4165,-5.3783,-5.3432,-5.3181,-5.303,-5.2861,-5.2861,-5.2861,-5.2861,-5.2804,-5.2804,-5.2251,-5.2201,-5.2201,-5.2201,-5.2226,-5.2226,-5.2201,-5.195,-5.1774,-5.1674,-5.1599,-5.1548,-5.1599,-5.1875,-5.2176,-5.2201,-5.2201,-5.2226,-5.2226,-5.2176,-5.2176,-5.2051,-5.195,-5.195,-5.18,-5.185,-5.1825,-5.1649,-5.1464,-5.1017,-5.0416,-4.983,-4.8967,-4.8075,-4.6115,-4.4277,-4.283,-4.1695,-4.1444,-4.125,-4.1289,-4.1289,-4.1406,-4.166,-4.1973,-4.2109,-4.2226,-4.2578,-4.293,-4.291,-3.7943,-3.8681,-3.9162,-4.0298,-4.1891,-4.312,-4.4586,-4.644,-4.8793,-5.022,-5.0783,-5.2092,-5.2965,-5.3302,-5.3672,-5.4047,-5.4347,-5.4347,-5.4719,-5.5188,-5.5584,-5.6079,-5.6626,-5.7125,-5.7825,-5.8503,-5.9182,-5.9357,-5.9483,-5.9483,-5.9458,-5.9382,-5.9131,-5.8805,-5.8654,-5.8453,-5.8252,-5.8328,-5.8303,-5.8152,-5.7775,-5.7374,-5.6846,-5.6323,-5.5877,-5.5632,-5.5485,-5.5263,-5.5041,-5.5115,-5.5164,-5.5163,-5.511,-5.5002,-5.4741,-5.4285,-5.3758,-5.3457,-5.3181,-5.3005,-5.2886,-5.2861,-5.2861,-5.2886,-5.2955,-5.2929,-5.2879,-5.2854,-5.2854,-5.2854,-5.2829,-5.2779,-5.2503,-5.2327,-5.2251,-5.2176,-5.2176,-5.2176,-5.2503,-5.2785,-5.2829,-5.2829,-5.2854,-5.2879,-5.2904,-5.2861,-5.2861,-5.2861,-5.276,-5.2553,-5.2427,-5.2327,-5.2176,-5.1947,-5.1675,-5.1132,-5.0495,-4.9629,-4.848,-4.6085,-4.4016,-4.2916,-4.2069,-4.1504,-4.1406,-4.1621,-4.1738,-4.1855,-4.2148,-4.2422,-4.2519,-4.2637,-4.2969,-4.3262,-4.3379,-3.8321,-3.9123,-3.9898,-4.0947,-4.2343,-4.3784,-4.5404,-4.7224,-4.9336,-5.0764,-5.1666,-5.3123,-5.3975,-5.3672,-5.4122,-5.4421,-5.4645,-5.5065,-5.5683,-5.6179,-5.6476,-5.7025,-5.7575,-5.8127,-5.8755,-5.9257,-5.9608,-5.9508,-5.9659,-5.9583,-5.9483,-5.9458,-5.9458,-5.9307,-5.9307,-5.9106,-5.9006,-5.8981,-5.8956,-5.888,-5.8303,-5.7801,-5.7123,-5.6598,-5.6077,-5.5805,-5.5485,-5.5189,-5.5041,-5.5115,-5.5411,-5.5532,-5.5505,-5.5449,-5.5168,-5.4813,-5.4285,-5.3884,-5.3607,-5.3331,-5.3256,-5.3181,-5.3206,-5.3155,-5.313,-5.3055,-5.303,-5.298,-5.2955,-5.2836,-5.2904,-5.2904,-5.2729,-5.2729,-5.2678,-5.2678,-5.2678,-5.2653,-5.2735,-5.2836,-5.2836,-5.2904,-5.2904,-5.2904,-5.2904,-5.2861,-5.2861,-5.2861,-5.2861,-5.2861,-5.2861,-5.2779,-5.2603,-5.2729,-5.2616,-5.1803,-5.1066,-5.0175,-4.8789,-4.6343,-4.4466,-4.3412,-4.2619,-4.1916,-4.1914,-4.2168,-4.2266,-4.2324,-4.2558,-4.2812,-4.291,-4.3066,-4.3379,-4.3535,-4.3555]},{"header":{"parameterUnit":"m.s-1","parameterCategory":1,"la1":31.0,"la2":29.5877,"lo1":-88.7671,"lo2":-86.6584,"dx":0.0162,"dy":0.0185,"nx":115,"ny":88,"refTime":"2023-02-06T06:00:00:Z","depth":0,"parameterNumber":3,"parameterNumberName":"V-component_of_WINDS"},"data":[0.0,0.0,0.0,0.0,0.0,0.0,0.0,0.0,0.0,0.0,0.0,0.0,0.0,0.0,0.0,0.0,0.0,0.0,0.0,0.0,0.0,0.0,0.0,0.0,0.0,0.0,0.0,0.0,0.0,0.0,0.0,0.0,0.0,0.0,0.0,0.0,0.0,0.0,0.0,0.0,0.0,0.0,0.0,0.0,0.0,0.0,0.0,0.0,0.0,0.0,0.0,0.0,0.0,0.0,0.0,0.0,0.0,0.0,0.0,0.0,0.0,0.0,0.0,0.0,0.0,0.0,0.0,0.0,0.0,0.0,0.0,0.0,0.0,0.0,0.0,0.0,0.0,0.0,0.0,0.0,0.0,0.0,0.0,0.0,0.0,0.0,0.0,0.0,0.0,0.0,0.0,0.0,0.0,0.0,0.0,0.0,0.0,0.0,0.0,0.0,0.0,0.0,0.0,0.0,0.0,0.0,0.0,0.0,0.0,0.0,0.0,0.0,0.0,0.0,0.0,0.0,0.0,0.0,0.0,0.0,0.0,0.0,0.0,0.0,0.0,0.0,0.0,0.0,0.0,0.0,0.0,0.0,0.0,0.0,0.0,0.0,0.0,0.0,0.0,0.0,0.0,0.0,0.0,0.0,0.0,0.0,0.0,0.0,0.0,0.0,0.0,0.0,0.0,0.0,0.0,0.0,0.0,0.0,0.0,0.0,0.0,0.0,0.0,0.0,0.0,0.0,0.0,0.0,0.0,0.0,0.0,0.0,0.0,0.0,0.0,0.0,0.0,0.0,0.0,0.0,0.0,0.0,0.0,0.0,0.0,0.0,0.0,0.0,0.0,0.0,0.0,0.0,0.0,0.0,0.0,0.0,0.0,0.0,0.0,0.0,0.0,0.0,0.0,0.0,0.0,0.0,0.0,0.0,0.0,0.0,0.0,0.0,0.0,0.0,0.0,0.0,0.0,0.0,0.0,0.0,0.0,0.0,0.0,0.0,0.0,0.0,0.0,0.0,0.0,0.0,0.0,0.0,0.0,0.0,0.0,0.0,0.0,0.0,0.0,0.0,0.0,0.0,0.0,0.0,0.0,0.0,0.0,0.0,0.0,0.0,0.0,0.0,0.0,0.0,0.0,0.0,0.0,0.0,0.0,0.0,0.0,0.0,0.0,0.0,0.0,0.0,0.0,0.0,0.0,0.0,0.0,0.0,0.0,0.0,0.0,0.0,0.0,0.0,0.0,0.0,0.0,0.0,0.0,0.0,0.0,0.0,0.0,0.0,0.0,0.0,0.0,0.0,0.0,0.0,0.0,0.0,0.0,0.0,0.0,0.0,0.0,0.0,0.0,0.0,0.0,0.0,0.0,0.0,0.0,0.0,0.0,0.0,0.0,0.0,0.0,0.0,0.0,0.0,0.0,0.0,0.0,0.0,0.0,0.0,0.0,0.0,0.0,0.0,0.0,0.0,0.0,0.0,0.0,0.0,0.0,0.0,0.0,0.0,0.0,0.0,0.0,0.0,0.0,0.0,0.0,0.0,0.0,0.0,0.0,0.0,0.0,0.0,0.0,0.0,0.0,0.0,0.0,0.0,0.0,0.0,0.0,0.0,0.0,0.0,0.0,0.0,0.0,0.0,0.0,0.0,0.0,0.0,0.0,0.0,0.0,0.0,0.0,0.0,0.0,0.0,0.0,0.0,0.0,0.0,0.0,0.0,0.0,0.0,0.0,0.0,0.0,0.0,0.0,0.0,0.0,0.0,0.0,0.0,0.0,0.0,0.0,0.0,0.0,0.0,0.0,0.0,0.0,0.0,0.0,0.0,0.0,0.0,0.0,0.0,0.0,0.0,0.0,0.0,0.0,0.0,0.0,0.0,0.0,0.0,0.0,0.0,0.0,0.0,0.0,0.0,0.0,0.0,0.0,0.0,0.0,0.0,0.0,0.0,0.0,0.0,0.0,0.0,0.0,0.0,0.0,0.0,0.0,0.0,0.0,0.0,0.0,0.0,0.0,0.0,0.0,0.0,0.0,0.0,0.0,0.0,0.0,0.0,0.0,0.0,0.0,0.0,0.0,0.0,0.0,0.0,0.0,0.0,0.0,0.0,0.0,0.0,0.0,0.0,0.0,0.0,0.0,0.0,0.0,0.0,0.0,0.0,0.0,0.0,0.0,0.0,0.0,0.0,0.0,0.0,0.0,0.0,0.0,0.0,0.0,0.0,0.0,0.0,0.0,0.0,0.0,0.0,0.0,0.0,0.0,0.0,0.0,0.0,0.0,0.0,0.0,0.0,0.0,0.0,0.0,0.0,0.0,0.0,0.0,0.0,0.0,0.0,0.0,0.0,0.0,0.0,0.0,0.0,0.0,0.0,0.0,0.0,0.0,0.0,0.0,0.0,0.0,0.0,0.0,0.0,0.0,0.0,0.0,0.0,0.0,0.0,0.0,0.0,0.0,0.0,0.0,0.0,0.0,0.0,0.0,0.0,0.0,0.0,0.0,0.0,0.0,0.0,0.0,0.0,0.0,0.0,0.0,0.0,0.0,0.0,0.0,0.0,0.0,0.0,0.0,0.0,0.0,0.0,0.0,0.0,0.0,0.0,0.0,0.0,0.0,0.0,0.0,0.0,0.0,0.0,0.0,0.0,0.0,0.0,0.0,0.0,0.0,0.0,0.0,0.0,0.0,0.0,0.0,0.0,0.0,0.0,0.0,0.0,0.0,0.0,0.0,0.0,0.0,0.0,0.0,0.0,0.0,0.0,0.0,0.0,0.0,0.0,0.0,0.0,0.0,0.0,0.0,0.0,0.0,0.0,0.0,0.0,0.0,0.0,0.0,0.0,0.0,0.0,0.0,0.0,0.0,0.0,0.0,0.0,0.0,0.0,0.0,0.0,0.0,0.0,0.0,0.0,0.0,0.0,0.0,0.0,0.0,0.0,0.0,0.0,0.0,0.0,0.0,0.0,0.0,0.0,0.0,0.0,0.0,0.0,0.0,0.0,0.0,0.0,0.0,0.0,0.0,0.0,0.0,0.0,0.0,0.0,0.0,0.0,0.0,0.0,0.0,0.0,0.0,0.0,0.0,0.0,0.0,0.0,0.0,0.0,0.0,0.0,0.0,0.0,0.0,0.0,0.0,0.0,0.0,0.0,0.0,0.0,0.0,0.0,0.0,0.0,0.0,0.0,0.0,0.0,0.0,0.0,0.0,0.0,0.0,0.0,0.0,0.0,0.0,0.0,0.0,0.0,0.0,0.0,0.0,0.0,0.0,0.0,0.0,0.0,0.0,0.0,0.0,0.0,0.0,0.0,0.0,0.0,0.0,0.0,0.0,0.0,0.0,0.0,0.0,0.0,0.0,0.0,0.0,0.0,0.0,0.0,0.0,0.0,0.0,0.0,0.0,0.0,0.0,0.0,0.0,0.0,0.0,0.0,0.0,0.0,0.0,0.0,0.0,0.0,0.0,0.0,0.0,0.0,0.0,0.0,0.0,0.0,0.0,0.0,0.0,0.0,0.0,0.0,0.0,0.0,0.0,0.0,0.0,0.0,0.0,0.0,0.0,0.0,0.0,0.0,0.0,0.0,0.0,0.0,0.0,0.0,0.0,0.0,0.0,0.0,0.0,0.0,0.0,0.0,0.0,0.0,0.0,0.0,0.0,0.0,0.0,0.0,0.0,0.0,0.0,0.0,0.0,0.0,0.0,0.0,0.0,0.0,0.0,0.0,0.0,0.0,0.0,0.0,0.0,0.0,0.0,0.0,0.0,0.0,0.0,0.0,0.0,0.0,0.0,0.0,0.0,0.0,0.0,0.0,0.0,0.0,0.0,0.0,0.0,0.0,0.0,0.0,0.0,0.0,0.0,0.0,0.0,0.0,0.0,0.0,0.0,0.0,0.0,0.0,0.0,0.0,0.0,0.0,0.0,0.0,0.0,0.0,0.0,0.0,0.0,0.0,0.0,0.0,0.0,0.0,0.0,0.0,0.0,0.0,0.0,0.0,0.0,0.0,0.0,0.0,0.0,0.0,0.0,0.0,0.0,0.0,0.0,0.0,0.0,0.0,0.0,0.0,0.0,0.0,0.0,0.0,0.0,0.0,0.0,0.0,0.0,0.0,0.0,0.0,0.0,0.0,0.0,0.0,0.0,0.0,0.0,0.0,0.0,0.0,0.0,0.0,0.0,0.0,0.0,0.0,0.0,0.0,0.0,0.0,0.0,0.0,0.0,0.0,0.0,0.0,0.0,0.0,0.0,0.0,0.0,0.0,0.0,0.0,0.0,0.0,3.181,0.0,0.0,0.0,0.0,0.0,0.0,0.0,0.0,0.0,0.0,0.0,0.0,0.0,0.0,0.0,0.0,0.0,0.0,0.0,0.0,0.0,0.0,0.0,0.0,0.0,0.0,0.0,0.0,0.0,0.0,0.0,0.0,0.0,0.0,0.0,0.0,0.0,0.0,0.0,0.0,0.0,0.0,0.0,0.0,0.0,0.0,0.0,0.0,0.0,0.0,0.0,0.0,0.0,0.0,0.0,0.0,0.0,0.0,0.0,0.0,0.0,0.0,0.0,0.0,0.0,0.0,0.0,0.0,0.0,0.0,0.0,0.0,0.0,0.0,0.0,0.0,0.0,0.0,0.0,0.0,0.0,0.0,0.0,0.0,0.0,0.0,0.0,0.0,0.0,0.0,0.0,0.0,0.0,0.0,0.0,0.0,0.0,0.0,0.0,0.0,0.0,0.0,0.0,0.0,0.0,0.0,0.0,0.0,0.0,0.0,3.0717,3.0791,3.125,3.1643,3.1942,0.0,0.0,0.0,0.0,0.0,0.0,0.0,0.0,0.0,0.0,0.0,0.0,0.0,0.0,0.0,0.0,0.0,0.0,0.0,0.0,0.0,0.0,0.0,0.0,0.0,0.0,0.0,0.0,0.0,0.0,0.0,0.0,0.0,0.0,0.0,0.0,0.0,0.0,0.0,0.0,0.0,0.0,0.0,0.0,0.0,0.0,0.0,0.0,0.0,0.0,0.0,0.0,0.0,0.0,0.0,0.0,0.0,0.0,0.0,0.0,0.0,0.0,0.0,0.0,0.0,0.0,0.0,0.0,0.0,0.0,0.0,0.0,0.0,0.0,0.0,0.0,0.0,0.0,0.0,0.0,0.0,0.0,0.0,0.0,0.0,0.0,0.0,0.0,0.0,0.0,0.0,0.0,0.0,0.0,0.0,0.0,0.0,0.0,0.0,0.0,0.0,0.0,0.0,0.0,0.0,0.0,0.0,0.0,0.0,0.0,0.0,0.0,3.1714,3.2199,3.2458,0.0,0.0,0.0,0.0,0.0,0.0,0.0,0.0,0.0,0.0,0.0,0.0,0.0,0.0,0.0,0.0,0.0,0.0,0.0,0.0,0.0,0.0,0.0,0.0,0.0,0.0,0.0,0.0,0.0,0.0,0.0,0.0,0.0,0.0,0.0,0.0,0.0,0.0,0.0,0.0,0.0,0.0,0.0,0.0,0.0,0.0,0.0,0.0,0.0,0.0,0.0,0.0,0.0,0.0,0.0,0.0,0.0,0.0,0.0,0.0,0.0,0.0,0.0,0.0,0.0,0.0,0.0,0.0,0.0,0.0,0.0,0.0,0.0,0.0,0.0,0.0,0.0,0.0,0.0,0.0,0.0,0.0,0.0,0.0,0.0,0.0,0.0,0.0,0.0,0.0,0.0,0.0,0.0,0.0,0.0,0.0,0.0,0.0,0.0,0.0,0.0,0.0,0.0,0.0,0.0,0.0,0.0,0.0,0.0,0.0,3.1118,3.1949,3.2016,0.0,3.403,0.0,0.0,0.0,0.0,0.0,0.0,0.0,0.0,0.0,0.0,0.0,0.0,0.0,0.0,0.0,0.0,0.0,0.0,0.0,0.0,0.0,0.0,0.0,0.0,0.0,0.0,0.0,0.0,0.0,0.0,0.0,0.0,0.0,0.0,0.0,0.0,0.0,0.0,0.0,0.0,0.0,0.0,0.0,0.0,0.0,0.0,0.0,0.0,0.0,0.0,0.0,0.0,0.0,0.0,0.0,0.0,0.0,0.0,0.0,0.0,0.0,0.0,0.0,0.0,0.0,0.0,0.0,0.0,0.0,0.0,0.0,0.0,0.0,0.0,0.0,0.0,0.0,0.0,0.0,0.0,0.0,0.0,0.0,0.0,0.0,0.0,0.0,0.0,0.0,0.0,0.0,0.0,0.0,0.0,0.0,0.0,0.0,0.0,0.0,0.0,0.0,0.0,0.0,0.0,0.0,0.0,0.0,0.0,0.0,0.0,3.1161,3.2107,3.2955,3.3929,0.0,0.0,0.0,0.0,0.0,0.0,0.0,0.0,0.0,0.0,0.0,0.0,0.0,0.0,0.0,0.0,0.0,0.0,0.0,0.0,0.0,0.0,0.0,0.0,0.0,0.0,0.0,0.0,0.0,0.0,0.0,0.0,0.0,0.0,0.0,0.0,0.0,0.0,0.0,0.0,0.0,0.0,0.0,0.0,0.0,0.0,0.0,0.0,0.0,0.0,0.0,0.0,0.0,0.0,0.0,0.0,0.0,0.0,0.0,0.0,0.0,0.0,0.0,0.0,0.0,0.0,0.0,0.0,0.0,0.0,0.0,0.0,0.0,0.0,0.0,0.0,0.0,0.0,0.0,0.0,0.0,0.0,0.0,0.0,0.0,0.0,0.0,0.0,0.0,0.0,0.0,0.0,0.0,0.0,0.0,0.0,0.0,0.0,0.0,0.0,0.0,0.0,0.0,0.0,0.0,0.0,0.0,0.0,0.0,0.0,3.0685,3.1138,3.2069,3.3326,3.4328,3.488,0.0,0.0,0.0,0.0,0.0,0.0,0.0,0.0,0.0,0.0,0.0,0.0,0.0,0.0,0.0,0.0,0.0,0.0,0.0,0.0,0.0,0.0,0.0,0.0,0.0,0.0,0.0,0.0,0.0,0.0,0.0,0.0,0.0,0.0,0.0,0.0,0.0,0.0,0.0,0.0,0.0,0.0,0.0,0.0,0.0,0.0,0.0,0.0,0.0,0.0,0.0,0.0,0.0,0.0,0.0,0.0,0.0,0.0,0.0,0.0,0.0,0.0,0.0,0.0,0.0,0.0,0.0,0.0,0.0,0.0,0.0,0.0,0.0,0.0,0.0,0.0,0.0,0.0,0.0,0.0,0.0,0.0,0.0,0.0,0.0,0.0,0.0,0.0,0.0,0.0,0.0,0.0,0.0,0.0,0.0,0.0,0.0,0.0,0.0,0.0,0.0,0.0,0.0,0.0,0.0,0.0,0.0,0.0,3.0586,3.0664,3.1125,3.1965,3.2749,3.3142,0.0,0.0,0.0,0.0,0.0,0.0,0.0,0.0,0.0,0.0,0.0,0.0,0.0,0.0,0.0,0.0,0.0,0.0,0.0,0.0,0.0,0.0,0.0,0.0,0.0,0.0,0.0,0.0,0.0,0.0,0.0,0.0,0.0,0.0,0.0,0.0,0.0,0.0,0.0,0.0,0.0,0.0,0.0,0.0,0.0,0.0,0.0,0.0,0.0,0.0,0.0,0.0,0.0,0.0,0.0,0.0,0.0,0.0,0.0,0.0,0.0,0.0,0.0,0.0,0.0,0.0,0.0,0.0,0.0,0.0,0.0,0.0,0.0,0.0,0.0,0.0,0.0,0.0,0.0,0.0,0.0,0.0,0.0,0.0,0.0,0.0,0.0,0.0,0.0,0.0,0.0,0.0,0.0,0.0,0.0,0.0,0.0,0.0,0.0,0.0,0.0,0.0,0.0,0.0,0.0,0.0,0.0,0.0,0.0,3.0611,3.1242,3.1718,3.2002,3.2764,3.3122,0.0,0.0,0.0,0.0,0.0,0.0,0.0,0.0,0.0,0.0,0.0,0.0,0.0,0.0,0.0,0.0,0.0,0.0,0.0,0.0,0.0,0.0,0.0,0.0,0.0,0.0,0.0,0.0,0.0,0.0,0.0,0.0,0.0,0.0,0.0,0.0,0.0,0.0,0.0,0.0,0.0,0.0,0.0,0.0,0.0,0.0,0.0,0.0,0.0,0.0,0.0,0.0,0.0,0.0,0.0,0.0,0.0,0.0,0.0,0.0,0.0,0.0,0.0,0.0,0.0,0.0,0.0,0.0,0.0,0.0,0.0,0.0,0.0,0.0,0.0,0.0,0.0,0.0,0.0,0.0,0.0,0.0,0.0,0.0,0.0,0.0,0.0,0.0,0.0,0.0,0.0,0.0,0.0,0.0,0.0,0.0,0.0,0.0,0.0,0.0,0.0,0.0,0.0,0.0,0.0,0.0,0.0,0.0,0.0,3.0675,0.0,3.2062,3.2006,3.2502,3.2753,0.0,0.0,0.0,0.0,0.0,0.0,0.0,0.0,0.0,0.0,0.0,0.0,0.0,0.0,0.0,0.0,0.0,0.0,0.0,0.0,0.0,0.0,0.0,0.0,0.0,0.0,0.0,0.0,0.0,0.0,0.0,0.0,0.0,0.0,0.0,0.0,0.0,0.0,0.0,0.0,0.0,0.0,0.0,0.0,0.0,0.0,0.0,0.0,0.0,0.0,0.0,0.0,0.0,0.0,0.0,0.0,0.0,0.0,0.0,0.0,0.0,0.0,0.0,0.0,0.0,0.0,0.0,0.0,0.0,0.0,0.0,0.0,0.0,0.0,0.0,0.0,0.0,0.0,0.0,0.0,0.0,0.0,0.0,0.0,0.0,0.0,0.0,0.0,0.0,0.0,0.0,0.0,0.0,0.0,0.0,0.0,0.0,0.0,0.0,0.0,0.0,0.0,0.0,0.0,0.0,0.0,0.0,0.0,3.0661,3.0759,3.1674,3.2141,3.201,3.2004,3.1943,0.0,0.0,0.0,0.0,0.0,0.0,0.0,0.0,0.0,0.0,0.0,0.0,0.0,0.0,0.0,0.0,0.0,0.0,0.0,0.0,0.0,0.0,0.0,0.0,0.0,0.0,0.0,0.0,0.0,0.0,0.0,0.0,0.0,0.0,0.0,0.0,0.0,0.0,0.0,0.0,0.0,0.0,0.0,0.0,0.0,0.0,0.0,0.0,0.0,0.0,0.0,0.0,0.0,0.0,0.0,0.0,0.0,0.0,0.0,0.0,0.0,0.0,0.0,0.0,0.0,0.0,0.0,0.0,0.0,0.0,0.0,0.0,0.0,0.0,0.0,0.0,0.0,0.0,0.0,0.0,0.0,0.0,0.0,0.0,0.0,0.0,0.0,0.0,0.0,0.0,0.0,0.0,0.0,0.0,0.0,0.0,0.0,0.0,0.0,0.0,0.0,0.0,0.0,0.0,0.0,0.0,0.0,0.0,0.0,3.1682,3.2537,3.2961,3.292,3.284,3.2787,0.0,0.0,0.0,0.0,0.0,0.0,0.0,0.0,0.0,0.0,0.0,0.0,0.0,0.0,0.0,0.0,0.0,0.0,0.0,0.0,0.0,0.0,0.0,0.0,0.0,0.0,0.0,0.0,0.0,0.0,0.0,0.0,0.0,0.0,0.0,0.0,0.0,0.0,0.0,0.0,0.0,0.0,0.0,0.0,0.0,0.0,0.0,0.0,0.0,0.0,0.0,0.0,0.0,0.0,0.0,0.0,0.0,0.0,0.0,0.0,0.0,0.0,0.0,0.0,0.0,0.0,0.0,0.0,0.0,0.0,0.0,0.0,0.0,0.0,0.0,0.0,0.0,0.0,0.0,0.0,0.0,0.0,0.0,0.0,0.0,0.0,0.0,0.0,0.0,0.0,0.0,0.0,0.0,0.0,0.0,0.0,0.0,0.0,0.0,0.0,0.0,0.0,0.0,0.0,0.0,0.0,0.0,0.0,0.0,3.3585,3.4062,3.4323,3.4283,3.4212,3.4132,3.4071,0.0,0.0,0.0,0.0,0.0,0.0,0.0,0.0,0.0,0.0,0.0,0.0,0.0,0.0,0.0,0.0,0.0,0.0,0.0,0.0,0.0,0.0,0.0,0.0,0.0,0.0,0.0,0.0,0.0,0.0,0.0,0.0,0.0,0.0,0.0,0.0,0.0,0.0,0.0,0.0,0.0,0.0,0.0,0.0,0.0,0.0,0.0,0.0,0.0,0.0,0.0,0.0,0.0,0.0,0.0,0.0,0.0,0.0,0.0,0.0,0.0,0.0,0.0,0.0,0.0,0.0,0.0,0.0,0.0,0.0,0.0,0.0,0.0,0.0,0.0,0.0,0.0,0.0,0.0,0.0,0.0,0.0,0.0,0.0,0.0,0.0,0.0,0.0,0.0,0.0,0.0,0.0,0.0,0.0,0.0,0.0,0.0,0.0,0.0,0.0,0.0,0.0,0.0,0.0,0.0,0.0,0.0,0.0,3.621,3.6243,3.6184,3.6021,3.6044,3.5943,0.0,0.0,0.0,0.0,0.0,0.0,0.0,0.0,0.0,0.0,0.0,0.0,0.0,0.0,0.0,0.0,0.0,0.0,0.0,0.0,0.0,0.0,0.0,0.0,0.0,0.0,0.0,0.0,0.0,0.0,0.0,0.0,0.0,0.0,0.0,0.0,0.0,0.0,0.0,0.0,0.0,0.0,0.0,0.0,0.0,0.0,0.0,0.0,0.0,0.0,0.0,0.0,0.0,0.0,0.0,0.0,0.0,0.0,0.0,0.0,0.0,0.0,0.0,0.0,0.0,0.0,0.0,0.0,0.0,0.0,0.0,0.0,0.0,0.0,0.0,0.0,0.0,0.0,0.0,0.0,0.0,0.0,0.0,0.0,0.0,0.0,0.0,0.0,0.0,0.0,0.0,0.0,0.0,0.0,0.0,0.0,0.0,0.0,0.0,0.0,0.0,0.0,0.0,0.0,0.0,0.0,0.0,0.0,0.0,3.8777,3.9989,3.9725,3.7918,3.8315,3.8024,0.0,0.0,0.0,0.0,0.0,0.0,0.0,0.0,0.0,0.0,0.0,0.0,0.0,0.0,0.0,0.0,0.0,0.0,0.0,0.0,0.0,0.0,0.0,0.0,0.0,0.0,0.0,0.0,0.0,0.0,0.0,0.0,0.0,0.0,0.0,0.0,0.0,0.0,0.0,0.0,0.0,0.0,0.0,0.0,0.0,0.0,0.0,0.0,0.0,0.0,0.0,0.0,0.0,0.0,0.0,0.0,0.0,0.0,0.0,0.0,0.0,0.0,0.0,0.0,0.0,0.0,0.0,0.0,0.0,0.0,0.0,0.0,0.0,0.0,0.0,0.0,0.0,0.0,0.0,0.0,0.0,0.0,0.0,0.0,0.0,0.0,0.0,0.0,0.0,0.0,0.0,0.0,0.0,0.0,0.0,0.0,0.0,0.0,0.0,0.0,0.0,0.0,0.0,0.0,0.0,0.0,0.0,0.0,3.9132,4.0845,4.2812,4.2969,4.1171,4.0464,3.9742,0.0,0.0,0.0,0.0,0.0,0.0,0.0,0.0,0.0,0.0,0.0,0.0,0.0,0.0,0.0,0.0,0.0,0.0,0.0,0.0,0.0,0.0,0.0,0.0,0.0,0.0,0.0,0.0,0.0,0.0,0.0,0.0,0.0,0.0,0.0,0.0,0.0,0.0,0.0,0.0,0.0,0.0,0.0,0.0,0.0,0.0,0.0,0.0,0.0,0.0,0.0,0.0,0.0,0.0,0.0,0.0,0.0,0.0,0.0,0.0,0.0,0.0,0.0,0.0,0.0,0.0,0.0,0.0,0.0,0.0,0.0,0.0,0.0,0.0,0.0,0.0,0.0,0.0,0.0,0.0,0.0,0.0,0.0,0.0,0.0,0.0,0.0,0.0,0.0,0.0,0.0,0.0,0.0,0.0,0.0,0.0,0.0,0.0,0.0,0.0,0.0,0.0,0.0,0.0,0.0,0.0,0.0,0.0,4.0935,4.2641,4.4914,4.5802,4.5087,4.2728,4.1271,0.0,0.0,0.0,0.0,0.0,0.0,0.0,0.0,0.0,0.0,0.0,0.0,0.0,0.0,0.0,0.0,0.0,0.0,0.0,0.0,0.0,0.0,0.0,0.0,0.0,0.0,0.0,0.0,0.0,0.0,0.0,0.0,0.0,0.0,0.0,0.0,0.0,0.0,0.0,0.0,0.0,0.0,0.0,0.0,0.0,0.0,0.0,0.0,0.0,0.0,0.0,0.0,0.0,0.0,0.0,0.0,0.0,0.0,0.0,0.0,0.0,0.0,0.0,0.0,0.0,0.0,0.0,0.0,0.0,0.0,0.0,0.0,0.0,0.0,0.0,0.0,0.0,0.0,0.0,0.0,0.0,0.0,0.0,0.0,0.0,0.0,0.0,0.0,0.0,0.0,0.0,0.0,0.0,0.0,0.0,0.0,0.0,0.0,0.0,0.0,0.0,0.0,0.0,0.0,0.0,0.0,0.0,0.0,4.2867,4.5157,4.6346,4.7171,4.7663,4.5886,4.3685,0.0,0.0,0.0,0.0,0.0,0.0,0.0,0.0,0.0,0.0,0.0,0.0,0.0,0.0,0.0,0.0,0.0,0.0,0.0,0.0,0.0,0.0,0.0,0.0,0.0,0.0,0.0,0.0,0.0,0.0,0.0,0.0,0.0,0.0,0.0,0.0,0.0,0.0,0.0,0.0,0.0,0.0,0.0,0.0,0.0,0.0,0.0,0.0,3.1608,0.0,0.0,0.0,0.0,0.0,0.0,0.0,0.0,0.0,0.0,0.0,0.0,0.0,0.0,0.0,0.0,0.0,0.0,0.0,0.0,0.0,0.0,0.0,0.0,0.0,0.0,0.0,0.0,0.0,0.0,0.0,0.0,0.0,0.0,0.0,0.0,0.0,0.0,0.0,0.0,0.0,0.0,0.0,0.0,0.0,0.0,0.0,0.0,0.0,0.0,0.0,0.0,0.0,0.0,0.0,0.0,0.0,0.0,0.0,4.3618,4.6421,4.7327,4.7973,4.8399,4.766,4.5828,0.0,0.0,0.0,0.0,0.0,0.0,0.0,0.0,0.0,0.0,0.0,0.0,0.0,0.0,0.0,0.0,0.0,0.0,0.0,0.0,0.0,0.0,0.0,0.0,0.0,0.0,0.0,0.0,0.0,0.0,0.0,0.0,0.0,0.0,0.0,0.0,0.0,0.0,0.0,0.0,0.0,0.0,0.0,0.0,0.0,0.0,0.0,0.0,0.0,0.0,0.0,0.0,0.0,0.0,0.0,0.0,0.0,0.0,0.0,0.0,0.0,0.0,0.0,0.0,0.0,0.0,0.0,0.0,0.0,0.0,0.0,0.0,0.0,0.0,0.0,0.0,0.0,0.0,0.0,0.0,0.0,0.0,0.0,0.0,0.0,0.0,0.0,0.0,0.0,0.0,0.0,0.0,0.0,0.0,0.0,0.0,0.0,0.0,0.0,0.0,0.0,0.0,0.0,0.0,0.0,0.0,0.0,4.1664,4.4088,4.7143,4.815,4.859,4.8597,4.858,4.7427,4.4896,0.0,0.0,0.0,0.0,0.0,0.0,0.0,0.0,0.0,0.0,0.0,0.0,0.0,0.0,0.0,0.0,0.0,0.0,0.0,0.0,0.0,0.0,0.0,0.0,0.0,0.0,0.0,0.0,0.0,0.0,0.0,0.0,0.0,0.0,0.0,0.0,0.0,0.0,2.9843,3.1319,0.0,0.0,0.0,0.0,0.0,0.0,0.0,0.0,3.3529,0.0,0.0,0.0,0.0,0.0,0.0,0.0,0.0,0.0,0.0,0.0,0.0,0.0,0.0,0.0,0.0,0.0,0.0,0.0,0.0,0.0,0.0,0.0,0.0,0.0,0.0,0.0,0.0,0.0,0.0,0.0,0.0,0.0,0.0,0.0,0.0,0.0,0.0,0.0,0.0,0.0,0.0,0.0,0.0,0.0,0.0,0.0,0.0,0.0,0.0,0.0,0.0,0.0,0.0,0.0,0.0,4.0772,4.3059,4.5466,4.8029,4.8964,4.9413,4.9405,4.8877,4.7432,4.495,0.0,0.0,0.0,0.0,0.0,0.0,0.0,0.0,0.0,0.0,0.0,0.0,0.0,0.0,0.0,0.0,0.0,0.0,0.0,0.0,0.0,0.0,0.0,0.0,0.0,0.0,0.0,0.0,0.0,0.0,0.0,0.0,0.0,0.0,0.0,0.0,0.0,0.0,0.0,3.2566,3.3251,0.0,0.0,0.0,0.0,0.0,0.0,0.0,0.0,3.4694,0.0,0.0,0.0,0.0,0.0,0.0,0.0,0.0,0.0,0.0,0.0,0.0,0.0,0.0,0.0,0.0,0.0,0.0,0.0,0.0,0.0,0.0,0.0,0.0,0.0,0.0,0.0,0.0,0.0,0.0,0.0,0.0,0.0,0.0,0.0,0.0,0.0,0.0,0.0,0.0,0.0,0.0,0.0,0.0,0.0,0.0,0.0,0.0,0.0,0.0,0.0,0.0,0.0,0.0,0.0,4.1548,4.3563,4.5775,4.8188,4.9117,4.9389,4.8964,4.8289,4.6776,0.0,0.0,0.0,0.0,0.0,0.0,0.0,0.0,0.0,0.0,0.0,0.0,0.0,0.0,0.0,0.0,0.0,0.0,0.0,0.0,0.0,0.0,0.0,0.0,0.0,0.0,0.0,0.0,0.0,0.0,0.0,0.0,0.0,0.0,0.0,0.0,0.0,0.0,0.0,0.0,3.4487,3.5064,3.5937,0.0,0.0,0.0,0.0,0.0,0.0,3.6621,3.6639,0.0,0.0,0.0,0.0,0.0,0.0,0.0,0.0,0.0,0.0,0.0,0.0,0.0,0.0,0.0,0.0,0.0,0.0,0.0,0.0,0.0,0.0,0.0,0.0,0.0,0.0,0.0,0.0,0.0,0.0,0.0,0.0,0.0,0.0,0.0,0.0,0.0,0.0,0.0,0.0,0.0,0.0,0.0,0.0,0.0,0.0,0.0,0.0,0.0,0.0,0.0,0.0,0.0,0.0,0.0,4.2083,4.4066,4.6097,4.8129,4.9114,4.9172,4.8408,4.7495,4.5944,0.0,0.0,0.0,0.0,0.0,0.0,0.0,0.0,0.0,0.0,0.0,0.0,0.0,0.0,0.0,0.0,0.0,0.0,0.0,0.0,0.0,0.0,0.0,0.0,0.0,0.0,0.0,0.0,0.0,0.0,0.0,0.0,0.0,0.0,0.0,0.0,0.0,0.0,0.0,0.0,0.0,3.7263,3.8577,3.8917,0.0,0.0,0.0,0.0,3.9017,3.8881,0.0,0.0,0.0,0.0,0.0,0.0,0.0,0.0,0.0,0.0,0.0,0.0,0.0,0.0,0.0,0.0,0.0,0.0,0.0,0.0,0.0,0.0,0.0,0.0,0.0,0.0,0.0,0.0,0.0,0.0,0.0,0.0,0.0,0.0,0.0,0.0,0.0,0.0,0.0,0.0,0.0,0.0,0.0,0.0,0.0,0.0,0.0,0.0,0.0,0.0,0.0,0.0,0.0,0.0,0.0,0.0,4.2133,4.5167,4.7193,4.8158,4.9053,4.9136,4.8322,4.6854,4.5265,0.0,0.0,0.0,0.0,0.0,0.0,0.0,0.0,0.0,0.0,0.0,0.0,0.0,0.0,0.0,0.0,0.0,0.0,0.0,0.0,0.0,0.0,0.0,0.0,0.0,0.0,0.0,0.0,0.0,0.0,0.0,0.0,0.0,0.0,0.0,0.0,0.0,0.0,0.0,0.0,0.0,3.9452,3.9609,4.0309,4.0811,0.0,0.0,4.0811,4.0818,4.0155,0.0,0.0,0.0,0.0,0.0,0.0,0.0,0.0,0.0,0.0,0.0,0.0,0.0,0.0,0.0,0.0,0.0,0.0,0.0,0.0,0.0,0.0,0.0,0.0,0.0,0.0,0.0,0.0,0.0,0.0,0.0,0.0,0.0,0.0,0.0,0.0,0.0,0.0,0.0,0.0,0.0,0.0,0.0,0.0,0.0,0.0,0.0,0.0,0.0,0.0,0.0,0.0,0.0,0.0,0.0,4.1106,4.275,4.5511,4.7358,4.8114,4.9026,4.9118,4.8314,4.626,4.4633,0.0,0.0,0.0,0.0,0.0,0.0,0.0,0.0,0.0,0.0,0.0,0.0,0.0,0.0,0.0,0.0,0.0,0.0,0.0,0.0,0.0,0.0,0.0,0.0,0.0,0.0,0.0,0.0,0.0,0.0,0.0,0.0,0.0,0.0,0.0,0.0,0.0,0.0,0.0,0.0,0.0,0.0,4.2432,4.2995,0.0,0.0,0.0,4.328,4.324,0.0,0.0,0.0,0.0,0.0,0.0,0.0,0.0,0.0,0.0,0.0,0.0,0.0,0.0,0.0,0.0,0.0,0.0,0.0,0.0,0.0,0.0,0.0,0.0,0.0,0.0,0.0,0.0,0.0,0.0,0.0,0.0,0.0,0.0,0.0,0.0,0.0,0.0,0.0,0.0,0.0,0.0,0.0,0.0,0.0,0.0,0.0,0.0,0.0,0.0,0.0,0.0,0.0,0.0,0.0,0.0,0.0,4.3849,4.6073,4.7631,4.8394,4.9085,4.9101,4.8298,4.6085,0.0,0.0,0.0,0.0,0.0,0.0,0.0,0.0,0.0,0.0,0.0,0.0,0.0,0.0,0.0,0.0,0.0,0.0,0.0,0.0,0.0,0.0,0.0,0.0,0.0,0.0,0.0,2.8946,0.0,0.0,0.0,0.0,0.0,0.0,0.0,0.0,0.0,0.0,0.0,0.0,0.0,0.0,4.2973,4.5102,4.5806,4.6301,0.0,0.0,4.6056,4.5861,4.4957,4.3821,0.0,0.0,0.0,0.0,0.0,0.0,0.0,0.0,0.0,0.0,0.0,0.0,0.0,0.0,0.0,0.0,0.0,0.0,0.0,0.0,0.0,0.0,0.0,0.0,0.0,0.0,0.0,0.0,0.0,0.0,0.0,0.0,0.0,0.0,0.0,0.0,0.0,0.0,0.0,0.0,0.0,0.0,0.0,0.0,0.0,0.0,0.0,0.0,0.0,0.0,0.0,0.0,0.0,0.0,0.0,4.558,4.7268,4.8478,4.9288,4.9356,4.9056,4.8296,4.6607,4.5009,0.0,0.0,0.0,0.0,0.0,0.0,0.0,0.0,0.0,0.0,0.0,0.0,0.0,0.0,0.0,0.0,0.0,0.0,0.0,0.0,0.0,0.0,0.0,0.0,0.0,0.0,0.0,0.0,0.0,0.0,0.0,0.0,0.0,0.0,0.0,0.0,0.0,0.0,0.0,0.0,0.0,4.5821,4.6797,4.8394,4.9225,0.0,0.0,4.9265,4.8452,4.693,4.5802,4.5685,0.0,0.0,0.0,0.0,0.0,0.0,0.0,0.0,0.0,0.0,0.0,0.0,0.0,0.0,0.0,0.0,0.0,0.0,0.0,0.0,0.0,0.0,0.0,0.0,0.0,0.0,0.0,0.0,0.0,0.0,0.0,0.0,0.0,0.0,0.0,0.0,0.0,0.0,0.0,0.0,0.0,0.0,0.0,0.0,0.0,0.0,0.0,0.0,0.0,0.0,0.0,0.0,0.0,4.3807,4.5735,4.7311,4.8566,4.9356,4.9394,4.9056,4.8334,4.6654,4.5047,0.0,0.0,0.0,0.0,0.0,0.0,0.0,0.0,0.0,0.0,0.0,0.0,0.0,0.0,0.0,0.0,0.0,0.0,0.0,0.0,0.0,0.0,0.0,0.0,0.0,0.0,0.0,0.0,3.4088,3.5142,3.5999,0.0,0.0,0.0,0.0,0.0,0.0,0.0,0.0,0.0,0.0,4.6287,4.87,4.9732,0.0,0.0,5.0759,5.0216,4.9928,4.8456,4.6991,4.597,4.5279,0.0,0.0,0.0,0.0,0.0,0.0,0.0,0.0,0.0,0.0,0.0,0.0,0.0,0.0,0.0,0.0,0.0,0.0,0.0,0.0,0.0,0.0,0.0,0.0,0.0,0.0,0.0,0.0,0.0,0.0,0.0,0.0,0.0,0.0,0.0,0.0,0.0,0.0,0.0,0.0,0.0,0.0,0.0,0.0,0.0,0.0,0.0,0.0,0.0,0.0,0.0,0.0,4.4568,4.6428,4.7545,4.8625,4.974,4.9779,4.9432,4.8656,4.7287,4.5793,0.0,0.0,0.0,0.0,0.0,0.0,0.0,0.0,0.0,0.0,0.0,0.0,0.0,0.0,0.0,0.0,0.0,0.0,0.0,0.0,0.0,0.0,0.0,0.0,0.0,0.0,0.0,0.0,3.5814,3.685,3.8276,0.0,0.0,0.0,0.0,0.0,0.0,0.0,0.0,0.0,0.0,4.7155,4.9947,5.0715,5.1331,5.2602,5.2017,5.138,5.1191,4.9798,4.8326,4.7169,0.0,0.0,0.0,0.0,0.0,0.0,0.0,0.0,0.0,0.0,0.0,0.0,0.0,0.0,0.0,0.0,0.0,0.0,0.0,0.0,0.0,0.0,0.0,0.0,0.0,0.0,0.0,0.0,0.0,0.0,0.0,0.0,0.0,0.0,0.0,0.0,0.0,0.0,0.0,0.0,0.0,0.0,0.0,0.0,0.0,0.0,0.0,0.0,0.0,0.0,0.0,0.0,0.0,4.5696,4.8081,4.8105,4.8933,5.0596,5.0664,5.0269,4.9468,4.866,4.7465,4.5834,0.0,0.0,0.0,0.0,0.0,0.0,0.0,0.0,0.0,0.0,0.0,0.0,0.0,0.0,0.0,0.0,0.0,0.0,0.0,0.0,0.0,0.0,0.0,0.0,0.0,0.0,3.6696,3.7226,3.8175,0.0,0.0,0.0,0.0,0.0,0.0,0.0,0.0,0.0,0.0,4.707,4.8708,5.0365,5.1435,5.2015,5.2084,5.2821,5.311,5.2261,5.0938,4.9973,0.0,0.0,0.0,0.0,0.0,0.0,0.0,0.0,0.0,0.0,0.0,0.0,0.0,0.0,0.0,0.0,0.0,0.0,0.0,0.0,0.0,0.0,0.0,0.0,0.0,0.0,0.0,4.8385,4.8336,0.0,0.0,0.0,0.0,0.0,0.0,0.0,0.0,0.0,0.0,0.0,4.7933,4.8058,0.0,0.0,0.0,0.0,0.0,0.0,0.0,0.0,0.0,0.0,0.0,0.0,4.6249,4.8111,4.872,4.951,5.0625,5.0673,5.025,4.9481,4.9171,4.8009,4.588,0.0,0.0,0.0,0.0,0.0,0.0,0.0,0.0,0.0,0.0,0.0,0.0,0.0,0.0,0.0,0.0,0.0,0.0,0.0,0.0,0.0,0.0,0.0,0.0,0.0,3.8615,0.0,0.0,0.0,0.0,0.0,0.0,0.0,0.0,0.0,0.0,0.0,4.4999,4.6367,4.7512,4.8824,5.049,5.1435,5.2159,0.0,0.0,0.0,0.0,0.0,0.0,0.0,0.0,0.0,0.0,0.0,0.0,0.0,0.0,5.0913,4.8985,4.869,4.8913,4.949,0.0,0.0,0.0,0.0,0.0,0.0,0.0,0.0,0.0,0.0,0.0,0.0,0.0,0.0,0.0,0.0,4.9383,0.0,0.0,0.0,0.0,0.0,0.0,0.0,0.0,4.8831,4.9134,4.9384,4.9492,4.9581,0.0,4.95,4.8514,0.0,0.0,0.0,0.0,0.0,0.0,0.0,0.0,4.6894,4.85,4.9356,5.0066,5.0614,5.0821,5.057,4.9757,4.945,4.8174,4.5772,4.4691,4.3349,0.0,0.0,0.0,0.0,0.0,0.0,0.0,0.0,0.0,0.0,0.0,0.0,0.0,0.0,0.0,0.0,0.0,0.0,0.0,0.0,0.0,0.0,0.0,4.0355,0.0,0.0,0.0,0.0,0.0,0.0,0.0,0.0,0.0,4.4163,4.4948,4.5892,4.6948,4.7963,4.9128,5.0545,0.0,0.0,0.0,0.0,0.0,0.0,0.0,5.2233,5.1952,5.1984,5.2295,5.2997,5.4231,5.5317,5.586,0.0,0.0,5.2158,5.1751,5.2145,5.2921,5.3187,5.364,5.4848,5.5538,5.5998,0.0,0.0,0.0,0.0,0.0,0.0,0.0,0.0,5.2556,5.2779,0.0,5.1764,0.0,0.0,0.0,0.0,0.0,0.0,0.0,0.0,5.0785,5.1609,5.2399,5.2413,5.2523,5.2679,5.1915,5.1209,5.0361,4.7477,0.0,0.0,0.0,0.0,0.0,0.0,4.7664,4.9224,5.0057,5.0566,5.0615,5.1239,5.1205,5.039,4.9537,4.8033,4.5763,4.5618,4.4816,4.3243,4.3173,0.0,0.0,0.0,0.0,0.0,0.0,0.0,0.0,0.0,0.0,0.0,0.0,0.0,0.0,0.0,0.0,0.0,0.0,0.0,0.0,4.1694,0.0,0.0,0.0,0.0,0.0,0.0,0.0,0.0,0.0,0.0,4.5199,4.632,4.7196,4.7232,0.0,0.0,0.0,0.0,5.1066,5.2727,5.3032,5.3457,5.4496,5.4168,5.3891,5.4195,0.0,0.0,5.711,5.8078,5.8598,5.8635,5.8739,5.801,5.5303,5.4909,5.517,5.5965,5.6277,5.6981,5.8553,5.9039,5.9359,5.4069,0.0,0.0,0.0,0.0,5.2984,5.3453,5.3971,5.4022,5.4063,5.4034,5.3717,0.0,0.0,0.0,0.0,0.0,0.0,5.145,5.2177,5.2403,5.2983,5.3752,5.3779,5.3572,5.3141,5.3002,5.2558,5.1802,5.0364,4.8854,4.7326,0.0,0.0,0.0,0.0,4.8925,4.9973,5.0776,5.1503,5.2126,5.1636,5.0989,5.0139,4.9289,4.855,4.7963,4.7384,4.6327,4.4777,4.47,0.0,0.0,0.0,0.0,0.0,0.0,0.0,0.0,0.0,0.0,0.0,0.0,0.0,0.0,0.0,0.0,0.0,0.0,0.0,4.3119,4.3729,4.4198,0.0,0.0,0.0,0.0,0.0,0.0,0.0,0.0,0.0,4.6337,4.6458,4.6883,0.0,0.0,4.9679,5.0453,5.0908,5.159,5.2712,0.0,0.0,0.0,5.3923,5.4248,5.5233,5.6645,5.7923,5.8614,5.9434,6.0069,6.0137,6.0663,6.0789,6.003,5.8743,5.8258,5.8971,5.9645,6.0505,6.176,6.2476,6.302,5.7517,5.6258,5.4705,5.4282,5.4696,5.495,5.5276,5.5637,5.5781,5.583,5.583,5.5763,5.533,5.4606,5.4,0.0,0.0,0.0,5.3449,5.3867,5.4166,5.4576,5.5025,5.508,5.4925,5.4559,5.466,5.4134,5.3142,5.2651,5.1443,4.948,0.0,0.0,4.8117,4.8603,4.9428,5.0609,5.1447,5.2132,5.2627,5.1657,5.0851,5.026,4.9414,4.8916,4.872,4.8264,4.7438,4.6188,4.5851,4.5213,0.0,0.0,0.0,0.0,0.0,0.0,0.0,0.0,0.0,0.0,0.0,4.1922,4.2205,0.0,0.0,0.0,4.3281,4.3937,4.4781,4.5048,0.0,0.0,0.0,0.0,0.0,0.0,0.0,4.5444,4.5844,4.649,4.7449,4.753,4.7916,4.8928,4.9639,5.0285,5.0991,0.0,5.1993,5.3181,5.3505,5.3952,5.4928,5.5199,5.5715,5.6769,5.8342,5.9536,5.9944,6.064,6.1263,6.1544,6.2229,6.283,6.2878,6.2168,6.1688,6.2013,6.2508,6.3215,6.4264,6.4905,6.5266,6.0384,6.0224,5.762,5.6393,5.6344,5.7037,5.7291,5.7298,5.7753,5.7916,5.7953,5.7891,5.7444,5.6685,5.523,0.0,0.0,5.5006,5.5319,5.5407,5.6075,5.6409,5.6483,5.6483,5.6509,5.6574,5.6555,5.5828,5.451,5.4435,5.3611,5.2015,5.0025,4.895,4.8878,4.8878,4.9673,5.1263,5.2035,5.2451,5.2437,5.1458,5.0801,5.0569,4.9781,4.907,4.8503,4.8442,4.8173,4.7464,4.6695,4.624,4.6127,0.0,0.0,0.0,0.0,0.0,0.0,0.0,0.0,0.0,0.0,0.0,0.0,0.0,0.0,0.0,4.5332,0.0,4.6066,4.5808,0.0,0.0,0.0,4.4631,4.4362,4.4585,4.5032,4.5675,0.0,0.0,0.0,0.0,4.9701,5.0037,5.0681,5.1339,5.1878,5.1893,5.2409,5.4004,5.4473,5.5216,5.6637,5.7238,5.7675,5.843,5.9588,6.042,6.0936,6.1577,6.2192,6.2417,6.3302,6.4005,6.4106,6.4734,6.5484,6.4768,6.4776,6.5162,6.6023,6.6351,6.653,6.1344,6.072,6.0149,5.9679,5.9347,5.9342,5.9614,6.0071,6.0076,6.0041,6.0041,6.0056,5.9619,5.8911,5.7975,5.7509,5.7406,5.6978,5.7397,5.8437,5.8015,5.8163,5.8754,5.8813,5.8212,5.7188,5.7114,5.6655,5.5787,5.5749,5.495,5.3386,5.2826,5.2068,5.1146,5.1124,5.1613,5.2591,5.2817,5.2881,5.2673,5.189,5.1041,5.0239,4.9457,4.9019,4.9011,4.9027,4.8715,4.8025,4.7814,4.74,4.6723,4.6217,0.0,0.0,0.0,0.0,0.0,0.0,0.0,0.0,0.0,4.4879,4.5345,0.0,4.5358,0.0,4.5843,4.6067,4.6424,4.6259,0.0,0.0,4.6173,4.5834,4.547,4.5779,4.6071,4.6143,4.718,4.8206,4.8976,4.982,5.0676,5.1575,5.1534,5.1665,5.2318,5.2835,5.3414,5.4498,5.5212,5.5926,5.6769,5.7744,5.8542,5.8971,5.9881,6.0707,6.1292,6.1632,6.1942,6.2275,6.3132,6.3763,6.3888,6.5154,6.614,6.6118,6.6222,6.642,6.6776,6.7343,6.7874,6.2294,6.192,6.1989,6.1864,6.1571,6.0741,6.0617,6.0952,6.1177,6.1255,6.1255,6.1255,6.0882,6.0159,5.9745,5.9516,5.9427,5.8962,5.9212,5.9909,5.943,5.949,5.9969,5.9969,5.9374,5.8267,5.823,5.7682,5.6656,5.6603,5.5953,5.4731,5.436,5.3848,5.3125,5.2133,5.2036,5.2876,5.3212,5.3327,5.3107,5.2046,5.1155,5.0546,4.9397,4.8838,4.903,4.903,4.8857,4.8525,4.8167,4.7756,4.7271,4.6792,4.6525,0.0,0.0,0.0,0.0,0.0,0.0,0.0,0.0,0.0,0.0,0.0,4.63,0.0,4.698,0.0,4.7467,4.7543,4.7602,4.769,4.7287,4.6942,4.669,4.6721,4.6822,4.7079,4.7749,4.8549,4.948,5.0323,5.1206,5.2197,5.2364,5.2533,5.2974,5.3585,5.4262,5.511,5.5926,5.6746,5.7398,5.8148,5.8826,5.9187,5.9692,6.0321,6.0962,6.1198,6.143,6.1868,6.2785,6.3547,6.37,6.4835,6.5956,6.6349,6.6555,6.6872,6.7331,6.7788,6.8146,6.3051,6.316,6.316,6.316,6.3073,6.1726,6.1112,6.1117,6.17,6.1947,6.1947,6.1947,6.159,6.1057,6.1057,6.101,6.0856,6.0783,6.0698,6.0713,6.0603,6.0566,6.0566,6.0566,6.0197,5.9555,5.9518,5.879,5.7405,5.7368,5.6888,5.6003,5.5302,5.4933,5.4711,5.284,5.214,5.2716,5.3422,5.3698,5.3546,5.199,5.1119,5.1005,4.9455,4.8624,4.8751,4.8751,4.8804,4.8855,4.8187,4.7816,4.7816,4.7046,4.6644,0.0,4.6667,0.0,0.0,0.0,0.0,0.0,0.0,0.0,0.0,4.6673,4.6856,4.7361,4.8369,4.8872,4.8681,4.8913,4.8951,4.8624,4.8127,4.7748,4.7617,4.7318,4.7364,4.798,4.8132,4.8714,5.0033,5.0879,5.1623,5.2401,5.301,5.3382,5.3551,5.4093,5.4769,5.5513,5.6433,5.7289,5.8113,5.8528,5.8772,5.9149,5.935,5.9681,6.0321,6.06,6.0908,6.1357,6.2197,6.2947,6.3148,6.4084,6.5101,6.574,6.6176,6.6759,6.7553,6.7826,6.7889,6.2855,6.2855,6.288,6.2855,6.2818,6.2549,6.2512,6.2584,6.2586,6.261,6.261,6.261,6.2536,6.2414,6.2414,6.2414,6.2353,6.1692,6.1765,6.2303,6.1667,6.1374,6.1374,6.1374,6.097,6.026,6.0186,5.9732,5.8814,5.8814,5.8042,5.6646,5.6463,5.6081,5.5419,0.0,0.0,0.0,5.3467,5.3501,5.3306,5.1758,5.0944,5.0826,4.9245,0.0,4.8532,4.855,4.8587,4.866,4.8512,0.0,0.0,0.0,0.0,0.0,0.0,0.0,0.0,0.0,0.0,0.0,5.0105,4.9771,4.9811,4.9569,4.9471,4.9524,4.9478,4.9349,4.9043,4.887,4.8572,4.8039,4.7837,4.7561,4.7193,4.7593,4.7946,4.7932,4.8917,4.9999,5.0879,5.1657,5.2367,5.3112,5.3416,5.3484,5.3518,5.4126,5.4634,5.4905,5.6128,5.7321,5.814,5.8385,5.8562,5.8806,5.8978,5.9249,5.9648,6.01,6.045,6.0757,6.1342,6.188,6.2057,6.2948,6.3838,6.4197,6.5374,6.6626,6.753,6.7741,6.7741,6.2805,0.0,6.2805,6.2805,0.0,6.2805,6.283,6.2904,6.283,6.2805,6.2805,6.2805,6.2805,6.2805,6.2805,6.2805,6.278,6.2365,6.2352,6.2668,6.2302,6.2057,6.2018,6.2018,6.1604,6.0884,6.0909,6.0494,5.9808,5.9795,5.9184,5.801,5.7593,5.7005,5.6198,5.5794,5.5052,5.3944,5.3944,5.3702,5.3235,5.2059,5.123,5.0802,0.0,0.0,0.0,0.0,0.0,0.0,0.0,0.0,0.0,0.0,0.0,4.9632,4.9997,5.0672,5.1784,5.1873,5.2218,5.2907,5.2769,5.201,5.0587,5.0185,4.9965,4.9888,4.9829,4.9742,4.9468,4.946,4.9269,4.8882,4.8604,4.8343,4.8171,4.8357,4.864,4.8984,4.9627,5.0473,5.1623,5.2063,5.2604,5.3348,5.3518,5.3518,5.3585,5.4126,5.4702,5.5074,5.6125,5.7043,5.7486,5.7929,5.8243,5.8421,5.8526,5.8702,5.9046,5.9483,5.9879,6.0068,6.06,6.1081,6.1292,6.1932,6.2657,6.3402,6.4283,6.5257,6.6223,6.711,6.7687,6.2805,6.2805,6.2805,6.2805,6.2805,6.2805,6.2805,6.2805,0.0,0.0,0.0,6.2805,6.2805,6.2805,6.2805,6.278,6.2755,6.2755,6.2679,6.2526,6.2526,6.2449,6.2354,6.2354,6.2068,6.1576,6.154,6.1213,6.0591,6.0591,6.0175,5.9404,5.8767,5.8033,5.7203,5.6396,5.5588,5.4796,5.4671,5.4252,5.3424,5.2637,5.183,5.1022,5.0215,4.9461,4.8744,4.8708,4.8708,4.8727,4.8727,4.8746,4.8783,4.9407,4.9884,5.0011,5.0745,5.1763,5.3083,5.3295,5.3849,5.5,5.4858,5.3664,5.109,5.0682,5.0437,5.0295,5.0434,5.0497,5.0276,5.0397,5.0414,5.0174,4.985,4.9573,4.9576,4.9452,4.9627,5.0168,5.0405,5.0913,5.2097,5.2435,5.2739,5.3348,5.3518,5.3518,5.3585,5.3991,5.46,5.5277,5.5852,5.6393,5.6697,5.7205,5.7717,5.7897,5.8069,5.8314,5.8597,5.8944,5.9217,5.9417,5.9972,6.0415,6.0691,6.1117,6.1738,6.2727,6.3257,6.3756,6.4709,6.6086,6.7183,6.2805,6.2805,6.2805,6.2805,6.2805,6.2805,6.2805,6.2805,6.2805,6.2805,6.2805,6.2805,6.2805,6.2805,6.2805,6.273,6.2629,6.2629,6.25,0.0,6.2238,6.2185,6.2087,6.2087,6.2068,6.2093,6.2093,6.1787,6.1323,6.1249,6.0921,6.0285,6.0126,5.9625,5.8854,5.7954,5.7102,5.6296,5.575,5.5023,5.4252,5.3445,5.2674,5.1867,5.0941,5.0424,5.0293,5.0257,5.0257,5.0257,5.0375,5.0435,5.0435,5.0545,5.0908,5.1465,5.2249,5.3047,5.379,5.4391,5.4652,5.4528,5.4489,5.4248,5.3853,5.3453,5.314,5.2945,5.239,5.2201,5.2061,5.1735,5.1501,5.1256,5.1196,5.107,5.0843,5.0811,5.0845,5.1048,5.1623,5.1961,5.2334,5.2909,5.3315,5.3484,5.3518,5.3518,5.3518,5.3585,5.3957,5.4566,5.4837,5.5175,5.5784,5.6494,5.6936,5.7004,5.7656,5.8137,5.8278,5.8562,5.8841,5.9047,5.9417,5.9811,6.0227,6.063,6.1093,6.1753,6.2518,6.3303,6.3756,6.4746,6.5757,6.2805,6.2805,6.2805,6.2805,6.2805,6.2805,6.2805,6.2805,6.2805,6.2805,6.2805,6.2805,6.2755,6.2705,6.2679,6.2578,6.237,6.237,6.2185,6.1795,6.1832,6.172,6.1494,6.1494,6.1608,6.1832,6.1832,6.1806,6.1834,6.186,6.15,6.0859,6.042,5.9981,5.9591,5.8799,5.8142,5.7668,5.6583,5.5629,5.4861,5.4458,5.369,5.2447,5.1937,5.1252,5.0393,5.0393,5.0356,5.0393,5.0519,5.0581,5.0581,5.0984,5.1505,5.22,5.298,5.3872,5.4919,5.5519,5.5672,5.525,5.5196,5.5114,5.4831,5.4032,5.3372,5.3028,5.263,5.2304,5.2157,5.1881,5.1631,5.1505,5.141,5.1282,5.1217,5.1217,5.1386,5.1725,5.2063,5.2469,5.2909,5.3281,5.3518,5.3518,5.3518,5.3518,5.3518,5.3518,5.3619,5.3957,5.4329,5.4702,5.5074,5.5716,5.6292,5.6731,5.7141,5.7586,5.7925,5.8278,5.8456,5.8562,5.8875,5.9216,5.9683,6.0005,6.0446,6.1028,6.1681,6.231,6.2722,6.36,6.4825,6.2851,6.2705,6.2705,6.2705,6.2705,6.2705,6.2705,6.2705,6.2705,6.2705,6.2705,6.273,6.2705,6.2603,6.2552,6.2344,6.2105,6.2051,6.1776,6.1315,6.1286,6.1146,6.0914,6.0884,6.0998,6.1257,6.1321,6.1544,6.1996,6.2051,6.1841,6.1345,6.058,6.018,6.018,5.9328,5.8853,5.8642,5.7543,5.6443,5.5411,5.5374,5.4683,5.3386,5.3103,5.2431,5.1212,5.114,5.1067,5.0909,5.1187,5.1311,5.1188,5.1879,5.254,5.3034,5.3771,5.4676,5.5708,5.6215,5.6209,5.5786,5.57,5.5496,5.5034,5.4115,5.3381,5.3063,5.28,5.2523,5.2401,5.2145,5.1953,5.1953,5.179,5.1826,5.1758,5.1692,5.1928,5.2469,5.257,5.2841,5.3348,5.3518,5.3518,5.3518,5.3518,5.3518,5.3518,5.3518,5.3518,5.3619,5.3991,5.4296,5.4397,5.4972,5.5615,5.6258,5.6461,5.6869,5.7376,5.7755,5.7999,5.8174,5.8421,5.8771,5.9115,5.9451,5.9876,6.0446,6.1034,6.153,6.205,6.2828,6.4129,6.3116,6.2496,6.2459,6.2459,6.2423,6.2459,6.2423,6.2459,6.2459,6.2423,6.2423,6.2552,6.2603,6.2578,6.2381,6.2051,6.174,6.1636,6.1228,6.0727,6.0696,6.0512,6.0199,6.0167,6.0356,6.0666,6.0696,6.0962,6.1515,6.1544,6.1676,6.1815,6.1127,6.0728,6.0629,5.9772,5.924,5.9033,5.8816,5.7774,5.6041,5.5921,5.5486,5.4641,5.4373,5.4176,5.3792,5.4033,5.3648,5.3061,5.3773,5.4001,5.3422,5.4037,5.4412,5.4248,5.4943,5.5597,5.5857,5.5922,5.5758,5.5319,5.5139,5.4961,5.4589,5.429,5.4155,5.4089,5.3804,5.3476,5.3546,5.3313,5.3179,5.3111,5.3145,5.3315,5.3179,5.3281,5.3315,5.3382,5.3315,5.345,5.3484,5.3518,5.3518,5.3518,5.3518,5.3518,5.3518,5.3518,5.3518,5.3518,5.3619,5.3653,5.3754,5.4228,5.4735,5.4905,5.5412,5.6055,5.663,5.7004,5.7141,5.7793,5.8207,5.8385,5.8702,5.9081,5.9451,5.9943,6.0477,6.111,6.1804,6.2401,6.3419,6.3548,6.2858,6.2794,6.2567,6.2195,6.2158,6.2158,6.2158,6.2158,6.2158,6.2132,6.1987,6.2078,6.2238,6.1942,6.1544,6.1169,6.1058,6.06,5.9969,5.994,5.9779,5.9485,5.9451,5.965,5.994,5.994,6.029,6.0908,6.1176,6.1321,6.1437,6.1114,6.097,6.0906,6.0131,5.9559,5.9293,5.8743,5.8003,5.7114,5.6948,5.6312,5.5173,5.4759,5.4314,5.3931,5.386,5.3718,5.3459,5.3969,5.4194,5.3871,5.4158,5.4389,5.459,5.5182,5.5497,5.5378,5.5348,5.5139,5.4614,5.4586,5.4463,5.4207,5.4045,5.3948,5.398,5.3816,5.3684,5.3618,5.3517,5.3518,5.3518,5.3518,5.3518,5.3518,5.3518,5.3518,5.3518,5.3518,5.3518,5.3518,5.3518,5.3518,5.3518,5.3518,5.3518,5.3518,5.3518,5.3518,5.3518,5.3518,5.3518,5.3551,5.3687,5.4093,5.4499,5.4837,5.531,5.5987,5.6596,5.697,5.7347,5.7755,5.8135,5.835,5.8632,5.8944,5.9485,6.0258,6.1028,6.172,6.2051,6.2719,6.3928,6.3243,6.3207,6.2846,6.237,6.237,6.237,6.237,6.237,6.2261,6.2017,6.1695,6.1588,6.1579,6.1343,6.1022,6.0696,6.0384,5.9972,5.9382,5.9317,5.9114,5.8875,5.8875,5.8978,5.9215,5.9317,5.9648,6.0258,6.0635,6.0823,6.0823,6.0823,6.0823,6.0752,6.0219,5.9785,5.9408,5.8849,5.8312,5.7849,5.7661,5.7069,5.5943,5.5362,5.4768,5.4246,5.4,5.3789,5.3641,5.4095,5.4322,5.4082,5.4286,5.4583,5.5043,5.5378,5.5528,5.5397,5.54,5.5208,5.4789,5.4554,5.4319,5.4188,5.3886,5.3685,5.3651,5.3651,5.3618,5.3517,5.3518,5.3518,5.3518,5.3518,5.3518,5.3518,5.3518,5.3518,5.3518,5.3518,5.3518,5.3518,5.3518,5.3518,5.3518,5.3518,5.3518,5.3518,5.3518,5.3518,5.3518,5.3518,5.3518,5.3518,5.3551,5.3788,5.4025,5.4296,5.4566,5.531,5.6021,5.6697,5.697,5.7476,5.785,5.8099,5.8314,5.8597,5.925,5.9972,6.0752,6.1286,6.1664,6.2024,6.4122,6.3413,6.3377,6.3301,6.3306,6.3265,6.327,6.3163,6.3234,6.2872,6.2199,6.1823,6.1344,6.0772,6.0777,6.0547,6.0262,5.9811,5.9383,5.9012,5.8875,5.8667,5.8525,5.8525,5.8631,5.8943,5.8978,5.9184,5.9652,5.9978,6.0139,6.0104,6.0104,6.0171,6.0104,6.0065,5.9873,5.9441,5.9338,5.893,5.8044,5.7906,5.7784,5.7456,5.6571,5.5928,5.5823,5.5266,5.457,5.3808,5.4758,5.5039,5.4483,5.5039,5.5564,5.5924,5.5876,5.5968,5.6296,5.6298,5.6198,5.5962,5.5247,5.4805,5.4737,5.4161,5.3754,5.3551,5.372,5.3687,5.3653,5.3585,5.3518,5.3518,5.3518,5.3518,5.3518,5.3518,5.3518,5.3518,5.3518,5.3518,5.3518,5.3518,5.3518,5.3518,5.3518,5.3518,5.3518,5.3518,5.3518,5.3518,5.3518,5.3518,5.3518,5.3518,5.3518,5.3687,5.3856,5.3822,5.4532,5.5243,5.5987,5.6697,5.7374,5.7816,5.792,5.8171,5.8562,5.9081,5.9716,6.0352,6.0843,6.1343,6.174,6.4197,6.342,6.2893,6.2682,6.2682,6.2682,6.2682,6.2682,6.2682,6.2541,6.2261,6.2031,6.1726,6.1348,6.1148,6.0558,5.9687,5.9317,5.8944,5.8595,5.8897,5.8957,5.888,5.9321,5.9599,5.9782,5.9782,5.9761,5.9771,6.0012,5.9836,5.9488,5.9385,5.9385,5.9385,5.9385,5.925,5.9012,5.8978,5.8737,5.8324,5.829,5.829,5.815,5.6978,5.6357,5.6357,5.5598,5.5046,5.4738,5.4852,5.4942,5.5185,5.5785,5.6208,5.6322,5.6158,5.6096,5.6167,5.6201,5.6098,5.5892,5.5619,5.5381,5.5346,5.5108,5.4938,5.4905,5.4905,5.4938,5.4702,5.4093,5.3518,5.3518,5.3518,5.3585,5.3518,5.3518,5.3518,5.3518,5.3518,5.3518,5.3518,5.3518,5.3518,5.3518,5.3518,5.3518,5.3518,5.3518,5.3518,5.3518,5.3518,5.3518,5.3518,5.3518,5.3518,5.3518,5.3585,5.3619,5.4059,5.5108,5.5953,5.6258,5.7036,5.7814,5.7918,5.8063,5.8456,5.8771,5.9418,5.9943,6.0352,6.0843,6.1315,6.4044,6.3485,6.2962,6.2752,6.2683,6.2752,6.2683,6.2717,6.2717,6.2578,6.2369,6.2162,6.1918,6.1535,6.1218,6.0629,5.9701,5.9493,5.9245,5.8989,5.9355,5.9482,5.9438,5.9877,6.019,6.0303,6.0377,6.0291,6.0136,6.0247,6.0009,5.9596,5.9321,5.9184,5.915,5.8943,5.8736,5.8597,5.8527,5.8456,5.8348,5.8312,5.8312,5.8212,5.7395,5.6884,5.6679,5.5927,5.5516,5.5481,5.5202,5.5266,5.5781,5.6163,5.6473,5.6611,5.6543,5.6541,5.6605,5.6604,5.6602,5.6393,5.619,5.6019,5.6055,5.5817,5.5715,5.5681,5.5681,5.5681,5.5547,5.4803,5.4228,5.4228,5.4228,5.4228,5.4228,5.4228,5.4126,5.3923,5.3653,5.3551,5.3518,5.3518,5.3518,5.3518,5.3518,5.3518,5.3518,5.3518,5.3518,5.3518,5.3518,5.3518,5.3518,5.3518,5.3518,5.3518,5.3518,5.3518,5.389,5.4972,5.5681,5.5987,5.6596,5.7476,5.7954,5.8063,5.8278,5.8526,5.8944,5.9485,5.9908,6.0356,6.0782,6.3602,6.3568,6.3565,6.3464,6.3395,6.3395,6.3533,6.3464,6.3464,6.3015,6.2463,6.2247,6.1865,6.124,6.1092,6.0669,6.0523,6.0489,6.035,6.0136,6.016,6.0114,6.0114,6.0283,6.0351,6.0389,6.0404,6.0445,6.0486,6.06,6.064,6.0469,5.9855,5.9513,5.9547,5.8934,5.8453,5.8277,5.8207,5.8099,5.7918,5.7954,5.7954,5.7954,5.7819,5.7552,5.7117,5.6403,5.603,5.603,5.6065,5.6133,5.6167,5.6338,5.6542,5.7051,5.7083,5.7386,5.7751,5.7782,5.7681,5.7577,5.7171,5.6799,5.6731,5.6292,5.5953,5.5987,5.5953,5.5852,5.5919,5.5818,5.5649,5.5683,5.5446,5.5411,5.5512,5.5649,5.5378,5.46,5.4025,5.3585,5.3518,5.3518,5.3518,5.3518,5.3518,5.3518,5.3518,5.3518,5.3518,5.3518,5.3518,5.3518,5.3518,5.3518,5.3518,5.3518,5.3518,5.3551,5.4059,5.4905,5.5716,5.6122,5.6968,5.778,5.7918,5.8027,5.8099,5.8385,5.8736,5.9047,5.9451,5.9911,6.0325,6.3189,6.3189,6.3189,6.3189,6.3189,6.3189,6.3189,6.3189,6.3189,6.3018,6.2847,6.2737,6.2487,6.2237,6.2127,6.194,6.1787,6.1714,6.1206,6.0495,6.0727,6.096,6.1028,6.1434,6.167,6.167,6.1748,6.1477,6.1143,6.1113,6.088,6.0337,6.0065,5.9692,5.9285,5.8979,5.8603,5.8058,5.7991,5.7954,5.7918,5.7881,5.7881,5.7881,5.7881,5.7782,5.7616,5.6974,5.6566,5.6532,5.6094,5.6095,5.6604,5.7113,5.745,5.7618,5.7652,5.7683,5.785,5.7881,5.7881,5.7848,5.7645,5.7577,5.7543,5.7306,5.7137,5.7171,5.7205,5.7205,5.7205,5.7205,5.6799,5.5852,5.5681,5.5784,5.5817,5.5715,5.5378,5.4735,5.4397,5.4059,5.3653,5.3518,5.3518,5.3518,5.3518,5.3518,5.3518,5.3518,5.3518,5.3518,5.3518,5.3518,5.3518,5.3551,5.3585,5.3687,5.3721,5.3788,5.4262,5.504,5.5784,5.6494,5.734,5.7816,5.7884,5.7954,5.8027,5.8135,5.8385,5.8702,5.9012,5.9451,5.9911,6.277,6.277,6.277,6.277,6.277,6.2808,6.277,6.277,6.277,6.277,6.277,6.277,6.2693,6.2576,6.261,6.2668,6.2787,6.2821,6.2448,6.1839,6.1907,6.2144,6.2212,6.2888,6.3193,6.3226,6.3226,6.2821,6.2144,6.211,6.1738,6.1061,6.0689,6.0351,5.981,5.9268,5.8761,5.8355,5.8051,5.7881,5.7881,5.7881,5.7881,5.7881,5.7881,5.7881,5.7848,5.7442,5.7205,5.7137,5.6731,5.6765,5.7205,5.7611,5.7881,5.7881,5.7881,5.7881,5.7881,5.7881,5.7881,5.7881,5.7881,5.7881,5.7881,5.7881,5.7881,5.7881,5.7848,5.7881,5.7848,5.7881,5.7442,5.6664,5.6596,5.6528,5.6494,5.6222,5.5987,5.548,5.4972,5.4431,5.4059,5.3585,5.3551,5.3518,5.3518,5.3518,5.3518,5.3518,5.3518,5.3518,5.3518,5.3518,5.3518,5.3551,5.3653,5.3822,5.4025,5.4194,5.4499,5.5547,5.6427,5.6968,5.7746,5.7814,5.7918,5.7918,5.7954,5.8063,5.8135,5.8385,5.8702,5.9012,5.9451,6.2381,6.2415,6.2415,6.242,6.242,6.242,6.242,6.242,6.242,6.2459,6.2454,6.2459,6.2488,6.2522,6.2623,6.2922,6.3463,6.3565,6.3835,6.3971,6.3869,6.3599,6.3565,6.4072,6.4309,6.441,6.4444,6.414,6.3463,6.3429,6.3193,6.2381,6.1806,6.1332,6.0926,5.981,5.9268,5.9032,5.8457,5.8152,5.8152,5.8118,5.8118,5.8152,5.8152,5.8152,5.8051,5.7881,5.7814,5.7848,5.7712,5.7679,5.7848,5.7881,5.7881,5.7881,5.7881,5.7881,5.7881,5.7881,5.7881,5.7881,5.7881,5.7881,5.7881,5.7881,5.7881,5.7881,5.7881,5.7881,5.7881,5.7881,5.7814,5.7848,5.7611,5.7645,5.778,5.7205,5.6765,5.6494,5.5581,5.4634,5.4566,5.3957,5.3687,5.3518,5.3518,5.3518,5.3518,5.3518,5.3518,5.3518,5.3518,5.3721,5.3788,5.3923,5.4059,5.46,5.4803,5.504,5.5209,5.6156,5.69,5.7476,5.778,5.7848,5.7881,5.7881,5.7881,5.7954,5.8027,5.8135,5.835,5.8702,5.8978,6.2415,6.2415,6.2415,6.2415,6.2415,6.2415,6.2415,6.2415,6.2415,6.2415,6.2415,6.2415,6.2753,6.3193,6.3226,6.3632,6.4174,6.4309,6.4377,6.4647,6.5019,6.4749,6.441,6.4512,6.4647,6.4681,6.4749,6.4512,6.4343,6.4309,6.3937,6.326,6.2956,6.2313,6.1366,6.0892,6.0385,5.9911,5.9641,5.9471,5.9438,5.9438,5.9505,5.9539,5.9471,5.9201,5.8727,5.8186,5.7881,5.7881,5.7881,5.7881,5.7881,5.7881,5.7881,5.7881,5.7881,5.7881,5.7881,5.7881,5.7881,5.7881,5.7881,5.7881,5.7881,5.7881,5.7881,5.7881,5.7881,5.7881,5.7881,5.7881,5.7881,5.7881,5.7881,5.7881,5.7848,5.7712,5.7408,5.6867,5.6393,5.5683,5.4871,5.4363,5.3991,5.3619,5.3518,5.3518,5.3518,5.3518,5.3518,5.3518,5.3585,5.389,5.4126,5.4262,5.4634,5.5344,5.5818,5.6258,5.6461,5.7002,5.7476,5.7848,5.7848,5.7881,5.7881,5.7881,5.7881,5.7881,5.7954,5.8027,5.8135,5.8385,5.8562,6.2415,6.2415,6.2415,6.2415,6.2415,6.2415,6.2415,6.2415,6.2415,6.2584,6.2821,6.2854,6.3294,6.3903,6.3971,6.4377,6.4986,6.5053,6.5256,6.5628,6.5967,6.5899,6.5595,6.5527,6.5527,6.5527,6.5527,6.5358,6.5121,6.5053,6.4647,6.4038,6.3666,6.3057,6.2347,6.1535,6.1129,6.0622,6.0317,6.008,6.008,6.008,6.008,6.008,6.008,5.9844,5.9404,5.8761,5.8254,5.7983,5.7881,5.7881,5.7881,5.7881,5.7881,5.7881,5.7881,5.7881,5.7881,5.7881,5.7881,5.7881,5.7881,5.7881,5.7881,5.7881,5.7881,5.7881,5.7881,5.7881,5.7881,5.7881,5.7881,5.7881,5.7881,5.7881,5.7881,5.7881,5.7712,5.7273,5.6697,5.6089,5.5108,5.4566,5.4025,5.3653,5.3518,5.3518,5.3518,5.3518,5.3653,5.3788,5.4025,5.4397,5.4803,5.5006,5.5378,5.6055,5.6562,5.7103,5.7273,5.7577,5.7712,5.7881,5.7881,5.7881,5.7881,5.7881,5.7881,5.7881,5.7881,5.7918,5.8027,5.8135,5.8314,6.2415,6.2415,6.2415,6.2415,6.2415,6.2482,6.2584,6.255,6.2719,6.3057,6.3531,6.3632,6.4038,6.4715,6.4715,6.5121,6.5797,6.5967,6.6474,6.688,6.7151,6.7083,6.7049,6.6643,6.6576,6.6576,6.6779,6.6373,6.5933,6.5797,6.5392,6.4783,6.4106,6.3626,6.3159,6.2212,6.1603,6.1332,6.0892,6.0622,6.0622,6.0622,6.0655,6.0622,6.0419,6.0351,6.008,5.9505,5.8863,5.8186,5.7983,5.7881,5.7881,5.7881,5.7881,5.7881,5.7881,5.7881,5.7881,5.7881,5.7881,5.7881,5.7881,5.7881,5.7881,5.7881,5.7881,5.7881,5.7881,5.7881,5.7881,5.7881,5.7881,5.7881,5.7881,5.7881,5.7881,5.7881,5.7881,5.7814,5.663,5.5987,5.5378,5.46,5.3619,5.3585,5.3518,5.3518,5.3619,5.3788,5.4025,5.4329,5.4634,5.5006,5.5412,5.5818,5.6258,5.6765,5.7239,5.7611,5.7611,5.778,5.7814,5.7881,5.7881,5.7881,5.7881,5.7881,5.7881,5.7881,5.7881,5.7881,5.7918,5.8027,5.8171,6.2415,6.2415,6.2415,6.2415,6.2482,6.3024,6.3294,6.3294,6.3869,6.4106,6.4343,6.4377,6.4783,6.5459,6.5527,6.5865,6.6609,6.7117,6.7861,6.8538,6.8605,6.8605,6.8301,6.7523,6.6914,6.6914,6.6846,6.6745,6.6576,6.6508,6.6203,6.5493,6.5121,6.4647,6.3632,6.326,6.2719,6.2245,6.1975,6.1907,6.1907,6.1907,6.1907,6.1839,6.14,6.1095,6.0892,6.0283,5.981,5.9404,5.8592,5.8084,5.8051,5.8017,5.8017,5.8051,5.7983,5.7949,5.7915,5.7983,5.7881,5.7949,5.7915,5.7881,5.7881,5.7881,5.7881,5.7881,5.7881,5.7881,5.7881,5.7881,5.7881,5.7881,5.7881,5.7848,5.7848,5.7881,5.7881,5.7645,5.7034,5.6324,5.5715,5.4836,5.4059,5.3653,5.3484,5.3518,5.3687,5.3957,5.4363,5.4735,5.531,5.5716,5.6258,5.6596,5.6867,5.7205,5.7611,5.7881,5.7881,5.7881,5.7881,5.7881,5.7881,5.7881,5.7881,5.7881,5.7881,5.7881,5.7915,5.7983,5.8053,5.8022,5.8363,6.2415,6.2415,6.2753,6.2922,6.3024,6.37,6.4005,6.4106,6.441,6.4816,6.5053,6.5121,6.5527,6.6237,6.6576,6.6981,6.7421,6.8098,6.8673,6.9011,6.9045,6.9079,6.9011,6.8402,6.7895,6.7895,6.7929,6.7726,6.7421,6.7252,6.6948,6.6203,6.5899,6.5324,6.458,6.4208,6.3835,6.3531,6.3429,6.3429,6.3429,6.3429,6.3429,6.3294,6.2753,6.2347,6.2313,6.1231,6.0757,6.0385,5.9573,5.893,5.893,5.8896,5.8896,5.893,5.893,5.893,5.893,5.8592,5.8423,5.8423,5.8118,5.7915,5.7881,5.7881,5.7881,5.7881,5.7881,5.7881,5.7881,5.7881,5.7881,5.7881,5.7881,5.7746,5.7543,5.7606,5.7603,5.7229,5.6448,5.5671,5.4998,5.4393,5.3955,5.3314,5.3314,5.3382,5.3721,5.4025,5.4702,5.5209,5.5852,5.6427,5.7036,5.734,5.7408,5.7611,5.7746,5.7881,5.7881,5.7881,5.7881,5.7881,5.7881,5.7881,5.7881,5.7881,5.7881,5.7881,5.7949,5.8084,5.8287,5.8527,5.8933,6.2415,6.2448,6.3193,6.3491,6.3666,6.4377,6.4783,6.4783,6.4884,6.5392,6.5764,6.5865,6.6271,6.6981,6.7557,6.7929,6.8436,6.8876,6.9383,6.9654,6.9688,6.9688,6.962,6.9519,6.9451,6.9417,6.9045,6.8605,6.8199,6.8064,6.7827,6.7151,6.644,6.6068,6.5764,6.5155,6.4613,6.441,6.4343,6.4377,6.441,6.4444,6.441,6.4275,6.3937,6.3565,6.3328,6.2482,6.1704,6.1569,6.0858,6.052,6.0385,6.0148,6.008,6.0047,5.9911,5.9844,5.9742,5.9471,5.9167,5.9167,5.8693,5.8321,5.8321,5.8423,5.8457,5.8321,5.8321,5.8152,5.8051,5.7949,5.7915,5.7881,5.7881,5.7577,5.7167,5.7223,5.6982,5.6376,5.5631,5.4819,5.4213,5.3643,5.3309,5.3076,5.311,5.3314,5.3618,5.4194,5.4938,5.5683,5.6359,5.6867,5.7476,5.7611,5.7746,5.778,5.7881,5.7881,5.7881,5.7881,5.7881,5.7881,5.7881,5.7881,5.7881,5.7881,5.7881,5.7881,5.8118,5.8423,5.8761,5.9066,5.9573,6.2415,6.2448,6.3193,6.3491,6.3734,6.4918,6.5493,6.5628,6.6102,6.6474,6.6576,6.6643,6.7015,6.759,6.7793,6.8571,6.9553,6.9958,7.0297,7.0669,7.077,7.0737,7.0703,7.077,7.0838,7.0567,6.9982,6.9306,6.8977,6.8876,6.8663,6.8504,6.7818,6.721,6.6601,6.5933,6.5493,6.5222,6.5053,6.4952,6.4952,6.485,6.4816,6.4783,6.458,6.4444,6.4275,6.3666,6.3159,6.3091,6.2415,6.2076,6.1738,6.0892,6.0385,6.0283,6.0317,6.0385,6.0317,6.008,5.9945,5.9911,5.9674,5.9641,5.9641,5.9641,5.9438,5.937,5.9066,5.8761,5.8795,5.8254,5.7915,5.7881,5.7881,5.7744,5.7358,5.6838,5.6224,5.549,5.4714,5.3966,5.339,5.2952,5.279,5.2729,5.2799,5.3072,5.3446,5.4325,5.5306,5.6085,5.6867,5.734,5.7814,5.7814,5.7848,5.7848,5.7881,5.7881,5.7881,5.7881,5.7881,5.7881,5.7881,5.7881,5.7881,5.7915,5.8017,5.8152,5.849,5.8863,5.9336,5.981,6.0317,6.2618,6.3057,6.3768,6.4309,6.4783,6.5797,6.6271,6.6305,6.6677,6.6812,6.6914,6.7184,6.7557,6.803,6.8842,6.9722,7.05,7.077,7.1007,7.1278,7.1312,7.1312,7.1447,7.1684,7.1853,7.1774,7.1312,7.0512,6.9755,6.9522,6.9309,6.887,6.8466,6.8128,6.7858,6.7606,6.7176,6.6812,6.6474,6.6271,6.6237,6.5967,6.5764,6.5696,6.5358,6.5189,6.5019,6.4478,6.4106,6.4005,6.3734,6.3362,6.2854,6.2347,6.1637,6.1332,6.1231,6.1264,6.1163,6.0994,6.0723,6.0655,6.0419,6.0114,6.008,6.0047,6.0182,5.9979,5.9471,5.8998,5.8964,5.8355,5.7949,5.7881,5.7881,5.7603,5.7083,5.6456,5.5569,5.4695,5.3977,5.3294,5.2547,5.2251,5.223,5.2307,5.2447,5.2859,5.3268,5.4416,5.553,5.6383,5.7133,5.7543,5.7881,5.7881,5.7881,5.7881,5.8017,5.8017,5.8051,5.8118,5.7983,5.7881,5.7881,5.8152,5.8084,5.8186,5.8321,5.8558,5.9099,5.9641,6.0114,6.0588,6.1163,6.2821,6.3565,6.4275,6.5019,6.5764,6.6508,6.6812,6.6812,6.6812,6.6914,6.7117,6.7624,6.8064,6.8673,6.9722,7.0737,7.1312,7.1278,7.1379,7.1582,7.1616,7.1582,7.1921,7.2225,7.2585,7.2527,7.2671,7.222,7.0861,7.0389,6.9749,6.9346,6.9043,6.8841,6.8785,6.8624,6.9016,6.8866,6.8538,6.8166,6.7963,6.759,6.7286,6.7184,6.6542,6.617,6.617,6.529,6.4884,6.4749,6.458,6.4235,6.3755,6.3653,6.3316,6.2634,6.2443,6.2415,6.2212,6.1873,6.1501,6.1501,6.0926,6.0689,6.0622,6.0825,6.0689,6.0452,5.9979,5.9434,5.9261,5.8518,5.8045,5.7735,5.7701,5.7493,5.6794,5.6025,5.5147,5.4303,5.3419,5.2567,5.1777,5.1671,5.1655,5.1815,5.1962,5.2653,5.3238,5.4598,5.5752,5.6609,5.726,5.7606,5.7881,5.7881,5.7881,5.7881,5.8186,5.8389,5.8389,5.8423,5.8389,5.8524,5.8626,5.8829,5.866,5.866,5.8998,5.9438,5.9945,6.0385,6.0723,6.1434,6.2144,6.2821,6.3599,6.4309,6.5019,6.5764,6.6508,6.6812,6.6812,6.6846,6.7218,6.7692,6.7963,6.8741,6.9823,7.0669,7.1176,7.1345,7.1447,7.1751,7.2191,7.2293,7.2563,7.3071,7.3274,7.3236,7.313,7.3171,7.2632,7.1732,7.1332,7.0917,7.0168,6.9532,6.9276,6.9197,6.9088,6.8772,6.8806,6.8914,6.89,6.8833,6.8697,6.863,6.8427,6.7987,6.7514,6.7269,6.6323,6.5613,6.5519,6.4945,6.4525,6.4267,6.4226,6.3665,6.2993,6.2542,6.2415,6.2341,6.2172,6.211,6.211,6.1975,6.2076,6.1795,6.1761,6.1795,6.211,6.1327,6.0507,5.9751,5.9005,5.8291,5.7741,5.7431,5.7176,5.6606,5.5979,5.5062,5.4052,5.3291,5.2087,5.1037,5.1057,5.1097,5.1286,5.162,5.2389,5.3353,5.4787,5.5899,5.6794,5.7352,5.7735,5.8113,5.8115,5.8287,5.8152,5.849,5.8863,5.8964,5.9099,5.9505,5.9607,5.9641,5.9573,5.9471,5.9573,5.9877,6.025,6.0689,6.096,6.1197,6.2042,6.299,6.3463,6.4174,6.4918,6.5662,6.6339,6.6677,6.6812,6.6914,6.7252,6.759,6.8064,6.8876,6.9823,7.077,7.121,7.1548,7.1819,7.1921,7.2326,7.2902,7.3037,7.3206,7.3477,7.3916,7.3979,7.3763,7.3711,7.3289,7.2508,7.1546,7.0947,7.0457,6.9794,6.9396,6.9409,6.9516,6.9553,6.9511,6.939,6.9043,6.8785,6.8684,6.8684,6.8684,6.8348,6.8179,6.7877,6.7204,6.6599,6.643,6.5859,6.5127,6.4689,6.447,6.4085,6.3106,6.2499,6.2219,6.2211,6.2183,6.2229,6.2302,6.2263,6.2043,6.203,6.1991,6.1991,6.1957,6.1318,6.0668,6.0086,5.9103,5.8351,5.7807,5.7348,5.684,5.6468,5.5936,5.5154,5.4115,5.3149,5.2099,5.1272,5.1277,5.1359,5.1296,5.1814,5.2674,5.3727,5.5083,5.6112,5.6972,5.7402,5.7759,5.8238,5.8548,5.8994,5.9099,5.9336,5.9641,5.9674,5.9877,6.0283,6.0486,6.0419,6.0351,6.0283,6.0452,6.0757,6.1061,6.14,6.1806,6.2245,6.2651,6.3599,6.4208,6.4918,6.5459,6.6102,6.6779,6.6812,6.6812,6.6914,6.7557,6.7996,6.8571,6.9755,7.0872,7.1447,7.165,7.2022,7.2665,7.2665,7.3138,7.3544,7.3781,7.3916,7.4289,7.4647,7.4579,7.4258,7.4073,7.3457,7.2357,7.1436,7.0714,7.0436,6.9715,6.9419,6.9467,6.9574,6.9694,6.9896,6.9962,6.9587,6.9052,6.8975,6.8975,6.8875,6.8707,6.8562,6.8428,6.7748,6.738,6.7212,6.6523,6.5713,6.5116,6.473,6.4134,6.3254,6.2585,6.2316,6.2183,6.2037,6.2051,6.207,6.1991,6.1716,6.1554,6.1513,6.1513,6.1513,6.1146,6.0672,6.0158,5.9099,5.8502,5.7952,5.7397,5.6781,5.623,5.5904,5.5403,5.4486,5.3573,5.2648,5.1989,5.1826,5.1662,5.1465,5.1999,5.2886,5.4002,5.5215,5.5968,5.6779,5.7458,5.7897,5.8467,5.8946,5.946,5.9975,6.0245,6.0419,6.0486,6.0689,6.1028,6.1163,6.1298,6.1535,6.1704,6.167,6.1637,6.2076,6.2516,6.299,6.3396,6.3734,6.4343,6.4952,6.5628,6.5662,6.6136,6.6812,6.6812,6.6812,6.688,6.7624,6.8402,6.9282,7.0534,7.1616,7.2124,7.236,7.2732,7.3409,7.3409,7.3883,7.4322,7.4593,7.4864,7.5039,7.5085,7.4914,7.4339,7.4003,7.3116,7.2078,7.1081,7.053,7.019,6.9459,6.9302,6.9195,6.9286,6.9599,6.9955,7.0424,7.05,7.0162,7.0103,7.0163,7.0009,6.9666,6.931,6.9264,6.829,6.7708,6.7708,6.6862,6.606,6.5332,6.4879,6.4093,6.3121,6.2561,6.2378,6.2223,6.1947,6.1665,6.1654,6.1573,6.1393,6.1177,6.1053,6.1061,6.0978,6.0705,6.0432,5.9902,5.9308,5.8534,5.8008,5.7368,5.6805,5.637,5.6198,5.5681,5.4838,5.3961,5.3096,5.2626,5.2395,5.1836,5.1541,5.202,5.2858,5.3871,5.4966,5.5637,5.6428,5.7318,5.8014,5.8681,5.9232,5.9871,6.0598,6.1086,6.126,6.1366,6.1637,6.2212,6.2279,6.255,6.2854,6.3024,6.2854,6.2821,6.3193,6.3565,6.3835,6.4377,6.485,6.5527,6.5019,6.573,6.6203,6.6542,6.6812,6.6812,6.6812,6.7015,6.8098,6.935,7.05,7.1515,7.2124,7.2462,7.2969,7.3477,7.4086,7.4187,7.4661,7.5067,7.5371,7.5377,7.5436,7.5097,7.4704,7.4003,7.3441,7.2603,7.1484,7.0648,7.014,6.9706,6.9092,6.8946,6.8871,6.9129,6.9515,7.0004,7.0583,7.0733,7.0716,7.0749,7.073,7.0202,7.007,6.9541,6.9097,6.8324,6.7918,6.748,6.686,6.6024,6.522,6.4641,6.3805,6.2828,6.2301,6.2107,6.2299,6.2068,6.2144,6.2022,6.1716,6.1215,6.0837,6.0467,6.0239,6.0216,6.0216,5.9902,5.9718,5.8961,5.813,5.7774,5.732,5.6734,5.6436,5.6217,5.5789,5.4851,5.4299,5.3603,5.323,5.295,5.229,5.1744,5.2284,5.2909,5.3895,5.4783,5.5493,5.6334,5.7233,5.836,5.9079,5.971,6.0336,6.111,6.1846,6.2161,6.2471,6.326,6.37,6.3734,6.3666,6.3835,6.3903,6.3835,6.3937,6.4106,6.4309,6.4478,6.5121,6.5865,6.6508,6.5155,6.6034,6.6576,6.6812,6.6812,6.6812,6.6948,6.7354,6.8504,6.9925,7.1345,7.2056,7.2529,7.2868,7.3477,7.4221,7.4762,7.4965,7.5188,7.5377,7.545,7.5373,7.5082,7.4605,7.4105,7.3441,7.2624,7.1711,7.0718,7.0161,6.9521,6.9011,6.8629,6.847,6.865,6.9088,6.9532,6.9796,7.0357,7.0436,7.039,7.0634,7.0739,7.0235,7.0137,6.9777,6.9173,6.8568,6.8013,6.7426,6.6678,6.5801,6.4892,6.4098,6.3404,6.2617,6.1883,6.146,6.1822,6.2109,6.2171,6.1833,6.1528,6.1032,6.0567,5.9981,5.9659,5.9608,5.9447,5.9286,5.9241,5.839,5.7929,5.7557,5.7067,5.6542,5.6295,5.6077,5.5517,5.488,5.4422,5.4044,5.3597,5.3333,5.3139,5.2587,5.2807,5.3361,5.4044,5.4875,5.5455,5.6349,5.729,5.8433,5.9498,6.0275,6.106,6.1843,6.2582,6.3256,6.3741,6.4431,6.4647,6.4309,6.4309,6.4647,6.4749,6.4749,6.4816,6.4918,6.5155,6.5425,6.5899,6.6576,6.7117,6.5459,6.6745,6.6812,6.6812,6.6812,6.6812,6.7184,6.7827,6.8808,7.0026,7.1447,7.2191,7.2902,7.351,7.4255,7.485,7.5324,7.5493,7.5417,7.5291,7.5194,7.4951,7.4456,7.3953,7.3441,7.2729,7.1874,7.0886,6.9844,6.9325,6.8713,6.8298,6.8111,6.816,6.8365,6.8927,6.8996,6.8916,6.9912,7.0,6.9937,7.0212,7.0357,7.0215,7.0151,6.9743,6.9078,6.875,6.8222,6.7599,6.662,6.5833,6.5082,6.3651,6.283,6.2322,6.1392,6.1155,6.1527,6.1726,6.1591,6.1387,6.1212,6.0786,6.0313,5.9728,5.9175,5.9191,5.8843,5.8464,5.8167,5.7934,5.7778,5.7542,5.7036,5.6765,5.6572,5.6427,5.5999,5.5713,5.5073,5.4436,5.3946,5.3657,5.3807,5.3646,5.3574,5.3884,5.4375,5.49,5.551,5.6257,5.7216,5.8408,5.9556,6.0814,6.1725,6.2532,6.3241,6.3918,6.4435,6.4896,6.4945,6.4783,6.5019,6.5392,6.5561,6.5662,6.5797,6.5933,6.6237,6.6542,6.6914,6.7286,6.776,6.5899,6.6812,6.6812,6.6812,6.6812,6.6812,6.7218,6.8064,6.9248,7.0635,7.1954,7.28,7.3544,7.4255,7.485,7.5296,7.5354,7.5422,7.5277,7.4803,7.4754,7.4256,7.3749,7.3233,7.2624,7.182,7.0941,7.0186,6.9209,6.8713,6.8238,6.7819,6.7699,6.7938,6.8288,6.8636,6.8625,6.8935,6.9546,6.9885,6.9776,7.0125,7.0349,6.988,6.9903,6.9552,6.8946,6.8776,6.834,6.7777,6.6825,6.6,6.5164,6.3733,6.2856,6.2242,6.1416,6.0805,6.0917,6.1002,6.1226,6.1137,6.0921,6.0505,5.9918,5.929,5.9011,5.8856,5.8625,5.8439,5.851,5.8282,5.8116,5.8066,5.7706,5.7556,5.7355,5.7203,5.6939,5.6858,5.6414,5.6101,5.564,5.51,5.509,5.479,5.4709,5.4146,5.4357,5.4969,5.5517,5.6171,5.7069,5.831,5.9492,6.0708,6.1905,6.2727,6.361,6.4513,6.5001,6.5615,6.585,6.6026,6.6102,6.617,6.6339,6.6542,6.6812,6.7015,6.7218,6.7354,6.759,6.7895,6.8267,6.6136,6.6812,6.6812,6.6812,6.6812,6.6812,6.7311,6.8306,6.9758,7.1098,7.2085,7.286,7.3602,7.4343,7.5051,7.5243,7.5033,7.5033,7.4605,7.4155,7.4054,7.3492,7.2867,7.2358,7.1602,7.083,7.0186,6.9499,6.8564,6.8238,6.7819,6.7396,6.7365,6.7487,6.7819,6.8028,6.8325,6.8618,6.9116,6.9463,6.9547,6.9859,7.0161,6.979,6.9602,6.935,6.8878,6.8571,6.8453,6.7863,6.7056,6.6189,6.5183,6.4058,6.3086,6.2287,6.1655,6.1055,6.102,6.1111,6.1379,6.1092,6.0712,6.0301,5.9788,5.9246,5.892,5.8767,5.8593,5.8471,5.8471,5.8247,5.8176,5.8094,5.794,5.7756,5.7674,5.7406,5.7406,5.7393,5.7371,5.7236,5.7184,5.6944,5.6607,5.6209,5.584,5.525,5.4748,5.5334,5.5969,5.659,5.727,5.8372,5.9522,6.0561,6.1754,6.2892,6.4045,6.5236,6.6253,6.6983,6.7131,6.721,6.7117,6.7083,6.7218,6.7421,6.776,6.7929,6.7996,6.8166,6.8301,6.8605,6.8977,6.6136,6.6779,6.6812,6.6812,6.6812,6.6939,6.7622,6.8796,7.0198,7.1136,7.1707,7.2457,7.3146,7.3882,7.4667,7.4738,7.4456,7.4406,7.3851,7.3389,7.3181,7.2443,7.1798,7.1218,7.0662,6.9901,6.9391,6.9046,6.806,6.8092,6.7726,6.7241,6.7331,6.7302,6.7426,6.7578,6.7879,6.8119,6.8417,6.8713,6.8858,6.9325,6.9437,6.937,6.9365,6.9148,6.8862,6.8706,6.8282,6.7646,6.6852,6.6175,6.5167,6.3919,6.3152,6.2414,6.179,6.1549,6.1333,6.1516,6.131,6.0934,6.0631,6.0327,5.9796,5.9266,5.9023,5.8811,5.8629,5.8356,5.8122,5.7997,5.7902,5.7767,5.7663,5.7581,5.7498,5.7446,5.7446,5.7506,5.7536,5.7513,5.7603,5.7513,5.7752,5.7453,5.7176,5.7139,5.6672,5.6393,5.7011,5.7394,5.8009,5.8603,5.9679,6.0626,6.1997,6.3253,6.4918,6.6184,6.7255,6.8015,6.8031,6.7978,6.7954,6.7996,6.803,6.8368,6.8842,6.8944,6.891,6.8944,6.9079,6.9451,6.9823,6.6609,6.6812,6.6812,6.6812,6.6939,6.7748,6.828,6.8629,6.9821,7.0984,7.2089,7.2111,7.2729,7.3974,7.424,7.4021,7.38,7.3492,7.292,7.2443,7.2068,7.147,7.0862,7.03,6.9787,6.9426,6.9112,6.8879,6.8546,6.8357,6.8203,6.7839,6.7627,6.7418,6.724,6.7243,6.7304,6.7487,6.7819,6.7999,6.8119,6.8476,6.8595,6.8713,6.8858,6.8732,6.864,6.8753,6.8567,6.8355,6.7569,6.6793,6.5775,6.4698,6.3719,6.2322,6.1935,6.1781,6.1391,6.1327,6.1267,6.1061,6.0927,6.018,5.9699,5.9308,5.9158,5.9121,5.9061,5.8994,5.8934,5.8828,5.8631,5.8488,5.8404,5.8344,5.8291,5.8291,5.8321,5.853,5.853,5.853,5.853,5.859,5.877,5.862,5.853,5.8584,5.8368,5.7971,5.7775,5.811,5.8398,5.8879,5.9807,6.0802,6.2256,6.3708,6.5365,6.6851,6.7762,6.8394,6.8627,6.8745,6.8731,6.8741,6.8774,6.918,6.9654,6.9789,6.9789,6.9823,6.9958,7.0331,7.0635,6.6542,6.6812,6.6812,6.6855,6.7122,6.797,6.8338,6.8532,6.9443,7.0593,7.1573,7.1374,7.2062,7.3276,7.3389,7.3129,7.2656,7.255,7.2068,7.1305,7.0973,7.0413,6.9875,6.9445,6.9074,6.8905,6.891,6.8849,6.881,6.8863,6.8675,6.8405,6.8196,6.7777,6.7509,6.724,6.706,6.7182,6.7304,6.7487,6.7608,6.7789,6.797,6.803,6.8238,6.8358,6.8386,6.8713,6.8889,6.8797,6.804,6.7316,6.6237,6.5132,6.3938,6.2747,6.2538,6.2388,6.2148,6.2028,6.1762,6.1583,6.1493,6.0924,6.0471,6.0082,6.0052,5.9992,5.9992,5.9907,5.9907,5.9877,5.9697,5.9518,5.9428,5.9338,5.9338,5.9338,5.9548,5.9817,5.9907,5.9907,5.9907,5.9877,5.9907,5.9907,5.9907,5.9907,5.9458,5.8854,5.8548,5.8527,5.8738,5.9031,6.0031,6.1206,6.2649,6.422,6.582,6.7227,6.8162,6.8973,6.948,6.9579,6.9553,6.9519,6.9519,6.9925,7.0331,7.05,7.0703,7.0838,7.0973,7.1278,7.1548,6.6203,6.6812,6.677,6.6987,6.7334,6.7768,6.8056,6.8379,6.9024,6.9845,7.0503,7.0423,7.1108,7.2207,7.2315,7.2014,7.1634,7.147,7.1029,7.0161,6.9844,6.9383,6.9006,6.8568,6.8636,6.8546,6.8783,6.9233,6.922,6.9363,6.9393,6.9064,6.8585,6.8256,6.8046,6.7687,6.7537,6.7629,6.7694,6.7756,6.7547,6.7729,6.791,6.791,6.8119,6.8358,6.8476,6.8654,6.8889,6.8674,6.8369,6.7678,6.6571,6.5107,6.3884,6.3376,6.3049,6.2869,6.278,6.272,6.254,6.2331,6.2151,6.1852,6.1463,6.0805,6.0655,6.0625,6.0565,6.0565,6.0565,6.0535,6.0416,6.0266,6.0146,6.0057,5.9967,6.0057,6.0266,6.0505,6.0565,6.0595,6.0595,6.0505,6.0475,6.0835,6.0894,6.0864,6.0595,5.9817,5.9578,5.9303,5.9441,5.9831,6.0677,6.1835,6.3183,6.4713,6.6241,6.759,6.8657,6.9517,7.0397,7.0367,7.0297,7.0297,7.0364,7.0669,7.0939,7.1278,7.1515,7.1785,7.2056,7.2326,7.2428,6.6643,6.677,6.6635,6.7127,6.7915,6.7742,6.8013,6.852,6.8586,6.9188,6.9942,7.0151,7.0445,7.1044,7.114,7.0862,7.0613,7.0356,6.9875,6.9356,6.8948,6.8715,6.8391,6.8425,6.8485,6.8753,6.9168,6.9819,7.0111,7.026,7.0141,6.9752,6.9363,6.9123,6.8764,6.8405,6.8315,6.8256,6.8318,6.8023,6.7452,6.7242,6.7213,6.7396,6.7699,6.8059,6.8238,6.8595,6.8772,6.8828,6.8766,6.8045,6.7027,6.5079,6.4095,6.3737,6.3378,6.3199,6.3137,6.3137,6.2987,6.2957,6.278,6.275,6.2391,6.1613,6.1194,6.1194,6.1194,6.1224,6.1224,6.1224,6.1134,6.1014,6.0864,6.0745,6.0595,6.0775,6.0954,6.1104,6.1194,6.1224,6.1253,6.1194,6.1134,6.1104,6.1074,6.1074,6.1194,6.0805,6.0835,6.0595,6.0535,6.0962,6.1588,6.2317,6.3578,6.4863,6.6294,6.7695,6.9091,6.9935,7.0736,7.0951,7.1041,7.0973,7.0939,7.1109,7.1413,7.1921,7.2225,7.2462,7.3037,7.3409,7.3409,6.6237,6.6736,6.6592,6.7131,6.7902,6.7519,6.7731,6.8334,6.8444,6.8691,6.9136,6.9312,6.9615,7.001,6.9959,6.9787,6.953,6.9267,6.8948,6.8535,6.827,6.8273,6.8213,6.8361,6.884,6.9196,6.9939,7.056,7.0859,7.0859,7.059,7.032,7.0141,6.9812,6.9393,6.9213,6.9064,6.8974,6.9064,6.8585,6.7777,6.7597,6.7238,6.7332,6.7426,6.7729,6.791,6.8238,6.8417,6.8417,6.8268,6.7723,6.6791,6.5681,6.4694,6.4096,6.3677,6.3378,6.3199,6.3137,6.3137,6.3137,6.3137,6.2929,6.2929,6.2271,6.2211,6.2211,6.2211,6.2241,6.2241,6.2211,6.1912,6.1702,6.1583,6.1493,6.1433,6.1493,6.1822,6.2181,6.2211,6.2211,6.2241,6.2241,6.2181,6.2181,6.2032,6.1912,6.1912,6.1732,6.1792,6.1762,6.1553,6.1605,6.2027,6.2817,6.3779,6.513,6.6322,6.7889,6.9334,7.0236,7.0961,7.1244,7.1447,7.1515,7.1515,7.1718,7.2157,7.2699,7.2935,7.3138,7.3747,7.4356,7.4322,6.5553,6.666,6.6651,6.7066,6.7696,6.7199,6.7362,6.8046,6.8405,6.8335,6.8162,6.8349,6.8714,6.8996,6.9006,6.8713,6.8476,6.8476,6.8179,6.8152,6.788,6.8181,6.8388,6.8533,6.922,6.9875,7.053,7.0739,7.0889,7.0889,7.0859,7.0769,7.047,7.0081,6.9901,6.9662,6.9423,6.9512,6.9482,6.9303,6.8854,6.8375,6.7747,6.7421,6.7334,6.7487,6.7608,6.7789,6.797,6.791,6.7819,6.7366,6.6854,6.6132,6.5383,6.4695,6.4066,6.3707,6.3378,6.3169,6.3166,6.3137,6.3137,6.3166,6.3109,6.3079,6.3019,6.2989,6.2989,6.2989,6.2959,6.2899,6.257,6.2361,6.2271,6.2181,6.2181,6.2181,6.257,6.3047,6.2959,6.2959,6.2989,6.3019,6.3049,6.3137,6.3137,6.3137,6.3017,6.263,6.248,6.2361,6.2181,6.2322,6.2548,6.3143,6.4052,6.4971,6.6269,6.8004,6.9592,7.055,7.124,7.1526,7.1718,7.209,7.2293,7.2496,7.3003,7.3477,7.3646,7.3849,7.4424,7.4931,7.5134,6.5875,6.6583,6.6896,6.7313,6.7599,6.7421,6.7473,6.7599,6.8062,6.7981,6.779,6.8147,6.8621,6.9006,6.8654,6.8417,6.8238,6.8,6.8152,6.8302,6.8056,6.8413,6.892,6.9426,7.0021,7.062,7.1038,7.0919,7.1098,7.1009,7.0889,7.0859,7.0859,7.0679,7.0679,7.044,7.032,7.029,7.026,7.0171,6.9482,6.8884,6.8076,6.7751,6.7575,6.7547,6.7608,6.785,6.797,6.791,6.7669,6.7366,6.7034,6.6522,6.5892,6.5323,6.4695,6.4216,6.3887,6.3558,6.3468,6.3378,6.3408,6.3348,6.3318,6.3228,6.3199,6.3139,6.3109,6.3107,6.3049,6.3049,6.2839,6.2839,6.278,6.278,6.278,6.275,6.2987,6.3107,6.3107,6.3049,6.3049,6.3049,6.3049,6.3137,6.3137,6.3137,6.3137,6.3137,6.3137,6.2899,6.269,6.2839,6.2984,6.3403,6.4198,6.5094,6.6236,6.8064,6.963,7.0842,7.1459,7.2054,7.2597,7.3037,7.3206,7.3308,7.3713,7.4153,7.4322,7.4593,7.5134,7.5405,7.5439]}]]